[[{"header":{"parameterUnit":"m.s-1","parameterCategory":1,"la1":31.0,"la2":29.5877,"lo1":-88.7671,"lo2":-86.6584,"dx":0.0162,"dy":0.0185,"nx":115,"ny":88,"refTime":"2023-02-08T18:00:00:Z","depth":0,"parameterNumber":2,"parameterNumberName":"U-component_of_WINDS"},"data":[0.0,0.0,0.0,0.0,0.0,0.0,0.0,0.0,0.0,0.0,0.0,0.0,0.0,0.0,0.0,0.0,0.0,0.0,0.0,0.0,0.0,0.0,0.0,0.0,0.0,0.0,0.0,0.0,0.0,0.0,0.0,0.0,0.0,0.0,0.0,0.0,0.0,0.0,0.0,0.0,0.0,0.0,0.0,0.0,0.0,0.0,0.0,0.0,0.0,0.0,0.0,0.0,0.0,0.0,0.0,0.0,0.0,0.0,0.0,0.0,0.0,0.0,0.0,0.0,0.0,0.0,0.0,0.0,0.0,0.0,0.0,0.0,0.0,0.0,0.0,0.0,0.0,0.0,0.0,0.0,0.0,0.0,0.0,0.0,0.0,0.0,0.0,0.0,0.0,0.0,0.0,0.0,0.0,0.0,0.0,0.0,0.0,0.0,0.0,0.0,0.0,0.0,0.0,0.0,0.0,0.0,0.0,0.0,0.0,0.0,0.0,0.0,0.0,0.0,0.0,0.0,0.0,0.0,0.0,0.0,0.0,0.0,0.0,0.0,0.0,0.0,0.0,0.0,0.0,0.0,0.0,0.0,0.0,0.0,0.0,0.0,0.0,0.0,0.0,0.0,0.0,0.0,0.0,0.0,0.0,0.0,0.0,0.0,0.0,0.0,0.0,0.0,0.0,0.0,0.0,0.0,0.0,0.0,0.0,0.0,0.0,0.0,0.0,0.0,0.0,0.0,0.0,0.0,0.0,0.0,0.0,0.0,0.0,0.0,0.0,0.0,0.0,0.0,0.0,0.0,0.0,0.0,0.0,0.0,0.0,0.0,0.0,0.0,0.0,0.0,0.0,0.0,0.0,0.0,0.0,0.0,0.0,0.0,0.0,0.0,0.0,0.0,0.0,0.0,0.0,0.0,0.0,0.0,0.0,0.0,0.0,0.0,0.0,0.0,0.0,0.0,0.0,0.0,0.0,0.0,0.0,0.0,0.0,0.0,0.0,0.0,0.0,0.0,0.0,0.0,0.0,0.0,0.0,0.0,0.0,0.0,0.0,0.0,0.0,0.0,0.0,0.0,0.0,0.0,0.0,0.0,0.0,0.0,0.0,0.0,0.0,0.0,0.0,0.0,0.0,0.0,0.0,0.0,0.0,0.0,0.0,0.0,0.0,0.0,0.0,0.0,0.0,0.0,0.0,0.0,0.0,0.0,0.0,0.0,0.0,0.0,0.0,0.0,0.0,0.0,0.0,0.0,0.0,0.0,0.0,0.0,0.0,0.0,0.0,0.0,0.0,0.0,0.0,0.0,0.0,0.0,0.0,0.0,0.0,0.0,0.0,0.0,0.0,0.0,0.0,0.0,0.0,0.0,0.0,0.0,0.0,0.0,0.0,0.0,0.0,0.0,0.0,0.0,0.0,0.0,0.0,0.0,0.0,0.0,0.0,0.0,0.0,0.0,0.0,0.0,0.0,0.0,0.0,0.0,0.0,0.0,0.0,0.0,0.0,0.0,0.0,0.0,0.0,0.0,0.0,0.0,0.0,0.0,0.0,0.0,0.0,0.0,0.0,0.0,0.0,0.0,0.0,0.0,0.0,0.0,0.0,0.0,0.0,0.0,0.0,0.0,0.0,0.0,0.0,0.0,0.0,0.0,0.0,0.0,0.0,0.0,0.0,0.0,0.0,0.0,0.0,0.0,0.0,0.0,0.0,0.0,0.0,0.0,0.0,0.0,0.0,0.0,0.0,0.0,0.0,0.0,0.0,0.0,0.0,0.0,0.0,0.0,0.0,0.0,0.0,0.0,0.0,0.0,0.0,0.0,0.0,0.0,0.0,0.0,0.0,0.0,0.0,0.0,0.0,0.0,0.0,0.0,0.0,0.0,0.0,0.0,0.0,0.0,0.0,0.0,0.0,0.0,0.0,0.0,0.0,0.0,0.0,0.0,0.0,0.0,0.0,0.0,0.0,0.0,0.0,0.0,0.0,0.0,0.0,0.0,0.0,0.0,0.0,0.0,0.0,0.0,0.0,0.0,0.0,0.0,0.0,0.0,0.0,0.0,0.0,0.0,0.0,0.0,0.0,0.0,0.0,0.0,0.0,0.0,0.0,0.0,0.0,0.0,0.0,0.0,0.0,0.0,0.0,0.0,0.0,0.0,0.0,0.0,0.0,0.0,0.0,0.0,0.0,0.0,0.0,0.0,0.0,0.0,0.0,0.0,0.0,0.0,0.0,0.0,0.0,0.0,0.0,0.0,0.0,0.0,0.0,0.0,0.0,0.0,0.0,0.0,0.0,0.0,0.0,0.0,0.0,0.0,0.0,0.0,0.0,0.0,0.0,0.0,0.0,0.0,0.0,0.0,0.0,0.0,0.0,0.0,0.0,0.0,0.0,0.0,0.0,0.0,0.0,0.0,0.0,0.0,0.0,0.0,0.0,0.0,0.0,0.0,0.0,0.0,0.0,0.0,0.0,0.0,0.0,0.0,0.0,0.0,0.0,0.0,0.0,0.0,0.0,0.0,0.0,0.0,0.0,0.0,0.0,0.0,0.0,0.0,0.0,0.0,0.0,0.0,0.0,0.0,0.0,0.0,0.0,0.0,0.0,0.0,0.0,0.0,0.0,0.0,0.0,0.0,0.0,0.0,0.0,0.0,0.0,0.0,0.0,0.0,0.0,0.0,0.0,0.0,0.0,0.0,0.0,0.0,0.0,0.0,0.0,0.0,0.0,0.0,0.0,0.0,0.0,0.0,0.0,0.0,0.0,0.0,0.0,0.0,0.0,0.0,0.0,0.0,0.0,0.0,0.0,0.0,0.0,0.0,0.0,0.0,0.0,0.0,0.0,0.0,0.0,0.0,0.0,0.0,0.0,0.0,0.0,0.0,0.0,0.0,0.0,0.0,0.0,0.0,0.0,0.0,0.0,0.0,0.0,0.0,0.0,0.0,0.0,0.0,0.0,0.0,0.0,0.0,0.0,0.0,0.0,0.0,0.0,0.0,0.0,0.0,0.0,0.0,0.0,0.0,0.0,0.0,0.0,0.0,0.0,0.0,0.0,0.0,0.0,0.0,0.0,0.0,0.0,0.0,0.0,0.0,0.0,0.0,0.0,0.0,0.0,0.0,0.0,0.0,0.0,0.0,0.0,0.0,0.0,0.0,0.0,0.0,0.0,0.0,0.0,0.0,0.0,0.0,0.0,0.0,0.0,0.0,0.0,0.0,0.0,0.0,0.0,0.0,0.0,0.0,0.0,0.0,0.0,0.0,0.0,0.0,0.0,0.0,0.0,0.0,0.0,0.0,0.0,0.0,0.0,0.0,0.0,0.0,0.0,0.0,0.0,0.0,0.0,0.0,0.0,0.0,0.0,0.0,0.0,0.0,0.0,0.0,0.0,0.0,0.0,0.0,0.0,0.0,0.0,0.0,0.0,0.0,0.0,0.0,0.0,0.0,0.0,0.0,0.0,0.0,0.0,0.0,0.0,0.0,0.0,0.0,0.0,0.0,0.0,0.0,0.0,0.0,0.0,0.0,0.0,0.0,0.0,0.0,0.0,0.0,0.0,0.0,0.0,0.0,0.0,0.0,0.0,0.0,0.0,0.0,0.0,0.0,0.0,0.0,0.0,0.0,0.0,0.0,0.0,0.0,0.0,0.0,0.0,0.0,0.0,0.0,0.0,0.0,0.0,0.0,0.0,0.0,0.0,0.0,0.0,0.0,0.0,0.0,0.0,0.0,0.0,0.0,0.0,0.0,0.0,0.0,0.0,0.0,0.0,0.0,0.0,0.0,0.0,0.0,0.0,0.0,0.0,0.0,0.0,0.0,0.0,0.0,0.0,0.0,0.0,0.0,0.0,0.0,0.0,0.0,0.0,0.0,0.0,0.0,0.0,0.0,0.0,0.0,0.0,0.0,0.0,0.0,0.0,0.0,0.0,0.0,0.0,0.0,0.0,0.0,0.0,0.0,0.0,0.0,0.0,0.0,0.0,0.0,0.0,0.0,0.0,0.0,0.0,0.0,0.0,0.0,0.0,0.0,0.0,0.0,0.0,0.0,0.0,0.0,0.0,0.0,0.0,0.0,0.0,0.0,0.0,0.0,0.0,0.0,0.0,0.0,0.0,0.0,0.0,0.0,0.0,0.0,0.0,0.0,0.0,0.0,0.0,0.0,0.0,0.0,0.0,0.0,0.0,0.0,0.0,0.0,0.0,0.0,0.0,0.0,0.0,0.0,0.0,0.0,0.0,0.0,0.0,0.0,0.0,0.0,0.0,0.0,0.0,0.0,3.1482,0.0,0.0,0.0,0.0,0.0,0.0,0.0,0.0,0.0,0.0,0.0,0.0,0.0,0.0,0.0,0.0,0.0,0.0,0.0,0.0,0.0,0.0,0.0,0.0,0.0,0.0,0.0,0.0,0.0,0.0,0.0,0.0,0.0,0.0,0.0,0.0,0.0,0.0,0.0,0.0,0.0,0.0,0.0,0.0,0.0,0.0,0.0,0.0,0.0,0.0,0.0,0.0,0.0,0.0,0.0,0.0,0.0,0.0,0.0,0.0,0.0,0.0,0.0,0.0,0.0,0.0,0.0,0.0,0.0,0.0,0.0,0.0,0.0,0.0,0.0,0.0,0.0,0.0,0.0,0.0,0.0,0.0,0.0,0.0,0.0,0.0,0.0,0.0,0.0,0.0,0.0,0.0,0.0,0.0,0.0,0.0,0.0,0.0,0.0,0.0,0.0,0.0,0.0,0.0,0.0,0.0,0.0,0.0,0.0,0.0,3.1482,3.1482,3.1482,3.1482,3.1482,0.0,0.0,0.0,0.0,0.0,0.0,0.0,0.0,0.0,0.0,0.0,0.0,0.0,0.0,0.0,0.0,0.0,0.0,0.0,0.0,0.0,0.0,0.0,0.0,0.0,0.0,0.0,0.0,0.0,0.0,0.0,0.0,0.0,0.0,0.0,0.0,0.0,0.0,0.0,0.0,0.0,0.0,0.0,0.0,0.0,0.0,0.0,0.0,0.0,0.0,0.0,0.0,0.0,0.0,0.0,0.0,0.0,0.0,0.0,0.0,0.0,0.0,0.0,0.0,0.0,0.0,0.0,0.0,0.0,0.0,0.0,0.0,0.0,0.0,0.0,0.0,0.0,0.0,0.0,0.0,0.0,0.0,0.0,0.0,0.0,0.0,0.0,0.0,0.0,0.0,0.0,0.0,0.0,0.0,0.0,0.0,0.0,0.0,0.0,0.0,0.0,0.0,0.0,0.0,0.0,0.0,0.0,0.0,0.0,0.0,0.0,0.0,3.1482,3.1482,3.1482,0.0,0.0,0.0,0.0,0.0,0.0,0.0,0.0,0.0,0.0,0.0,0.0,0.0,0.0,0.0,0.0,0.0,0.0,0.0,0.0,0.0,0.0,0.0,0.0,0.0,0.0,0.0,0.0,0.0,0.0,0.0,0.0,0.0,0.0,0.0,0.0,0.0,0.0,0.0,0.0,0.0,0.0,0.0,0.0,0.0,0.0,0.0,0.0,0.0,0.0,0.0,0.0,0.0,0.0,0.0,0.0,0.0,0.0,0.0,0.0,0.0,0.0,0.0,0.0,0.0,0.0,0.0,0.0,0.0,0.0,0.0,0.0,0.0,0.0,0.0,0.0,0.0,0.0,0.0,0.0,0.0,0.0,0.0,0.0,0.0,0.0,0.0,0.0,0.0,0.0,0.0,0.0,0.0,0.0,0.0,0.0,0.0,0.0,0.0,0.0,0.0,0.0,0.0,0.0,0.0,0.0,0.0,0.0,0.0,0.0,3.1482,3.1482,3.1482,0.0,3.1452,0.0,0.0,0.0,0.0,0.0,0.0,0.0,0.0,0.0,0.0,0.0,0.0,0.0,0.0,0.0,0.0,0.0,0.0,0.0,0.0,0.0,0.0,0.0,0.0,0.0,0.0,0.0,0.0,0.0,0.0,0.0,0.0,0.0,0.0,0.0,0.0,0.0,0.0,0.0,0.0,0.0,0.0,0.0,0.0,0.0,0.0,0.0,0.0,0.0,0.0,0.0,0.0,0.0,0.0,0.0,0.0,0.0,0.0,0.0,0.0,0.0,0.0,0.0,0.0,0.0,0.0,0.0,0.0,0.0,0.0,0.0,0.0,0.0,0.0,0.0,0.0,0.0,0.0,0.0,0.0,0.0,0.0,0.0,0.0,0.0,0.0,0.0,0.0,0.0,0.0,0.0,0.0,0.0,0.0,0.0,0.0,0.0,0.0,0.0,0.0,0.0,0.0,0.0,0.0,0.0,0.0,0.0,0.0,0.0,0.0,3.1482,3.1482,3.1482,3.1482,0.0,0.0,0.0,0.0,0.0,0.0,0.0,0.0,0.0,0.0,0.0,0.0,0.0,0.0,0.0,0.0,0.0,0.0,0.0,0.0,0.0,0.0,0.0,0.0,0.0,0.0,0.0,0.0,0.0,0.0,0.0,0.0,0.0,0.0,0.0,0.0,0.0,0.0,0.0,0.0,0.0,0.0,0.0,0.0,0.0,0.0,0.0,0.0,0.0,0.0,0.0,0.0,0.0,0.0,0.0,0.0,0.0,0.0,0.0,0.0,0.0,0.0,0.0,0.0,0.0,0.0,0.0,0.0,0.0,0.0,0.0,0.0,0.0,0.0,0.0,0.0,0.0,0.0,0.0,0.0,0.0,0.0,0.0,0.0,0.0,0.0,0.0,0.0,0.0,0.0,0.0,0.0,0.0,0.0,0.0,0.0,0.0,0.0,0.0,0.0,0.0,0.0,0.0,0.0,0.0,0.0,0.0,0.0,0.0,0.0,3.1482,3.1482,3.1482,3.1482,3.1482,3.1482,0.0,0.0,0.0,0.0,0.0,0.0,0.0,0.0,0.0,0.0,0.0,0.0,0.0,0.0,0.0,0.0,0.0,0.0,0.0,0.0,0.0,0.0,0.0,0.0,0.0,0.0,0.0,0.0,0.0,0.0,0.0,0.0,0.0,0.0,0.0,0.0,0.0,0.0,0.0,0.0,0.0,0.0,0.0,0.0,0.0,0.0,0.0,0.0,0.0,0.0,0.0,0.0,0.0,0.0,0.0,0.0,0.0,0.0,0.0,0.0,0.0,0.0,0.0,0.0,0.0,0.0,0.0,0.0,0.0,0.0,0.0,0.0,0.0,0.0,0.0,0.0,0.0,0.0,0.0,0.0,0.0,0.0,0.0,0.0,0.0,0.0,0.0,0.0,0.0,0.0,0.0,0.0,0.0,0.0,0.0,0.0,0.0,0.0,0.0,0.0,0.0,0.0,0.0,0.0,0.0,0.0,0.0,0.0,3.1539,3.1539,3.1539,3.1539,3.1539,3.1539,0.0,0.0,0.0,0.0,0.0,0.0,0.0,0.0,0.0,0.0,0.0,0.0,0.0,0.0,0.0,0.0,0.0,0.0,0.0,0.0,0.0,0.0,0.0,0.0,0.0,0.0,0.0,0.0,0.0,0.0,0.0,0.0,0.0,0.0,0.0,0.0,0.0,0.0,0.0,0.0,0.0,0.0,0.0,0.0,0.0,0.0,0.0,0.0,0.0,0.0,0.0,0.0,0.0,0.0,0.0,0.0,0.0,0.0,0.0,0.0,0.0,0.0,0.0,0.0,0.0,0.0,0.0,0.0,0.0,0.0,0.0,0.0,0.0,0.0,0.0,0.0,0.0,0.0,0.0,0.0,0.0,0.0,0.0,0.0,0.0,0.0,0.0,0.0,0.0,0.0,0.0,0.0,0.0,0.0,0.0,0.0,0.0,0.0,0.0,0.0,0.0,0.0,0.0,0.0,0.0,0.0,0.0,0.0,0.0,3.2079,3.2437,3.2843,3.3246,3.2486,3.2348,0.0,0.0,0.0,0.0,0.0,0.0,0.0,0.0,0.0,0.0,0.0,0.0,0.0,0.0,0.0,0.0,0.0,0.0,0.0,0.0,0.0,0.0,0.0,0.0,0.0,0.0,0.0,0.0,0.0,0.0,0.0,0.0,0.0,0.0,0.0,0.0,0.0,0.0,0.0,0.0,0.0,0.0,0.0,0.0,0.0,0.0,0.0,0.0,0.0,0.0,0.0,0.0,0.0,0.0,0.0,0.0,0.0,0.0,0.0,0.0,0.0,0.0,0.0,0.0,0.0,0.0,0.0,0.0,0.0,0.0,0.0,0.0,0.0,0.0,0.0,0.0,0.0,0.0,0.0,0.0,0.0,0.0,0.0,0.0,0.0,0.0,0.0,0.0,0.0,0.0,0.0,0.0,0.0,0.0,0.0,0.0,0.0,0.0,0.0,0.0,0.0,0.0,0.0,0.0,0.0,0.0,0.0,0.0,0.0,3.2656,0.0,3.3309,3.4216,3.327,3.2992,0.0,0.0,0.0,0.0,0.0,0.0,0.0,0.0,0.0,0.0,0.0,0.0,0.0,0.0,0.0,0.0,0.0,0.0,0.0,0.0,0.0,0.0,0.0,0.0,0.0,0.0,0.0,0.0,0.0,0.0,0.0,0.0,0.0,0.0,0.0,0.0,0.0,0.0,0.0,0.0,0.0,0.0,0.0,0.0,0.0,0.0,0.0,0.0,0.0,0.0,0.0,0.0,0.0,0.0,0.0,0.0,0.0,0.0,0.0,0.0,0.0,0.0,0.0,0.0,0.0,0.0,0.0,0.0,0.0,0.0,0.0,0.0,0.0,0.0,0.0,0.0,0.0,0.0,0.0,0.0,0.0,0.0,0.0,0.0,0.0,0.0,0.0,0.0,0.0,0.0,0.0,0.0,0.0,0.0,0.0,0.0,0.0,0.0,0.0,0.0,0.0,0.0,0.0,0.0,0.0,0.0,0.0,0.0,3.2711,3.3214,3.2582,3.2982,3.4248,3.3761,3.3455,0.0,0.0,0.0,0.0,0.0,0.0,0.0,0.0,0.0,0.0,0.0,0.0,0.0,0.0,0.0,0.0,0.0,0.0,0.0,0.0,0.0,0.0,0.0,0.0,0.0,0.0,0.0,0.0,0.0,0.0,0.0,0.0,0.0,0.0,0.0,0.0,0.0,0.0,0.0,0.0,0.0,0.0,0.0,0.0,0.0,0.0,0.0,0.0,0.0,0.0,0.0,0.0,0.0,0.0,0.0,0.0,0.0,0.0,0.0,0.0,0.0,0.0,0.0,0.0,0.0,0.0,0.0,0.0,0.0,0.0,0.0,0.0,0.0,0.0,0.0,0.0,0.0,0.0,0.0,0.0,0.0,0.0,0.0,0.0,0.0,0.0,0.0,0.0,0.0,0.0,0.0,0.0,0.0,0.0,0.0,0.0,0.0,0.0,0.0,0.0,0.0,0.0,0.0,0.0,0.0,0.0,0.0,0.0,0.0,3.5218,3.4428,3.4725,3.6097,3.5154,3.4803,0.0,0.0,0.0,0.0,0.0,0.0,0.0,0.0,0.0,0.0,0.0,0.0,0.0,0.0,0.0,0.0,0.0,0.0,0.0,0.0,0.0,0.0,0.0,0.0,0.0,0.0,0.0,0.0,0.0,0.0,0.0,0.0,0.0,0.0,0.0,0.0,0.0,0.0,0.0,0.0,0.0,0.0,0.0,0.0,0.0,0.0,0.0,0.0,0.0,0.0,0.0,0.0,0.0,0.0,0.0,0.0,0.0,0.0,0.0,0.0,0.0,0.0,0.0,0.0,0.0,0.0,0.0,0.0,0.0,0.0,0.0,0.0,0.0,0.0,0.0,0.0,0.0,0.0,0.0,0.0,0.0,0.0,0.0,0.0,0.0,0.0,0.0,0.0,0.0,0.0,0.0,0.0,0.0,0.0,0.0,0.0,0.0,0.0,0.0,0.0,0.0,0.0,0.0,0.0,0.0,0.0,0.0,0.0,0.0,3.7728,3.6422,3.6406,3.7897,3.6929,3.6172,3.5819,0.0,0.0,0.0,0.0,0.0,0.0,0.0,0.0,0.0,0.0,0.0,0.0,0.0,0.0,0.0,0.0,0.0,0.0,0.0,0.0,0.0,0.0,0.0,0.0,0.0,0.0,0.0,0.0,0.0,0.0,0.0,0.0,0.0,0.0,0.0,0.0,0.0,0.0,0.0,0.0,0.0,0.0,0.0,0.0,0.0,0.0,0.0,0.0,0.0,0.0,0.0,0.0,0.0,0.0,0.0,0.0,0.0,0.0,0.0,0.0,0.0,0.0,0.0,0.0,0.0,0.0,0.0,0.0,0.0,0.0,0.0,0.0,0.0,0.0,0.0,0.0,0.0,0.0,0.0,0.0,0.0,0.0,0.0,0.0,0.0,0.0,0.0,0.0,0.0,0.0,0.0,0.0,0.0,0.0,0.0,0.0,0.0,0.0,0.0,0.0,0.0,0.0,0.0,0.0,0.0,0.0,0.0,0.0,4.06,3.8631,3.8162,3.9475,3.8875,3.7594,0.0,0.0,0.0,0.0,0.0,0.0,0.0,0.0,0.0,0.0,0.0,0.0,0.0,0.0,0.0,0.0,0.0,0.0,0.0,0.0,0.0,0.0,0.0,0.0,0.0,0.0,0.0,0.0,0.0,0.0,0.0,0.0,0.0,0.0,0.0,0.0,0.0,0.0,0.0,0.0,0.0,0.0,0.0,0.0,0.0,0.0,0.0,0.0,0.0,0.0,0.0,0.0,0.0,0.0,0.0,0.0,0.0,0.0,0.0,0.0,0.0,0.0,0.0,0.0,0.0,0.0,0.0,0.0,0.0,0.0,0.0,0.0,0.0,0.0,0.0,0.0,0.0,0.0,0.0,0.0,0.0,0.0,0.0,0.0,0.0,0.0,0.0,0.0,0.0,0.0,0.0,0.0,0.0,0.0,0.0,0.0,0.0,0.0,0.0,0.0,0.0,0.0,0.0,0.0,0.0,0.0,0.0,0.0,0.0,4.1133,4.2137,4.2427,4.1876,4.0061,3.8821,0.0,0.0,0.0,0.0,0.0,0.0,0.0,0.0,0.0,0.0,0.0,0.0,0.0,0.0,0.0,0.0,0.0,0.0,0.0,0.0,0.0,0.0,0.0,0.0,0.0,0.0,0.0,0.0,0.0,0.0,0.0,0.0,0.0,0.0,0.0,0.0,0.0,0.0,0.0,0.0,0.0,0.0,0.0,0.0,0.0,0.0,0.0,0.0,0.0,0.0,0.0,0.0,0.0,0.0,0.0,0.0,0.0,0.0,0.0,0.0,0.0,0.0,0.0,0.0,0.0,0.0,0.0,0.0,0.0,0.0,0.0,0.0,0.0,0.0,0.0,0.0,0.0,0.0,0.0,0.0,0.0,0.0,0.0,0.0,0.0,0.0,0.0,0.0,0.0,0.0,0.0,0.0,0.0,0.0,0.0,0.0,0.0,0.0,0.0,0.0,0.0,0.0,0.0,0.0,0.0,0.0,0.0,0.0,4.0636,4.161,4.455,4.5744,4.5097,4.1931,3.9851,0.0,0.0,0.0,0.0,0.0,0.0,0.0,0.0,0.0,0.0,0.0,0.0,0.0,0.0,0.0,0.0,0.0,0.0,0.0,0.0,0.0,0.0,0.0,0.0,0.0,0.0,0.0,0.0,0.0,0.0,0.0,0.0,0.0,0.0,0.0,0.0,0.0,0.0,0.0,0.0,0.0,0.0,0.0,0.0,0.0,0.0,0.0,0.0,0.0,0.0,0.0,0.0,0.0,0.0,0.0,0.0,0.0,0.0,0.0,0.0,0.0,0.0,0.0,0.0,0.0,0.0,0.0,0.0,0.0,0.0,0.0,0.0,0.0,0.0,0.0,0.0,0.0,0.0,0.0,0.0,0.0,0.0,0.0,0.0,0.0,0.0,0.0,0.0,0.0,0.0,0.0,0.0,0.0,0.0,0.0,0.0,0.0,0.0,0.0,0.0,0.0,0.0,0.0,0.0,0.0,0.0,0.0,0.0,4.1654,4.2234,4.5972,4.8066,4.8063,4.3896,4.0631,0.0,0.0,0.0,0.0,0.0,0.0,0.0,0.0,0.0,0.0,0.0,0.0,0.0,0.0,0.0,0.0,0.0,0.0,0.0,0.0,0.0,0.0,0.0,0.0,0.0,0.0,0.0,0.0,0.0,0.0,0.0,0.0,0.0,0.0,0.0,0.0,0.0,0.0,0.0,0.0,0.0,0.0,0.0,0.0,0.0,0.0,0.0,0.0,0.0,0.0,0.0,0.0,0.0,0.0,0.0,0.0,0.0,0.0,0.0,0.0,0.0,0.0,0.0,0.0,0.0,0.0,0.0,0.0,0.0,0.0,0.0,0.0,0.0,0.0,0.0,0.0,0.0,0.0,0.0,0.0,0.0,0.0,0.0,0.0,0.0,0.0,0.0,0.0,0.0,0.0,0.0,0.0,0.0,0.0,0.0,0.0,0.0,0.0,0.0,0.0,0.0,0.0,0.0,0.0,0.0,0.0,0.0,0.0,4.227,4.4112,4.6706,4.8001,4.8033,4.374,4.1238,0.0,0.0,0.0,0.0,0.0,0.0,0.0,0.0,0.0,0.0,0.0,0.0,0.0,0.0,0.0,0.0,0.0,0.0,0.0,0.0,0.0,0.0,0.0,0.0,0.0,0.0,0.0,0.0,0.0,0.0,0.0,0.0,0.0,0.0,0.0,0.0,0.0,0.0,0.0,0.0,0.0,0.0,0.0,0.0,0.0,0.0,0.0,0.0,3.7854,0.0,0.0,0.0,0.0,0.0,0.0,0.0,0.0,0.0,0.0,0.0,0.0,0.0,0.0,0.0,0.0,0.0,0.0,0.0,0.0,0.0,0.0,0.0,0.0,0.0,0.0,0.0,0.0,0.0,0.0,0.0,0.0,0.0,0.0,0.0,0.0,0.0,0.0,0.0,0.0,0.0,0.0,0.0,0.0,0.0,0.0,0.0,0.0,0.0,0.0,0.0,0.0,0.0,0.0,0.0,0.0,0.0,0.0,0.0,4.2469,4.4776,4.6938,4.8001,4.7868,4.4721,4.2469,0.0,0.0,0.0,0.0,0.0,0.0,0.0,0.0,0.0,0.0,0.0,0.0,0.0,0.0,0.0,0.0,0.0,0.0,0.0,0.0,0.0,0.0,0.0,0.0,0.0,0.0,0.0,0.0,0.0,0.0,0.0,0.0,0.0,0.0,0.0,0.0,0.0,0.0,0.0,0.0,0.0,0.0,0.0,0.0,0.0,0.0,0.0,0.0,0.0,0.0,0.0,0.0,0.0,0.0,0.0,0.0,0.0,0.0,0.0,0.0,0.0,0.0,0.0,0.0,0.0,0.0,0.0,0.0,0.0,0.0,0.0,0.0,0.0,0.0,0.0,0.0,0.0,0.0,0.0,0.0,0.0,0.0,0.0,0.0,0.0,0.0,0.0,0.0,0.0,0.0,0.0,0.0,0.0,0.0,0.0,0.0,0.0,0.0,0.0,0.0,0.0,0.0,0.0,0.0,0.0,0.0,0.0,4.0481,4.2725,4.5336,4.7104,4.8001,4.7968,4.5847,4.3661,4.1475,0.0,0.0,0.0,0.0,0.0,0.0,0.0,0.0,0.0,0.0,0.0,0.0,0.0,0.0,0.0,0.0,0.0,0.0,0.0,0.0,0.0,0.0,0.0,0.0,0.0,0.0,0.0,0.0,0.0,0.0,0.0,0.0,0.0,0.0,0.0,0.0,0.0,0.0,3.7356,3.6998,0.0,0.0,0.0,0.0,0.0,0.0,0.0,0.0,3.736,0.0,0.0,0.0,0.0,0.0,0.0,0.0,0.0,0.0,0.0,0.0,0.0,0.0,0.0,0.0,0.0,0.0,0.0,0.0,0.0,0.0,0.0,0.0,0.0,0.0,0.0,0.0,0.0,0.0,0.0,0.0,0.0,0.0,0.0,0.0,0.0,0.0,0.0,0.0,0.0,0.0,0.0,0.0,0.0,0.0,0.0,0.0,0.0,0.0,0.0,0.0,0.0,0.0,0.0,0.0,0.0,4.0189,4.0983,4.3396,4.7338,4.7802,4.8001,4.7934,4.5847,4.3661,4.1475,0.0,0.0,0.0,0.0,0.0,0.0,0.0,0.0,0.0,0.0,0.0,0.0,0.0,0.0,0.0,0.0,0.0,0.0,0.0,0.0,0.0,0.0,0.0,0.0,0.0,0.0,0.0,0.0,0.0,0.0,0.0,0.0,0.0,0.0,0.0,0.0,0.0,0.0,0.0,3.7771,3.7523,0.0,0.0,0.0,0.0,0.0,0.0,0.0,0.0,3.8667,0.0,0.0,0.0,0.0,0.0,0.0,0.0,0.0,0.0,0.0,0.0,0.0,0.0,0.0,0.0,0.0,0.0,0.0,0.0,0.0,0.0,0.0,0.0,0.0,0.0,0.0,0.0,0.0,0.0,0.0,0.0,0.0,0.0,0.0,0.0,0.0,0.0,0.0,0.0,0.0,0.0,0.0,0.0,0.0,0.0,0.0,0.0,0.0,0.0,0.0,0.0,0.0,0.0,0.0,0.0,4.0935,4.2418,4.4721,4.7868,4.8001,4.8001,4.7968,4.5847,4.3661,0.0,0.0,0.0,0.0,0.0,0.0,0.0,0.0,0.0,0.0,0.0,0.0,0.0,0.0,0.0,0.0,0.0,0.0,0.0,0.0,0.0,0.0,0.0,0.0,0.0,0.0,0.0,0.0,0.0,0.0,0.0,0.0,0.0,0.0,0.0,0.0,0.0,0.0,0.0,0.0,3.8216,3.8043,3.9742,0.0,0.0,0.0,0.0,0.0,0.0,3.8144,3.8173,0.0,0.0,0.0,0.0,0.0,0.0,0.0,0.0,0.0,0.0,0.0,0.0,0.0,0.0,0.0,0.0,0.0,0.0,0.0,0.0,0.0,0.0,0.0,0.0,0.0,0.0,0.0,0.0,0.0,0.0,0.0,0.0,0.0,0.0,0.0,0.0,0.0,0.0,0.0,0.0,0.0,0.0,0.0,0.0,0.0,0.0,0.0,0.0,0.0,0.0,0.0,0.0,0.0,0.0,0.0,4.1409,4.3562,4.5748,4.7901,4.8001,4.8001,4.7968,4.5417,4.3197,0.0,0.0,0.0,0.0,0.0,0.0,0.0,0.0,0.0,0.0,0.0,0.0,0.0,0.0,0.0,0.0,0.0,0.0,0.0,0.0,0.0,0.0,0.0,0.0,0.0,0.0,0.0,0.0,0.0,0.0,0.0,0.0,0.0,0.0,0.0,0.0,0.0,0.0,0.0,0.0,0.0,3.8767,4.0761,3.8956,0.0,0.0,0.0,0.0,3.7883,3.8202,0.0,0.0,0.0,0.0,0.0,0.0,0.0,0.0,0.0,0.0,0.0,0.0,0.0,0.0,0.0,0.0,0.0,0.0,0.0,0.0,0.0,0.0,0.0,0.0,0.0,0.0,0.0,0.0,0.0,0.0,0.0,0.0,0.0,0.0,0.0,0.0,0.0,0.0,0.0,0.0,0.0,0.0,0.0,0.0,0.0,0.0,0.0,0.0,0.0,0.0,0.0,0.0,0.0,0.0,0.0,0.0,4.1409,4.3562,4.5781,4.7868,4.8001,4.8001,4.7934,4.3992,4.1674,0.0,0.0,0.0,0.0,0.0,0.0,0.0,0.0,0.0,0.0,0.0,0.0,0.0,0.0,0.0,0.0,0.0,0.0,0.0,0.0,0.0,0.0,0.0,0.0,0.0,0.0,0.0,0.0,0.0,0.0,0.0,0.0,0.0,0.0,0.0,0.0,0.0,0.0,0.0,0.0,0.0,3.9445,4.1596,3.9504,3.7944,0.0,0.0,3.9955,3.977,4.1221,0.0,0.0,0.0,0.0,0.0,0.0,0.0,0.0,0.0,0.0,0.0,0.0,0.0,0.0,0.0,0.0,0.0,0.0,0.0,0.0,0.0,0.0,0.0,0.0,0.0,0.0,0.0,0.0,0.0,0.0,0.0,0.0,0.0,0.0,0.0,0.0,0.0,0.0,0.0,0.0,0.0,0.0,0.0,0.0,0.0,0.0,0.0,0.0,0.0,0.0,0.0,0.0,0.0,0.0,0.0,4.0481,4.1621,4.4821,4.704,4.7968,4.8001,4.8001,4.8001,4.3727,4.1442,0.0,0.0,0.0,0.0,0.0,0.0,0.0,0.0,0.0,0.0,0.0,0.0,0.0,0.0,0.0,0.0,0.0,0.0,0.0,0.0,0.0,0.0,0.0,0.0,0.0,0.0,0.0,0.0,0.0,0.0,0.0,0.0,0.0,0.0,0.0,0.0,0.0,0.0,0.0,0.0,0.0,0.0,4.1676,4.0539,0.0,0.0,0.0,4.0255,3.8725,0.0,0.0,0.0,0.0,0.0,0.0,0.0,0.0,0.0,0.0,0.0,0.0,0.0,0.0,0.0,0.0,0.0,0.0,0.0,0.0,0.0,0.0,0.0,0.0,0.0,0.0,0.0,0.0,0.0,0.0,0.0,0.0,0.0,0.0,0.0,0.0,0.0,0.0,0.0,0.0,0.0,0.0,0.0,0.0,0.0,0.0,0.0,0.0,0.0,0.0,0.0,0.0,0.0,0.0,0.0,0.0,0.0,4.1677,4.581,4.8001,4.8001,4.8001,4.8001,4.7934,4.4257,0.0,0.0,0.0,0.0,0.0,0.0,0.0,0.0,0.0,0.0,0.0,0.0,0.0,0.0,0.0,0.0,0.0,0.0,0.0,0.0,0.0,0.0,0.0,0.0,0.0,0.0,0.0,0.0,0.0,0.0,0.0,0.0,0.0,0.0,0.0,0.0,0.0,0.0,0.0,0.0,0.0,0.0,4.0812,4.1292,4.1113,4.0924,0.0,0.0,4.0691,3.9218,4.1918,4.2905,0.0,0.0,0.0,0.0,0.0,0.0,0.0,0.0,0.0,0.0,0.0,0.0,0.0,0.0,0.0,0.0,0.0,0.0,0.0,0.0,0.0,0.0,0.0,0.0,0.0,0.0,0.0,0.0,0.0,0.0,0.0,0.0,0.0,0.0,0.0,0.0,0.0,0.0,0.0,0.0,0.0,0.0,0.0,0.0,0.0,0.0,0.0,0.0,0.0,0.0,0.0,0.0,0.0,0.0,0.0,4.1743,4.5844,4.8001,4.8001,4.8001,4.8001,4.7968,4.5715,4.3495,0.0,0.0,0.0,0.0,0.0,0.0,0.0,0.0,0.0,0.0,0.0,0.0,0.0,0.0,0.0,0.0,0.0,0.0,0.0,0.0,0.0,0.0,0.0,0.0,0.0,0.0,0.0,0.0,0.0,0.0,0.0,0.0,0.0,0.0,0.0,0.0,0.0,0.0,0.0,0.0,0.0,4.0895,4.0578,4.049,4.1054,0.0,0.0,4.1901,4.3282,4.5721,4.6156,4.2382,0.0,0.0,0.0,0.0,0.0,0.0,0.0,0.0,0.0,0.0,0.0,0.0,0.0,0.0,0.0,0.0,0.0,0.0,0.0,0.0,0.0,0.0,0.0,0.0,0.0,0.0,0.0,0.0,0.0,0.0,0.0,0.0,0.0,0.0,0.0,0.0,0.0,0.0,0.0,0.0,0.0,0.0,0.0,0.0,0.0,0.0,0.0,0.0,0.0,0.0,0.0,0.0,0.0,4.1521,4.1755,4.5872,4.8001,4.8001,4.8001,4.8001,4.8001,4.6278,4.4324,0.0,0.0,0.0,0.0,0.0,0.0,0.0,0.0,0.0,0.0,0.0,0.0,0.0,0.0,0.0,0.0,0.0,0.0,0.0,0.0,0.0,0.0,0.0,0.0,0.0,0.0,0.0,0.0,3.657,3.7227,3.6054,0.0,0.0,0.0,0.0,0.0,0.0,0.0,0.0,0.0,0.0,4.1186,4.3069,4.3248,0.0,0.0,4.4182,4.3833,4.2934,4.4618,4.4705,4.0931,4.0612,0.0,0.0,0.0,0.0,0.0,0.0,0.0,0.0,0.0,0.0,0.0,0.0,0.0,0.0,0.0,0.0,0.0,0.0,0.0,0.0,0.0,0.0,0.0,0.0,0.0,0.0,0.0,0.0,0.0,0.0,0.0,0.0,0.0,0.0,0.0,0.0,0.0,0.0,0.0,0.0,0.0,0.0,0.0,0.0,0.0,0.0,0.0,0.0,0.0,0.0,0.0,0.0,4.1521,4.1755,4.6105,4.8332,4.8332,4.8531,4.8663,4.863,4.7636,4.6079,0.0,0.0,0.0,0.0,0.0,0.0,0.0,0.0,0.0,0.0,0.0,0.0,0.0,0.0,0.0,0.0,0.0,0.0,0.0,0.0,0.0,0.0,0.0,0.0,0.0,0.0,0.0,0.0,3.7478,3.8105,3.6967,0.0,0.0,0.0,0.0,0.0,0.0,0.0,0.0,0.0,0.0,4.2029,4.3976,4.4153,4.4066,4.4066,4.4124,4.3747,4.2557,4.3631,4.3689,4.1076,0.0,0.0,0.0,0.0,0.0,0.0,0.0,0.0,0.0,0.0,0.0,0.0,0.0,0.0,0.0,0.0,0.0,0.0,0.0,0.0,0.0,0.0,0.0,0.0,0.0,0.0,0.0,0.0,0.0,0.0,0.0,0.0,0.0,0.0,0.0,0.0,0.0,0.0,0.0,0.0,0.0,0.0,0.0,0.0,0.0,0.0,0.0,0.0,0.0,0.0,0.0,0.0,0.0,0.0,4.1677,4.6573,4.9094,4.9094,4.979,5.0121,5.0121,5.0121,4.9061,4.6841,0.0,0.0,0.0,0.0,0.0,0.0,0.0,0.0,0.0,0.0,0.0,0.0,0.0,0.0,0.0,0.0,0.0,0.0,0.0,0.0,0.0,0.0,0.0,0.0,0.0,0.0,3.3035,3.4922,3.6664,0.0,0.0,0.0,0.0,0.0,0.0,0.0,0.0,0.0,0.0,4.1482,4.3456,4.2353,4.2179,4.2295,4.2295,4.1192,4.0931,4.2702,4.3544,4.3979,0.0,0.0,0.0,0.0,0.0,0.0,0.0,0.0,0.0,0.0,0.0,0.0,0.0,0.0,0.0,0.0,0.0,0.0,0.0,0.0,0.0,0.0,0.0,0.0,0.0,0.0,0.0,3.8723,3.8254,0.0,0.0,0.0,0.0,0.0,0.0,0.0,0.0,0.0,0.0,0.0,4.1189,4.1631,0.0,0.0,0.0,0.0,0.0,0.0,0.0,0.0,0.0,0.0,0.0,0.0,4.2518,4.3273,4.7535,4.9856,4.9856,5.0088,5.022,5.022,5.0684,5.0121,4.8398,0.0,0.0,0.0,0.0,0.0,0.0,0.0,0.0,0.0,0.0,0.0,0.0,0.0,0.0,0.0,0.0,0.0,0.0,0.0,0.0,0.0,0.0,0.0,0.0,0.0,3.6008,0.0,0.0,0.0,0.0,0.0,0.0,0.0,0.0,0.0,0.0,0.0,3.8638,4.0554,4.0786,4.125,4.2498,4.2673,4.3282,0.0,0.0,0.0,0.0,0.0,0.0,0.0,0.0,0.0,0.0,0.0,0.0,0.0,0.0,4.1628,4.0379,4.1163,4.2063,4.2034,0.0,0.0,0.0,0.0,0.0,0.0,0.0,0.0,0.0,0.0,0.0,0.0,0.0,0.0,0.0,0.0,3.9291,0.0,0.0,0.0,0.0,0.0,0.0,0.0,0.0,4.1045,4.2052,4.2568,4.3032,4.3264,0.0,4.3264,4.1508,0.0,0.0,0.0,0.0,0.0,0.0,0.0,0.0,4.319,4.3913,4.8233,5.0585,5.0585,5.0817,5.0982,5.0982,5.1413,5.1214,5.0286,4.8133,4.6278,0.0,0.0,0.0,0.0,0.0,0.0,0.0,0.0,0.0,0.0,0.0,0.0,0.0,0.0,0.0,0.0,0.0,0.0,0.0,0.0,0.0,0.0,0.0,3.707,0.0,0.0,0.0,0.0,0.0,0.0,0.0,0.0,0.0,3.8551,3.916,4.0263,4.215,4.1889,4.1744,4.2266,0.0,0.0,0.0,0.0,0.0,0.0,0.0,4.0902,4.0321,4.0786,4.1628,4.2876,4.3602,4.4008,4.4008,0.0,0.0,4.2469,4.3108,4.4008,4.4008,4.4298,4.4443,4.4066,4.4298,4.4472,0.0,0.0,0.0,0.0,0.0,0.0,0.0,0.0,4.171,4.0579,0.0,4.1009,0.0,0.0,0.0,0.0,0.0,0.0,0.0,0.0,4.5748,4.6808,4.492,4.4854,4.4854,4.4754,4.3529,4.2866,4.2833,4.3495,0.0,0.0,0.0,0.0,0.0,0.0,4.3813,4.4026,4.8796,5.1313,5.1347,5.1976,5.2373,5.234,5.2373,5.234,5.2274,5.032,4.916,4.9028,4.5052,0.0,0.0,0.0,0.0,0.0,0.0,0.0,0.0,0.0,0.0,0.0,0.0,0.0,0.0,0.0,0.0,0.0,0.0,0.0,0.0,3.7389,0.0,0.0,0.0,0.0,0.0,0.0,0.0,0.0,0.0,0.0,3.945,4.0873,4.2237,4.2818,0.0,0.0,0.0,0.0,4.2586,3.9102,3.8434,3.8522,3.8638,4.0089,4.1831,4.3631,0.0,0.0,4.6766,4.5343,4.4298,4.4211,4.5779,4.633,4.456,4.4327,4.4356,4.4327,4.4443,4.424,4.4211,4.4589,4.4501,4.2535,0.0,0.0,0.0,0.0,4.0812,4.1939,4.382,4.382,4.3455,4.2924,4.358,0.0,0.0,0.0,0.0,0.0,0.0,4.2237,4.3761,4.5086,4.6411,4.7835,4.7835,4.81,4.8597,4.8199,4.8001,4.8034,4.873,4.6076,4.0247,0.0,0.0,0.0,0.0,4.5479,4.757,5.0518,5.2075,5.2075,5.2274,5.2373,5.2373,5.2373,5.2373,5.2373,5.1777,5.0717,4.916,4.7901,0.0,0.0,0.0,0.0,0.0,0.0,0.0,0.0,0.0,0.0,0.0,0.0,0.0,0.0,0.0,0.0,0.0,0.0,0.0,3.7302,3.8928,3.9131,0.0,0.0,0.0,0.0,0.0,0.0,0.0,0.0,0.0,4.2528,4.1453,4.0902,0.0,0.0,4.0089,3.916,4.0699,4.2034,4.2295,0.0,0.0,0.0,4.3689,4.334,4.3921,4.5576,4.6824,4.6824,4.7491,4.8043,4.8014,4.8478,4.8653,4.8188,4.8043,4.8014,4.8043,4.8043,4.8043,4.8043,4.8043,4.8014,4.5218,4.3893,4.2137,4.1905,4.27,4.27,4.3959,4.6013,4.6013,4.5516,4.4754,4.5616,4.4324,4.1442,4.1442,0.0,0.0,0.0,4.4324,4.6444,4.6742,4.7835,4.9491,4.9558,4.979,5.022,5.0485,5.0651,5.0618,5.0485,4.8265,4.4045,0.0,0.0,4.3315,4.5412,4.7305,4.9094,5.128,5.2506,5.2804,5.3069,5.3235,5.3235,5.3235,5.3235,5.3235,5.3235,5.2605,5.1313,5.0419,4.8763,0.0,0.0,0.0,0.0,0.0,0.0,0.0,0.0,0.0,0.0,0.0,3.7878,0.0,0.0,0.0,0.0,3.9218,3.9218,3.9218,3.9915,0.0,0.0,0.0,0.0,0.0,0.0,0.0,4.0495,4.2208,4.3544,4.3921,4.2615,4.2063,4.3224,4.2353,4.1337,4.0612,0.0,4.3515,4.395,4.4008,4.4385,4.5518,4.5372,4.5343,4.6127,4.7143,4.7927,4.7985,4.8943,4.964,4.9698,4.9698,4.9756,5.0017,5.0075,4.9959,4.9727,4.9698,4.9698,4.9698,4.9698,4.9756,4.8001,4.7669,4.3628,4.3131,4.492,4.4953,4.6113,4.7968,4.8001,4.6841,4.5152,4.7106,4.5781,4.2071,4.2104,0.0,0.0,4.5814,4.7239,4.9226,4.9889,5.0253,5.0286,5.0286,5.032,5.0419,5.1048,5.1347,5.1313,5.0055,4.9326,4.9193,4.9193,4.8034,4.6013,4.7868,4.9028,4.9226,5.1247,5.2672,5.35,5.4162,5.4527,5.4494,5.4527,5.4527,5.4527,5.4527,5.4527,5.446,5.2605,5.1446,5.1148,0.0,0.0,0.0,0.0,0.0,0.0,0.0,0.0,0.0,0.0,0.0,0.0,0.0,0.0,0.0,4.215,0.0,4.2324,4.0757,0.0,0.0,0.0,4.0495,4.2818,4.3195,4.3485,4.395,0.0,0.0,4.4211,0.0,4.4908,4.6824,4.6795,4.5953,4.424,4.5459,4.6214,4.456,4.4414,4.4472,4.5053,4.6127,4.755,4.903,4.9698,4.9582,4.9553,4.9698,4.9756,4.9814,4.9785,5.0017,5.0656,5.0743,5.0569,4.9988,4.9872,4.9872,4.993,4.9959,5.0104,4.8001,4.7934,4.6874,4.6742,4.7206,4.7206,4.7537,4.8001,4.8001,4.7703,4.7239,4.7769,4.7736,4.7305,4.7868,4.8398,4.8928,4.9094,4.9458,4.9955,5.0121,5.0518,5.1015,5.1015,5.1313,5.1843,5.2042,5.2108,5.2108,5.1777,5.1048,4.9988,4.9955,4.8564,4.5947,4.6874,4.8266,4.9922,5.1015,5.2407,5.4195,5.4427,5.4527,5.4527,5.4527,5.4527,5.4527,5.4527,5.4527,5.4494,5.403,5.3003,5.1313,4.8563,0.0,0.0,0.0,0.0,0.0,0.0,0.0,0.0,0.0,3.8722,3.7184,0.0,3.947,0.0,4.2528,4.424,4.424,4.4269,0.0,0.0,4.2818,4.3079,4.3689,4.5053,4.543,4.4124,4.5256,4.6156,4.6156,4.6156,4.6853,4.8653,4.6505,4.4501,4.4066,4.5634,4.6679,4.6359,4.7317,4.8304,4.8217,4.8653,4.9117,4.9582,4.9698,4.9698,4.9698,5.0104,5.0423,5.0481,5.0859,5.1178,5.1352,5.1381,5.1352,5.1207,5.1149,5.1149,5.1149,5.1149,5.1207,4.8001,4.8034,4.8365,4.8498,4.8465,4.8133,4.8199,4.8498,4.8498,4.8663,4.8961,4.8995,4.9226,4.9624,5.0021,5.022,5.0253,5.0551,5.0684,5.0717,5.1048,5.138,5.1777,5.1777,5.1976,5.2373,5.2705,5.2837,5.2837,5.3169,5.2937,5.2142,5.2142,5.0817,4.8299,4.7669,4.8001,4.9226,5.0916,5.2837,5.4924,5.5322,5.5024,5.4063,5.403,5.3566,5.2638,5.2605,5.2605,5.2605,5.2605,5.2075,5.0817,4.873,4.6553,0.0,0.0,0.0,0.0,0.0,0.0,0.0,0.0,0.0,0.0,0.0,4.1337,0.0,4.4008,0.0,4.456,4.4821,4.4937,4.4734,4.5024,4.5576,4.6417,4.7462,4.7695,4.665,4.7433,4.8101,4.8101,4.8101,4.8449,4.9524,4.784,4.6534,4.6592,4.7462,4.8101,4.8159,4.9001,4.9698,4.9698,4.9698,4.9785,5.0046,5.0104,5.0191,5.0481,5.083,5.1091,5.112,5.1381,5.173,5.1991,5.2049,5.2107,5.2397,5.2455,5.2252,5.173,5.1643,5.1672,4.8299,4.8332,4.8995,4.9226,4.9193,4.8564,4.8663,4.9226,4.926,4.9624,5.022,5.032,5.0353,5.0353,5.0452,5.0485,5.0518,5.1148,5.1413,5.1446,5.2075,5.244,5.2506,5.2539,5.2572,5.2672,5.3268,5.3533,5.3599,5.4195,5.4427,5.4262,5.4262,5.3202,5.1148,4.9226,4.8299,4.8332,5.1082,5.3434,5.5289,5.5686,5.4957,5.3135,5.3003,5.2142,5.032,5.022,5.022,5.022,5.022,5.032,5.0551,4.8531,4.688,0.0,4.4363,0.0,0.0,0.0,0.0,0.0,0.0,0.0,0.0,4.366,4.4095,4.4327,4.5866,4.6243,4.485,4.4705,4.5372,4.6969,4.7201,4.7869,4.9436,4.9698,4.9698,4.9698,4.9698,4.9698,4.9611,4.9698,4.9669,4.9669,4.9524,4.932,4.9582,4.9524,4.9524,4.9698,4.9698,4.9727,4.9843,4.9843,5.0046,5.0627,5.0801,5.0975,5.1468,5.1672,5.1759,5.1759,5.1846,5.2107,5.2601,5.2688,5.2862,5.3326,5.3413,5.3094,5.2223,5.1991,5.2049,4.979,4.9823,4.9955,4.9988,4.9988,4.9856,4.9889,4.9988,4.9988,5.0088,5.0253,5.0817,5.1082,5.1115,5.1711,5.1976,5.1976,5.2108,5.2175,5.2175,5.234,5.2672,5.3202,5.3235,5.3533,5.4096,5.4229,5.4328,5.4328,5.446,5.393,5.2804,5.2804,5.1976,5.0452,0.0,0.0,0.0,5.2042,5.3434,5.3765,5.2274,5.1247,5.0817,5.0817,0.0,5.0253,5.022,5.022,5.022,5.022,0.0,0.0,0.0,0.0,0.0,0.0,0.0,0.0,0.0,0.0,0.0,4.3822,4.3679,4.403,4.4064,4.4647,4.6127,4.6621,4.7317,4.8478,4.8595,4.874,4.9088,4.9117,4.9291,4.964,4.9698,4.9698,4.9698,4.9698,4.9698,4.9698,4.9698,4.9698,4.9698,4.9698,4.9698,4.9698,4.9698,4.9698,4.9698,4.9727,4.9901,5.0394,5.0481,5.0685,5.1265,5.1439,5.1497,5.1672,5.2107,5.2368,5.2397,5.2804,5.3152,5.3297,5.3326,5.3326,5.35,5.35,5.3442,5.321,5.3152,5.3181,5.022,0.0,5.0618,5.075,0.0,5.1115,5.128,5.1247,5.0883,5.0949,5.1313,5.1645,5.181,5.1843,5.2208,5.2373,5.2407,5.2738,5.287,5.2904,5.3268,5.3599,5.3964,5.3964,5.4162,5.4527,5.4891,5.5057,5.509,5.5421,5.5222,5.4527,5.4494,5.4129,5.34,5.34,5.287,5.181,5.287,5.393,5.4924,5.3964,5.2904,5.1877,0.0,0.0,0.0,0.0,0.0,0.0,0.0,0.0,0.0,0.0,0.0,5.1179,4.9909,4.9093,4.9173,4.8475,4.8087,4.8407,4.7763,4.6841,4.5608,4.6334,4.7201,4.813,4.8246,4.8624,4.9553,4.9698,4.9698,4.9698,4.9698,4.9698,4.9698,4.9698,4.9698,4.9698,4.9698,4.9698,4.9698,4.9698,4.9698,4.9698,4.9698,4.9698,4.9698,4.9698,4.9756,5.0104,5.0162,5.0394,5.0975,5.1149,5.1352,5.1904,5.2078,5.2223,5.2514,5.2804,5.3036,5.3065,5.3297,5.35,5.35,5.35,5.35,5.35,5.35,5.35,5.35,5.35,5.35,5.0585,5.0651,5.1214,5.1479,5.1512,5.2142,5.244,5.2506,0.0,0.0,0.0,5.2373,5.244,5.2572,5.2572,5.2638,5.2804,5.3334,5.3599,5.3632,5.4229,5.4593,5.4725,5.4725,5.4792,5.4924,5.5521,5.5819,5.5852,5.6415,5.668,5.668,5.668,5.668,5.668,5.668,5.5786,5.4063,5.3599,5.4295,5.6051,5.5752,5.4692,5.287,5.2837,5.2009,5.0286,5.0187,5.0187,5.022,5.022,5.0386,5.075,5.0783,5.0636,5.0504,5.0464,5.0843,5.1662,5.1057,5.1134,5.2483,5.1199,4.9538,4.7433,4.8769,4.9698,4.9698,4.9698,4.9669,4.9698,4.9698,4.9698,4.9698,4.9698,4.9698,4.9698,4.9698,4.9698,4.9698,4.9698,4.9698,4.9698,4.9698,4.9698,4.9698,4.9698,4.9727,4.9814,4.9901,5.0133,5.0714,5.083,5.1062,5.1614,5.1788,5.2049,5.2601,5.2746,5.292,5.3355,5.35,5.35,5.3442,5.35,5.35,5.35,5.35,5.35,5.35,5.3617,5.3675,5.3704,5.3791,5.382,5.2075,5.2075,5.2175,5.2241,5.2241,5.234,5.2705,5.3202,5.2539,5.2307,5.2373,5.2373,5.2738,5.3268,5.3268,5.3632,5.4195,5.4328,5.4361,0.0,5.446,5.4858,5.5454,5.5454,5.5786,5.6349,5.6481,5.6514,5.6547,5.6647,5.668,5.668,5.668,5.668,5.668,5.668,5.6547,5.6183,5.4394,5.3566,5.3831,5.2075,5.0982,5.0717,5.0717,5.0518,5.022,5.0253,5.022,5.022,5.022,5.1048,5.2837,5.297,5.3724,5.5402,5.56,5.539,5.4746,5.4583,5.3851,5.2334,5.0981,4.9873,4.932,4.9524,4.9698,4.9698,4.9698,4.9698,4.9698,4.9698,4.9698,4.9698,4.9698,4.9698,4.9698,4.9698,4.9698,4.9698,4.9698,4.9698,4.9698,4.9698,4.9698,4.9698,4.9843,4.993,5.0452,5.054,5.0801,5.1323,5.1468,5.1759,5.2281,5.2426,5.2688,5.3268,5.3326,5.3355,5.3471,5.35,5.35,5.35,5.35,5.353,5.353,5.35,5.3588,5.3675,5.4023,5.4342,5.4371,5.472,5.4749,5.2373,5.2373,5.2373,5.2605,5.297,5.3367,5.3732,5.3964,5.3665,5.3533,5.3533,5.3533,5.3732,5.3997,5.3997,5.4195,5.4527,5.4924,5.5123,5.5156,5.5521,5.5885,5.6183,5.6216,5.6349,5.668,5.668,5.668,5.668,5.668,5.668,5.668,5.668,5.668,5.668,5.668,5.668,5.6647,5.5719,5.5189,5.5156,5.4229,5.3732,5.3732,5.3699,5.3699,5.3732,5.3732,5.3732,5.3732,5.3732,5.4162,5.5123,5.5189,5.5653,5.6614,5.668,5.6525,5.61,5.5149,5.3859,5.2093,5.0981,5.0086,4.9795,4.9698,4.9698,4.9698,4.9698,4.9698,4.9698,4.9698,4.9698,4.9698,4.9698,4.9698,4.9698,4.9698,4.9698,4.9698,4.9698,4.9698,4.9698,4.9698,4.9843,5.0133,5.0452,5.0975,5.1556,5.1701,5.1788,5.2078,5.2165,5.2397,5.2949,5.3065,5.321,5.35,5.35,5.35,5.35,5.35,5.35,5.35,5.35,5.3675,5.3936,5.4052,5.4168,5.4517,5.4749,5.4981,5.5039,5.5242,5.5155,5.2605,5.2605,5.2804,5.3169,5.3699,5.4262,5.4626,5.4759,5.4759,5.4858,5.4957,5.4692,5.4626,5.4759,5.4759,5.4858,5.5057,5.5587,5.5852,5.5918,5.6415,5.668,5.668,5.668,5.668,5.668,5.668,5.668,5.668,5.668,5.668,5.668,5.668,5.668,5.668,5.668,5.668,5.668,5.668,5.668,5.668,5.668,5.668,5.668,5.6647,5.668,5.668,5.668,5.668,5.668,5.668,5.668,5.668,5.668,5.668,5.668,5.668,5.668,5.6603,5.5017,5.3514,5.2365,5.1169,5.0375,4.999,4.9766,4.9795,4.9698,4.9698,4.9698,4.9698,4.9698,4.9698,4.9698,4.9698,4.9698,4.9698,4.9698,4.9698,4.9698,4.9785,4.993,4.993,5.0017,5.0336,5.0859,5.1439,5.202,5.2484,5.2659,5.2775,5.2775,5.2775,5.2949,5.3442,5.3471,5.35,5.35,5.35,5.35,5.35,5.35,5.3617,5.3704,5.3762,5.4052,5.4546,5.472,5.4865,5.5213,5.5474,5.5678,5.5852,5.591,5.5794,5.3301,5.3434,5.3997,5.4361,5.4427,5.4527,5.4924,5.5487,5.5521,5.5918,5.6282,5.509,5.4924,5.5487,5.5521,5.5852,5.6382,5.6547,5.6581,5.6547,5.6647,5.668,5.668,5.668,5.668,5.668,5.668,5.668,5.668,5.668,5.668,5.668,5.668,5.668,5.668,5.668,5.668,5.668,5.668,5.668,5.668,5.668,5.668,5.668,5.668,5.668,5.668,5.668,5.668,5.668,5.668,5.668,5.668,5.668,5.668,5.668,5.668,5.668,5.6603,5.4985,5.3976,5.3719,5.185,5.0632,5.0405,5.0183,4.999,4.9795,4.9698,4.9698,4.9698,4.9698,4.9698,4.9698,4.9698,4.9698,4.9727,4.9698,4.9698,4.9698,5.0278,5.0598,5.0627,5.1033,5.141,5.1497,5.2078,5.2514,5.2659,5.3036,5.3326,5.3355,5.3413,5.3413,5.35,5.35,5.35,5.35,5.35,5.3559,5.3588,5.3617,5.3675,5.4313,5.44,5.4633,5.5097,5.5329,5.5358,5.5678,5.6026,5.6461,5.6926,5.7013,5.681,5.4063,5.4096,5.4394,5.4792,5.5189,5.562,5.5984,5.6249,5.6249,5.6415,5.6614,5.6051,5.5984,5.6249,5.6249,5.6415,5.668,5.668,5.668,5.668,5.668,5.668,5.668,5.668,5.668,5.668,5.668,5.668,5.668,5.668,5.668,5.668,5.668,5.668,5.668,5.668,5.668,5.668,5.668,5.668,5.668,5.668,5.668,5.668,5.668,5.668,5.668,5.668,5.668,5.668,5.668,5.668,5.668,5.668,5.668,5.668,5.668,5.668,5.668,5.5474,5.4485,5.3805,5.2485,5.1233,5.0375,5.0183,4.999,4.9795,4.9698,4.9698,4.9698,4.9698,4.9698,4.9698,4.9698,4.9843,5.022,5.0249,5.0365,5.0743,5.1062,5.1236,5.1323,5.1788,5.2136,5.2252,5.2717,5.3065,5.3123,5.3355,5.3471,5.35,5.35,5.35,5.35,5.35,5.35,5.35,5.35,5.3559,5.4023,5.411,5.4313,5.4923,5.5039,5.53,5.591,5.6026,5.6055,5.6316,5.6607,5.7042,5.7274,5.7303,5.7158,5.4825,5.4858,5.5024,5.5421,5.5951,5.6481,5.668,5.668,5.668,5.668,5.668,5.668,5.668,5.668,5.668,5.668,5.668,5.668,5.668,5.668,5.668,5.668,5.668,5.668,5.668,5.668,5.668,5.668,5.668,5.668,5.668,5.668,5.668,5.668,5.668,5.668,5.668,5.668,5.668,5.668,5.668,5.668,5.668,5.668,5.668,5.668,5.668,5.668,5.668,5.668,5.668,5.668,5.668,5.668,5.668,5.668,5.668,5.668,5.668,5.5555,5.4537,5.3719,5.2664,5.1419,5.0442,5.0183,5.0174,5.0086,4.9959,4.993,4.9698,4.9843,4.9959,4.9959,5.0075,5.0423,5.0859,5.0917,5.1091,5.1556,5.173,5.1962,5.2165,5.2543,5.2833,5.2891,5.321,5.35,5.35,5.35,5.35,5.35,5.35,5.35,5.35,5.35,5.353,5.3791,5.3849,5.4081,5.4604,5.472,5.4981,5.5533,5.562,5.591,5.6461,5.6665,5.6665,5.71,5.7303,5.7274,5.7303,5.7303,5.7303,5.5587,5.5686,5.6316,5.6547,5.6647,5.6647,5.668,5.668,5.668,5.668,5.668,5.668,5.668,5.668,5.668,5.668,5.668,5.668,5.668,5.668,5.668,5.668,5.668,5.668,5.668,5.668,5.668,5.668,5.668,5.668,5.668,5.668,5.668,5.668,5.668,5.668,5.668,5.668,5.668,5.668,5.668,5.668,5.668,5.668,5.668,5.668,5.668,5.668,5.668,5.668,5.668,5.668,5.668,5.668,5.668,5.668,5.668,5.668,5.6525,5.5295,5.421,5.3836,5.2639,5.1165,5.084,5.0677,5.0623,5.0668,5.0627,5.0394,4.9959,5.0336,5.0627,5.0656,5.1149,5.1439,5.1556,5.1585,5.1585,5.1788,5.2223,5.2688,5.3268,5.3442,5.3413,5.3384,5.3471,5.35,5.35,5.35,5.35,5.353,5.3559,5.353,5.353,5.3675,5.3907,5.4139,5.4371,5.4662,5.5068,5.5445,5.5794,5.6113,5.6258,5.6578,5.7042,5.7245,5.7187,5.7303,5.7303,5.7303,5.7303,5.7303,5.7303,5.6316,5.6316,5.6581,5.668,5.668,5.668,5.668,5.668,5.668,5.668,5.668,5.668,5.668,5.668,5.668,5.668,5.668,5.668,5.668,5.668,5.668,5.668,5.668,5.668,5.668,5.668,5.668,5.668,5.668,5.668,5.668,5.668,5.668,5.668,5.668,5.668,5.668,5.668,5.668,5.668,5.668,5.668,5.668,5.668,5.668,5.668,5.668,5.668,5.668,5.668,5.668,5.668,5.668,5.668,5.668,5.668,5.668,5.668,5.6669,5.6526,5.6189,5.5525,5.4788,5.3653,5.2778,5.207,5.163,5.1337,5.1294,5.1149,5.1062,5.1149,5.1294,5.1294,5.1468,5.1817,5.2107,5.2223,5.2368,5.2746,5.3065,5.3268,5.3413,5.35,5.35,5.35,5.35,5.35,5.35,5.35,5.3559,5.3588,5.3878,5.4168,5.4139,5.4168,5.4284,5.4517,5.4778,5.5358,5.5794,5.5997,5.6316,5.6665,5.6868,5.6926,5.7274,5.7274,5.7303,5.7303,5.7303,5.7303,5.7303,5.7303,5.7303,5.668,5.668,5.668,5.668,5.668,5.668,5.668,5.668,5.668,5.668,5.668,5.668,5.668,5.668,5.668,5.668,5.668,5.668,5.668,5.668,5.668,5.668,5.668,5.668,5.668,5.668,5.668,5.668,5.668,5.668,5.668,5.668,5.668,5.668,5.668,5.668,5.668,5.668,5.668,5.668,5.668,5.668,5.6812,5.7011,5.7044,5.6912,5.6713,5.668,5.668,5.6713,5.6912,5.7144,5.7376,5.7409,5.7409,5.7409,5.7409,5.7409,5.7442,5.7602,5.7266,5.6401,5.5803,5.5038,5.3663,5.2881,5.2306,5.2049,5.1933,5.1962,5.2194,5.2223,5.2136,5.202,5.2107,5.2397,5.2804,5.2862,5.3065,5.3326,5.3442,5.35,5.35,5.35,5.35,5.35,5.35,5.35,5.35,5.3704,5.3849,5.3907,5.44,5.472,5.4894,5.501,5.5184,5.5387,5.5445,5.5997,5.6374,5.6578,5.6752,5.7158,5.7303,5.7303,5.7303,5.7303,5.7303,5.7303,5.7303,5.7303,5.7303,5.7303,5.7303,5.668,5.668,5.668,5.668,5.668,5.668,5.668,5.668,5.668,5.668,5.668,5.668,5.668,5.668,5.668,5.668,5.668,5.668,5.668,5.668,5.668,5.668,5.668,5.668,5.668,5.668,5.668,5.668,5.668,5.668,5.668,5.668,5.668,5.668,5.668,5.668,5.668,5.6713,5.6746,5.6779,5.6713,5.6846,5.721,5.774,5.7806,5.7508,5.6846,5.6812,5.6912,5.6912,5.7442,5.8138,5.8601,5.8701,5.88,5.8701,5.88,5.8833,5.872,5.8035,5.728,5.6416,5.5405,5.4602,5.3609,5.2921,5.2729,5.2895,5.2807,5.2775,5.3239,5.3326,5.3123,5.2746,5.2978,5.3297,5.3413,5.3471,5.35,5.35,5.35,5.35,5.35,5.35,5.35,5.35,5.3588,5.3646,5.3733,5.4139,5.4458,5.4633,5.501,5.5416,5.5678,5.591,5.6171,5.6374,5.6345,5.6578,5.6868,5.7071,5.7042,5.7303,5.7303,5.7303,5.7303,5.7303,5.7303,5.7303,5.7303,5.7303,5.7303,5.7303,5.7303,5.6911,5.6911,5.6757,5.668,5.668,5.668,5.668,5.668,5.668,5.668,5.668,5.668,5.668,5.668,5.668,5.668,5.668,5.668,5.668,5.668,5.668,5.668,5.668,5.668,5.668,5.668,5.668,5.668,5.668,5.668,5.668,5.668,5.668,5.668,5.668,5.668,5.668,5.6746,5.721,5.7442,5.7508,5.7939,5.8336,5.8502,5.8535,5.8436,5.8237,5.8204,5.8204,5.8171,5.8436,5.8668,5.8866,5.8899,5.8899,5.8899,5.8899,5.8899,5.8885,5.8558,5.8109,5.7533,5.662,5.5896,5.5152,5.4491,5.3904,5.37,5.3523,5.3535,5.3471,5.35,5.3413,5.3239,5.3384,5.35,5.35,5.35,5.35,5.35,5.35,5.35,5.353,5.353,5.3559,5.3617,5.3907,5.4197,5.4284,5.472,5.5097,5.5184,5.5678,5.6084,5.6258,5.6461,5.6723,5.6839,5.6839,5.6868,5.7158,5.7303,5.7303,5.7303,5.7303,5.7303,5.7303,5.7303,5.7303,5.7303,5.7303,5.7303,5.7303,5.7303,5.7303,5.6987,5.6911,5.6757,5.668,5.668,5.668,5.668,5.668,5.668,5.668,5.668,5.668,5.668,5.668,5.6757,5.6757,5.668,5.6757,5.6757,5.668,5.668,5.668,5.668,5.6757,5.6757,5.6757,5.6757,5.6757,5.668,5.668,5.668,5.668,5.668,5.668,5.6746,5.6945,5.7111,5.721,5.7839,5.8204,5.827,5.8668,5.9032,5.9264,5.9297,5.9463,5.9661,5.9728,5.9463,5.9098,5.9131,5.9429,5.9661,5.9761,5.9728,5.9728,5.9728,5.9728,5.9679,5.9628,5.9284,5.883,5.8137,5.7434,5.6865,5.5956,5.5089,5.4887,5.4274,5.3919,5.371,5.3605,5.3605,5.35,5.35,5.35,5.35,5.35,5.35,5.35,5.35,5.35,5.353,5.382,5.3849,5.3965,5.4429,5.4836,5.4981,5.5387,5.562,5.591,5.6345,5.6636,5.6752,5.6984,5.7245,5.7245,5.7216,5.7187,5.7303,5.7303,5.7303,5.7303,5.7303,5.7303,5.7303,5.7303,5.7303,5.7303,5.7303,5.7303,5.7303,5.7303,5.7361,5.6911,5.6757,5.6757,5.6757,5.6757,5.6757,5.6757,5.6757,5.6757,5.6757,5.6757,5.6757,5.6757,5.6757,5.6911,5.6911,5.6757,5.6911,5.6911,5.6757,5.6757,5.6757,5.6757,5.6911,5.6911,5.6757,5.6834,5.6834,5.668,5.668,5.668,5.668,5.6779,5.6779,5.6978,5.7508,5.7873,5.7939,5.8568,5.8966,5.8999,5.9098,5.9396,6.0026,6.0059,6.0324,6.0788,6.0854,6.0357,5.933,5.9794,6.0324,6.0887,6.1086,6.0953,6.092,6.1053,6.0953,6.1053,6.0637,6.0332,5.9577,5.917,5.9113,5.79,5.6769,5.6024,5.5925,5.4958,5.42,5.3919,5.3919,5.3815,5.35,5.35,5.35,5.35,5.35,5.35,5.353,5.353,5.3588,5.3704,5.4197,5.4487,5.4662,5.5068,5.5387,5.5591,5.5968,5.6345,5.6665,5.6897,5.6984,5.7042,5.71,5.7303,5.7303,5.7303,5.7303,5.7303,5.7303,5.7303,5.7303,5.7303,5.7303,5.7303,5.7303,5.7303,5.7303,5.7303,5.7303,5.7448,5.7623,5.7884,5.7214,5.7139,5.6987,5.6987,5.7139,5.6987,5.6911,5.6911,5.6911,5.6911,5.6911,5.7063,5.7139,5.7139,5.7063,5.6987,5.6987,5.6987,5.6987,5.6987,5.7063,5.7063,5.6911,5.6987,5.6987,5.6911,5.6834,5.6757,5.668,5.6746,5.6746,5.6713,5.7276,5.7508,5.7608,5.8237,5.8568,5.8701,5.933,5.9728,5.9794,6.0225,6.0589,6.0788,6.0788,6.0887,6.1086,6.1119,6.0986,6.0622,6.0688,6.0887,6.1086,6.1119,6.1119,6.1119,6.1119,6.1119,6.0919,6.043,5.9881,5.9619,5.9113,5.8391,5.8085,5.7181,5.6511,5.6122,5.532,5.4436,5.4023,5.3919,5.3815,5.3605,5.3559,5.3559,5.35,5.35,5.35,5.3559,5.3965,5.4197,5.4371,5.4749,5.5155,5.5271,5.5678,5.6142,5.6258,5.652,5.6926,5.7042,5.7216,5.7245,5.7274,5.7274,5.7303,5.7303,5.7303,5.7303,5.7303,5.7303,5.7303,5.7303,5.7303,5.7303,5.7303,5.7303,5.7303,5.7448,5.7768,5.8,5.8203,5.8406,5.8697,5.7364,5.7289,5.7139,5.7214,5.7289,5.7139,5.7139,5.7139,5.7139,5.7139,5.7139,5.7214,5.7289,5.7289,5.7289,5.7214,5.7139,5.7214,5.7214,5.7139,5.7289,5.7289,5.7063,5.7063,5.7063,5.6911,5.6834,5.679,5.6779,5.6978,5.7144,5.7309,5.7873,5.8237,5.8303,5.8966,5.9363,5.9496,6.0059,6.0456,6.0523,6.0887,6.1053,6.1119,6.1119,6.1119,6.1119,6.1119,6.1119,6.1086,6.1119,6.1119,6.1119,6.1119,6.1119,6.1119,6.1119,6.1119,6.1002,6.0548,6.0259,6.0173,5.9587,5.9411,5.9234,5.8483,5.7746,5.7621,5.6347,5.5491,5.4887,5.4304,5.3919,5.3739,5.3867,5.3791,5.3588,5.3791,5.3907,5.4081,5.4458,5.4894,5.4894,5.5445,5.5736,5.5939,5.6374,5.6636,5.6839,5.7158,5.7303,5.7303,5.7303,5.7303,5.7303,5.7303,5.7303,5.7303,5.7303,5.7303,5.7303,5.7303,5.7303,5.7303,5.7303,5.7332,5.739,5.7536,5.7768,5.8029,5.8406,5.8697,5.8871,5.9132,5.9451,5.7514,5.7364,5.7364,5.7364,5.7364,5.7364,5.7364,5.7364,5.7364,5.7364,5.7364,5.7364,5.7439,5.7364,5.7514,5.7514,5.7364,5.7514,5.7439,5.7439,5.7514,5.7364,5.7139,5.7214,5.7139,5.6911,5.6987,5.701,5.7133,5.7586,5.7885,5.8117,5.8634,5.8966,5.9164,5.9761,6.0059,6.0225,6.0655,6.0953,6.0986,6.1086,6.1119,6.1119,6.1119,6.1119,6.1119,6.1119,6.1119,6.1119,6.1119,6.1119,6.1119,6.1119,6.1119,6.1119,6.1119,6.1119,6.1119,6.1002,6.1002,6.0919,6.0919,6.1119,6.0633,5.9881,5.9234,5.9145,5.7746,5.6347,5.5659,5.4684,5.4185,5.4124,5.438,5.4274,5.3994,5.4255,5.4604,5.4633,5.5126,5.5445,5.5678,5.6026,5.649,5.649,5.6868,5.6984,5.71,5.7216,5.7303,5.7303,5.7303,5.7303,5.7303,5.7303,5.7303,5.7303,5.7303,5.7303,5.7303,5.7303,5.7303,5.7303,5.7303,5.7419,5.7594,5.7826,5.8174,5.8581,5.8958,5.9219,5.9422,5.9742,6.0061,5.7588,5.7514,5.7514,5.7588,5.7735,5.7588,5.7514,5.7514,5.7514,5.7514,5.7588,5.7662,5.7735,5.7735,5.7662,5.7588,5.7514,5.7588,5.7662,5.7735,5.7662,5.7514,5.7289,5.7323,5.7248,5.7172,5.7063,5.7363,5.7863,5.8119,5.8341,5.894,5.9444,5.9761,5.986,6.0506,6.0887,6.092,6.1053,6.1086,6.1119,6.1119,6.1119,6.1119,6.1119,6.1119,6.1119,6.1119,6.1119,6.1119,6.1119,6.1119,6.1119,6.1119,6.1119,6.1119,6.1119,6.1119,6.1119,6.1119,6.1119,6.1119,6.1119,6.1119,6.1035,6.0259,5.9707,5.9234,5.7839,5.6347,5.5411,5.4641,5.4598,5.4907,5.499,5.5041,5.5275,5.5234,5.5213,5.5358,5.5765,5.62,5.6229,5.6665,5.6984,5.71,5.7187,5.7303,5.7303,5.7303,5.7303,5.7303,5.7303,5.7303,5.7303,5.7303,5.7303,5.7303,5.7303,5.7303,5.7303,5.7477,5.7536,5.7448,5.7303,5.7536,5.7971,5.8232,5.861,5.9074,5.9539,5.9829,6.009,6.0409,6.0555,5.7735,5.7735,5.7735,5.7808,5.7881,5.7808,5.7735,5.7735,5.7735,5.7735,5.7735,5.7881,5.7881,5.7881,5.7808,5.7735,5.7735,5.7735,5.7808,5.7881,5.7808,5.7662,5.7573,5.7808,5.7901,5.7749,5.7673,5.8151,5.8719,5.9187,5.9464,5.9718,6.0451,6.0702,6.0654,6.1135,6.1268,6.1219,6.1252,6.1169,6.1119,6.1119,6.1119,6.1119,6.1119,6.1119,6.1119,6.1119,6.1119,6.1119,6.1119,6.1119,6.1119,6.1119,6.1119,6.1119,6.1119,6.1119,6.1119,6.1119,6.1119,6.1119,6.1119,6.1119,6.1035,6.0548,6.0378,5.9881,5.8514,5.6827,5.5568,5.5218,5.5308,5.5736,5.5937,5.6182,5.623,5.61,5.5881,5.5997,5.6432,5.6723,5.6984,5.7158,5.7216,5.7216,5.7216,5.7303,5.7303,5.7303,5.7303,5.7303,5.7303,5.7303,5.7303,5.7303,5.7303,5.7303,5.7303,5.7303,5.7303,5.7565,5.7826,5.7739,5.7739,5.8174,5.8581,5.8813,5.9161,5.9655,6.009,6.0438,6.0671,6.0816,6.0903,5.7881,5.7881,5.7881,5.7881,5.7881,5.7881,5.7881,5.7881,5.7881,5.7881,5.7881,5.7881,5.7881,5.7881,5.7881,5.7881,5.7881,5.7881,5.7881,5.7881,5.7808,5.787,5.7924,5.8253,5.8715,5.8508,5.8629,5.9074,5.9823,6.0315,6.0437,6.0645,6.126,6.1413,6.1432,6.1547,6.1547,6.1383,6.1383,6.1252,6.1086,6.1119,6.1119,6.1119,6.1119,6.1119,6.1119,6.1119,6.1119,6.1119,6.1119,6.1119,6.1119,6.1119,6.1119,6.1119,6.1119,6.1119,6.1119,6.1119,6.1119,6.1119,6.1119,6.1119,6.1119,6.1035,6.0919,6.0529,5.9484,5.8091,5.6829,5.6504,5.6659,5.7019,5.7357,5.7252,5.7071,5.6851,5.6741,5.6578,5.6839,5.7071,5.7158,5.7274,5.7303,5.7303,5.7303,5.7303,5.7303,5.7303,5.7303,5.7303,5.7303,5.7303,5.7303,5.7303,5.7303,5.7448,5.7419,5.7536,5.7594,5.8058,5.8377,5.8261,5.8377,5.8784,5.919,5.951,5.9887,6.0322,6.0584,6.0845,6.1019,6.1164,6.1193,5.7881,5.7881,5.7881,5.7881,5.7881,5.7881,5.7881,5.7881,5.7881,5.7881,5.7881,5.7881,5.7881,5.7881,5.7881,5.7881,5.7881,5.7881,5.7881,5.7881,5.791,5.7999,5.847,5.8833,5.9439,6.0068,6.0001,6.0112,6.0695,6.0964,6.1211,6.1568,6.1689,6.1709,6.1709,6.1709,6.1628,6.1465,6.1465,6.1334,6.1169,6.1119,6.1119,6.1119,6.1119,6.1119,6.1119,6.1119,6.1119,6.1119,6.1119,6.1119,6.1119,6.1119,6.1119,6.1119,6.1119,6.1119,6.1119,6.1119,6.1119,6.1119,6.1119,6.1119,6.1119,6.1119,6.1069,6.0981,6.0587,5.9836,5.8845,5.8177,5.8491,5.8735,5.8264,5.7843,5.809,5.7989,5.7628,5.7266,5.7328,5.7303,5.7416,5.7303,5.7303,5.7303,5.7303,5.7303,5.7303,5.7303,5.7303,5.7303,5.7303,5.7303,5.7303,5.7303,5.7332,5.7594,5.7739,5.8087,5.829,5.8784,5.8987,5.89,5.9016,5.9393,5.98,6.0177,6.0438,6.0758,6.099,6.1193,6.1193,6.1193,6.1193,5.7881,5.7881,5.7881,5.7881,5.7881,5.7881,5.7881,5.7881,5.7881,5.7881,5.7881,5.7881,5.7881,5.7881,5.7881,5.7881,5.7881,5.7881,5.7881,5.7915,5.8214,5.8477,5.9051,5.9591,6.0367,6.0974,6.1076,6.1322,6.1839,6.1761,6.1773,6.1896,6.203,6.203,6.1951,6.203,6.187,6.179,6.1628,6.1465,6.1252,6.1169,6.1119,6.1119,6.1119,6.1119,6.1119,6.1119,6.1119,6.1119,6.1119,6.1119,6.1119,6.1119,6.1119,6.1119,6.1119,6.1119,6.1119,6.1119,6.1119,6.1119,6.1119,6.1119,6.1119,6.1035,6.1117,6.1,6.1294,6.1005,6.0329,5.9674,5.9602,5.9819,5.9093,5.8662,5.8575,5.8555,5.8225,5.7751,5.7669,5.7669,5.7528,5.7528,5.7303,5.7303,5.7303,5.7303,5.7303,5.7303,5.7303,5.7303,5.7303,5.7303,5.7361,5.7419,5.7536,5.7768,5.8174,5.8523,5.89,5.9393,5.9568,5.9568,5.9771,6.0003,6.0409,6.0787,6.099,6.1106,6.1135,6.1193,6.1193,6.1193,6.1193,5.7881,5.7881,5.7881,5.7881,5.7881,5.7881,5.7881,5.7881,5.7881,5.7881,5.7881,5.7881,5.7881,5.7881,5.7881,5.7881,5.7881,5.7881,5.7983,5.8287,5.8693,5.9066,5.9844,6.0554,6.1366,6.1637,6.1941,6.2415,6.2313,6.2279,6.2268,6.2189,6.2302,6.2268,6.2189,6.2223,6.2189,6.1997,6.179,6.1628,6.1383,6.1252,6.1202,6.1086,6.1086,6.1119,6.1119,6.1119,6.1119,6.1119,6.1119,6.1119,6.1119,6.1119,6.1119,6.1119,6.1119,6.1119,6.1119,6.1119,6.1119,6.1119,6.1119,6.1119,6.1185,6.1267,6.1363,6.1294,6.1922,6.2295,6.1944,6.0949,6.0695,6.0527,5.994,5.8991,5.8882,5.8773,5.8664,5.8335,5.8114,5.7892,5.7781,5.7528,5.7303,5.7303,5.7303,5.7303,5.7303,5.7303,5.7303,5.7303,5.7303,5.7303,5.7419,5.7594,5.7797,5.8058,5.8639,5.919,5.9568,6.0003,6.009,6.0235,6.0351,6.0584,6.099,6.1193,6.1164,6.1164,6.1164,6.1193,6.1193,6.1193,6.1193,5.7881,5.7881,5.7881,5.7881,5.7881,5.7881,5.7881,5.7881,5.7881,5.7881,5.7881,5.7881,5.7881,5.7881,5.7881,5.7881,5.7881,5.8017,5.8287,5.8727,5.9133,5.9877,6.0791,6.1095,6.1704,6.2042,6.2279,6.2381,6.2415,6.2415,6.2415,6.2381,6.2381,6.2381,6.2302,6.2381,6.2302,6.1997,6.179,6.1628,6.1465,6.1417,6.1334,6.1334,6.1169,6.1119,6.1119,6.1119,6.1119,6.1119,6.1119,6.1119,6.1119,6.1119,6.1119,6.1119,6.1119,6.1119,6.1119,6.1119,6.1119,6.1119,6.1185,6.1119,6.145,6.1914,6.2359,6.2987,6.3628,6.388,6.3571,6.2588,6.2197,6.1224,6.018,5.9392,5.8991,5.8882,5.8882,5.8773,5.8555,5.8225,5.8003,5.7669,5.7303,5.7303,5.7303,5.7303,5.7303,5.7303,5.7303,5.7303,5.7361,5.7361,5.7623,5.7797,5.8232,5.8493,5.9074,5.9771,6.0177,6.0496,6.0787,6.0903,6.0961,6.0932,6.1106,6.1193,6.1193,6.1193,6.1193,6.1193,6.1193,6.1193,6.1193,5.7881,5.7881,5.7881,5.7881,5.7881,5.7881,5.7881,5.7881,5.7881,5.7881,5.7881,5.7881,5.7881,5.7881,5.7881,5.7881,5.7983,5.8321,5.8693,5.9268,5.9844,6.0622,6.1231,6.1704,6.2178,6.2279,6.2415,6.2381,6.2415,6.2415,6.2415,6.2415,6.2415,6.2381,6.2415,6.2415,6.2381,6.2189,6.203,6.179,6.1628,6.1465,6.1383,6.1383,6.1252,6.1086,6.1119,6.1119,6.1119,6.1119,6.1119,6.1119,6.1119,6.1119,6.1119,6.1119,6.1119,6.1119,6.1119,6.1119,6.1152,6.1285,6.1483,6.1914,6.2312,6.2941,6.3438,6.3868,6.4531,6.4895,6.4572,6.3258,6.2585,6.1659,6.039,5.9606,5.9099,5.9099,5.8991,5.8991,5.8882,5.8555,5.8225,5.8114,5.7751,5.764,5.764,5.764,5.7528,5.7303,5.7303,5.7303,5.739,5.7448,5.7826,5.8116,5.8813,5.919,5.9568,6.0177,6.0642,6.099,6.1135,6.1193,6.1106,6.1106,6.1193,6.1193,6.1193,6.1193,6.1193,6.1193,6.1193,6.1193,6.1193,5.7881,5.7881,5.7881,5.7881,5.7881,5.7881,5.7881,5.7881,5.7881,5.7881,5.7881,5.7881,5.7881,5.7881,5.7881,5.7881,5.7949,5.866,5.9099,5.9708,6.052,6.1298,6.1704,6.2178,6.2347,6.2415,6.2415,6.2415,6.2415,6.2415,6.2415,6.2415,6.2415,6.2415,6.2415,6.2381,6.2381,6.2189,6.2189,6.203,6.179,6.1628,6.1628,6.1547,6.1417,6.1252,6.1169,6.1169,6.1169,6.1119,6.1119,6.1119,6.1119,6.1119,6.1119,6.1185,6.1285,6.1483,6.1483,6.145,6.1384,6.1583,6.2047,6.2742,6.3438,6.41,6.4531,6.4597,6.4995,6.5293,6.5,6.3546,6.2551,6.1558,6.039,5.9713,5.9099,5.9099,5.9099,5.9099,5.8991,5.8882,5.8664,5.8555,5.8335,5.8003,5.7863,5.7863,5.7781,5.7445,5.7507,5.7565,5.7739,5.7913,5.8377,5.8784,5.9393,5.9829,6.0177,6.0526,6.0932,6.1106,6.1164,6.1193,6.1193,6.1193,6.1193,6.1193,6.1193,6.1193,6.1193,6.1193,6.1193,6.1193,6.1193,5.7881,5.7881,5.7881,5.7881,5.7881,5.7881,5.7881,5.7881,5.7881,5.7881,5.7881,5.7881,5.7881,5.7881,5.7881,5.7915,5.7983,5.8693,5.9404,6.0148,6.0892,6.167,6.2076,6.2313,6.2415,6.2415,6.2415,6.2415,6.2415,6.2415,6.2415,6.2415,6.2415,6.2415,6.2415,6.2415,6.2302,6.2189,6.2189,6.2189,6.203,6.1917,6.1917,6.1837,6.179,6.1547,6.1383,6.1301,6.1252,6.1119,6.1119,6.1119,6.1119,6.1251,6.1285,6.1384,6.1848,6.2047,6.2113,6.2113,6.2146,6.2312,6.2775,6.3504,6.4233,6.4332,6.4664,6.5127,6.5326,6.5392,6.4819,6.3735,6.2453,6.1659,6.0598,5.9606,5.9099,5.9099,5.9099,5.9099,5.9099,5.8991,5.8991,5.8773,5.8555,5.8335,5.8114,5.8085,5.8062,5.7786,5.7881,5.8085,5.8174,5.8523,5.9132,5.9597,5.9916,6.0264,6.0613,6.0845,6.1106,6.1193,6.1193,6.1193,6.1193,6.1193,6.1193,6.1193,6.1193,6.1193,6.1193,6.1193,6.1193,6.1193,6.1193,5.7881,5.7881,5.7881,5.7881,5.7881,5.7881,5.7881,5.7881,5.7881,5.7881,5.7881,5.7881,5.7881,5.7881,5.7915,5.8152,5.8626,5.937,6.008,6.0858,6.1603,6.211,6.2381,6.2415,6.2415,6.2415,6.2415,6.2415,6.2415,6.2415,6.2415,6.2415,6.2415,6.2415,6.2415,6.2415,6.2302,6.2302,6.2302,6.2302,6.2268,6.2076,6.1997,6.1997,6.179,6.1628,6.1465,6.1383,6.1252,6.1202,6.1119,6.1152,6.1251,6.1516,6.1715,6.1848,6.2477,6.2775,6.2842,6.2908,6.304,6.3537,6.3835,6.4233,6.4862,6.4995,6.5094,6.5326,6.5425,6.5425,6.5123,6.3641,6.2157,6.1759,6.0774,5.9499,5.9099,5.9099,5.9099,5.9099,5.9099,5.9099,5.9099,5.9099,5.8773,5.8555,5.8335,5.8254,5.8291,5.8385,5.8512,5.8808,5.9071,5.9393,5.9888,6.0208,6.038,6.0671,6.099,6.1077,6.1193,6.1193,6.1193,6.1193,6.1193,6.1193,6.1193,6.1193,6.1193,6.1193,6.1193,6.1193,6.1193,6.1193,6.1193,5.7881,5.7881,5.7881,5.7881,5.7881,5.7881,5.7881,5.7881,5.7881,5.7881,5.7881,5.7881,5.7881,5.7915,5.8186,5.8457,5.9167,5.9945,6.0689,6.1366,6.1907,6.2347,6.2415,6.2415,6.2415,6.2415,6.2415,6.2415,6.2415,6.2415,6.2415,6.2415,6.2415,6.2415,6.2415,6.2415,6.2415,6.2415,6.2415,6.2415,6.2381,6.2268,6.211,6.211,6.203,6.179,6.1628,6.1465,6.1301,6.1169,6.1152,6.1251,6.1516,6.1881,6.2245,6.2676,6.3107,6.357,6.3603,6.367,6.3935,6.4465,6.463,6.4929,6.526,6.5425,6.5359,6.5392,6.5425,6.5425,6.5213,6.3641,6.2453,6.1859,6.0285,5.9099,5.9099,5.9099,5.9099,5.9099,5.9099,5.9099,5.9099,5.9099,5.8991,5.8773,5.8555,5.8622,5.8948,5.9103,5.9262,5.9618,5.9944,6.0326,6.0735,6.0792,6.0967,6.0935,6.1197,6.1135,6.1193,6.1193,6.1193,6.1193,6.1193,6.1193,6.1193,6.1193,6.1193,6.1193,6.1193,6.1193,6.1193,6.1193,6.1193,5.7881,5.7881,5.7881,5.7881,5.7881,5.7881,5.7881,5.7881,5.7881,5.7881,5.7881,5.7881,5.7881,5.8051,5.849,5.8964,5.9438,6.052,6.1298,6.1569,6.2076,6.2347,6.2415,6.2415,6.2415,6.2415,6.2415,6.2415,6.2415,6.2415,6.2415,6.2415,6.2415,6.2415,6.2415,6.2415,6.2415,6.2415,6.2415,6.2415,6.2415,6.2381,6.2302,6.2302,6.2302,6.2064,6.179,6.1628,6.1532,6.1451,6.1318,6.1583,6.2146,6.2345,6.2742,6.3272,6.3935,6.4299,6.4299,6.4332,6.4664,6.5127,6.516,6.5293,6.5392,6.5425,6.5425,6.5425,6.5425,6.5425,6.4728,6.3735,6.2875,6.1759,6.0285,5.9207,5.9207,5.9099,5.9099,5.9099,5.9099,5.9099,5.9099,5.9099,5.9099,5.8991,5.8803,5.9071,5.9377,5.9852,6.0013,6.0461,6.0848,6.1145,6.1439,6.1408,6.1555,6.1494,6.1404,6.1284,6.1193,6.1193,6.1193,6.1193,6.1193,6.1193,6.1193,6.1193,6.1193,6.1193,6.1193,6.1193,6.1193,6.1193,6.1193,5.7881,5.7881,5.7881,5.7881,5.7881,5.7881,5.7881,5.7881,5.7881,5.7881,5.7881,5.7881,5.7881,5.8118,5.8693,5.9302,5.9911,6.0689,6.1434,6.2042,6.2313,6.2347,6.2415,6.2415,6.2415,6.2415,6.2415,6.2415,6.2415,6.2415,6.2415,6.2415,6.2415,6.2415,6.2415,6.2415,6.2415,6.2415,6.2415,6.2415,6.2415,6.2415,6.2415,6.2415,6.2415,6.2223,6.1904,6.1823,6.1814,6.185,6.1832,6.2179,6.2842,6.3173,6.367,6.41,6.4664,6.5028,6.5061,6.5094,6.516,6.5359,6.5425,6.5425,6.5425,6.5425,6.5425,6.5425,6.5425,6.5425,6.5033,6.4175,6.3292,6.2256,6.0877,5.9895,5.9499,5.9207,5.9099,5.9099,5.9099,5.9099,5.9099,5.9159,5.9159,5.9249,5.917,5.9498,5.9917,6.0403,6.0797,6.1308,6.1611,6.185,6.2028,6.1969,6.185,6.1732,6.1523,6.1284,6.1313,6.1313,6.1284,6.1284,6.1284,6.1193,6.1193,6.1193,6.1193,6.1193,6.1193,6.1193,6.1193,6.1193,6.1193,5.7881,5.7881,5.7881,5.7881,5.7881,5.7881,5.7881,5.7881,5.7881,5.7881,5.7881,5.7881,5.8084,5.8423,5.9066,5.981,6.0554,6.1332,6.1772,6.2381,6.2415,6.2415,6.2415,6.2415,6.2415,6.2415,6.2415,6.2415,6.2415,6.2415,6.2415,6.2415,6.2415,6.2415,6.2415,6.2415,6.2415,6.2415,6.2415,6.2415,6.2415,6.2415,6.2415,6.2415,6.2381,6.2302,6.2098,6.2058,6.223,6.2416,6.2647,6.2875,6.3603,6.4034,6.4498,6.4796,6.5094,6.5392,6.5359,6.5359,6.5359,6.5392,6.5425,6.5425,6.5425,6.5425,6.5425,6.5425,6.5425,6.5425,6.5213,6.4485,6.3673,6.2583,6.1589,6.0494,5.9895,5.9606,5.9099,5.9099,5.9099,5.9099,5.9129,5.9189,5.9219,5.9338,5.9488,5.9907,6.0326,6.0954,6.147,6.1983,6.2285,6.2523,6.2438,6.2234,6.2116,6.1969,6.1761,6.1523,6.1404,6.1523,6.1523,6.1404,6.1313,6.1193,6.1193,6.1193,6.1193,6.1193,6.1193,6.1193,6.1193,6.1193,6.1193,5.7881,5.7881,5.7881,5.7881,5.7881,5.7881,5.7881,5.7881,5.7881,5.7881,5.7881,5.7881,5.822,5.8998,5.9742,6.0452,6.1197,6.1941,6.2245,6.2347,6.2415,6.2415,6.2415,6.2415,6.2415,6.2415,6.2415,6.2415,6.2415,6.2415,6.2415,6.2415,6.2415,6.2415,6.2415,6.2415,6.2415,6.2415,6.2415,6.2415,6.2415,6.2415,6.2415,6.2415,6.2381,6.2302,6.2199,6.2441,6.2598,6.2815,6.3112,6.3723,6.4167,6.4399,6.4862,6.5194,6.5392,6.5392,6.5425,6.5425,6.5425,6.5425,6.5425,6.5425,6.5425,6.5425,6.5425,6.5425,6.5425,6.5425,6.5213,6.4669,6.4081,6.31,6.209,6.1286,6.0598,6.0,5.9392,5.9207,5.9099,5.9129,5.9159,5.9189,5.9518,5.9817,6.0116,6.0655,6.1074,6.1433,6.2061,6.263,6.2844,6.2989,6.2847,6.2585,6.2351,6.2234,6.2116,6.188,6.1732,6.1613,6.1613,6.1523,6.1313,6.1193,6.1193,6.1193,6.1193,6.1193,6.1193,6.1193,6.1193,6.1193,6.1193,5.7881,5.7881,5.7881,5.7881,5.7881,5.7881,5.7881,5.7881,5.7881,5.7881,5.7881,5.7881,5.8355,5.9066,5.9776,6.0554,6.1332,6.1975,6.2279,6.2415,6.2415,6.2415,6.2415,6.2415,6.2415,6.2415,6.2415,6.2415,6.2415,6.2415,6.2415,6.2415,6.2415,6.2415,6.2415,6.2415,6.2415,6.2415,6.2415,6.2415,6.2415,6.2415,6.2415,6.2415,6.2415,6.2336,6.2459,6.2676,6.2966,6.3517,6.3843,6.4399,6.5028,6.5127,6.5293,6.5359,6.5425,6.5425,6.5425,6.5425,6.5425,6.5425,6.5425,6.5425,6.5425,6.5425,6.5425,6.5425,6.5425,6.5425,6.5425,6.4943,6.4485,6.3768,6.2875,6.2189,6.1387,6.0494,5.9895,5.9207,5.9099,5.9129,5.9159,5.9548,5.9877,6.0266,6.0745,6.1313,6.1732,6.2061,6.2361,6.2929,6.3079,6.3079,6.2963,6.2731,6.2615,6.2498,6.2351,6.2234,6.2116,6.1998,6.185,6.1642,6.1313,6.1193,6.1193,6.1193,6.1193,6.1193,6.1193,6.1193,6.1193,6.1193,6.1193,5.7881,5.7881,5.7881,5.7881,5.7881,5.7881,5.7881,5.7881,5.7881,5.7881,5.7881,5.7881,5.8457,5.9438,5.9979,6.0689,6.1772,6.2144,6.2415,6.2415,6.2415,6.2415,6.2415,6.2415,6.2415,6.2415,6.2415,6.2415,6.2415,6.2415,6.2415,6.2415,6.2415,6.2415,6.2415,6.2415,6.2415,6.2415,6.2415,6.2415,6.2415,6.2415,6.2415,6.2415,6.2415,6.2516,6.2809,6.3012,6.3584,6.427,6.466,6.4929,6.5392,6.5392,6.5392,6.5425,6.5425,6.5425,6.5425,6.5425,6.5425,6.5425,6.5425,6.5425,6.5425,6.5425,6.5425,6.5425,6.5425,6.5425,6.5425,6.5336,6.4943,6.4545,6.3768,6.31,6.209,6.1082,6.0211,5.9315,5.9099,5.9099,5.9338,5.9817,6.0296,6.0715,6.1253,6.1912,6.2271,6.254,6.269,6.2989,6.3079,6.3079,6.2963,6.2963,6.2847,6.2847,6.2731,6.2585,6.2615,6.2234,6.188,6.1642,6.1433,6.1313,6.1313,6.1193,6.1193,6.1193,6.1193,6.1193,6.1193,6.1193,6.1193,5.7881,5.7881,5.7881,5.7881,5.7881,5.7881,5.7881,5.7881,5.7881,5.7881,5.7881,5.7949,5.8795,5.9844,6.0283,6.1095,6.1907,6.2347,6.2415,6.2415,6.2415,6.2415,6.2415,6.2415,6.2415,6.2415,6.2415,6.2415,6.2415,6.2415,6.2415,6.2415,6.2415,6.2415,6.2415,6.2415,6.2415,6.2415,6.2415,6.2415,6.2415,6.2415,6.2415,6.2415,6.2482,6.2685,6.3269,6.3766,6.4254,6.482,6.5159,6.5326,6.5392,6.5425,6.5425,6.5425,6.5425,6.5425,6.5425,6.5425,6.5425,6.5425,6.5425,6.5425,6.5425,6.5425,6.5425,6.5425,6.5425,6.5425,6.5425,6.5425,6.5123,6.4761,6.4175,6.3292,6.2288,6.1082,5.9895,5.9207,5.9099,5.9159,5.9578,6.0057,6.0745,6.1164,6.1792,6.248,6.269,6.2929,6.2989,6.3049,6.3079,6.3079,6.3079,6.3079,6.3079,6.3079,6.2963,6.2963,6.2731,6.2351,6.1998,6.1761,6.1672,6.1433,6.1313,6.1284,6.1284,6.1193,6.1193,6.1193,6.1193,6.1193,6.1193,5.7881,5.7881,5.7881,5.7881,5.7881,5.7881,5.7881,5.7881,5.7881,5.7881,5.7983,5.8524,5.9201,6.0047,6.0723,6.1501,6.2178,6.2415,6.2415,6.2415,6.2415,6.2415,6.2415,6.2415,6.2415,6.2415,6.2415,6.2415,6.2415,6.2415,6.2415,6.2415,6.2415,6.2415,6.2415,6.2415,6.2415,6.2415,6.2415,6.2415,6.2415,6.2415,6.2415,6.2415,6.2482,6.2888,6.3404,6.3867,6.4287,6.4905,6.5205,6.5359,6.5425,6.5425,6.5425,6.5425,6.5425,6.5425,6.5425,6.5425,6.5425,6.5425,6.5425,6.5425,6.5425,6.5425,6.5425,6.5425,6.5425,6.5425,6.5425,6.5425,6.5336,6.4943,6.4545,6.3546,6.2485,6.1082,5.9606,5.9315,5.9099,5.9398,5.9787,6.0386,6.1104,6.1762,6.2421,6.2929,6.2899,6.3019,6.3019,6.3079,6.3079,6.3079,6.3079,6.3079,6.3079,6.3079,6.3079,6.2963,6.2963,6.2615,6.2234,6.2116,6.188,6.1642,6.1523,6.1494,6.1375,6.1284,6.1193,6.1193,6.1193,6.1193,6.1193,5.7881,5.7881,5.7881,5.7881,5.7881,5.7881,5.7881,5.7881,5.7881,5.7881,5.7983,5.8693,5.9438,6.0148,6.096,6.1704,6.2279,6.2381,6.2415,6.2415,6.2415,6.2415,6.2415,6.2415,6.2415,6.2415,6.2415,6.2415,6.2415,6.2415,6.2415,6.2415,6.2415,6.2415,6.2415,6.2415,6.2415,6.2415,6.2415,6.2415,6.2415,6.2415,6.2415,6.2415,6.2753,6.3226,6.389,6.4386,6.4925,6.524,6.558,6.557,6.5603,6.5603,6.5514,6.5425,6.5425,6.5425,6.5425,6.5425,6.5425,6.5425,6.5425,6.5425,6.5425,6.5425,6.5425,6.5425,6.5425,6.5425,6.5425,6.5425,6.5425,6.5123,6.4819,6.4142,6.2778,6.1184,6.0,5.9207,5.9189,5.9398,5.9877,6.0565,6.1253,6.1912,6.263,6.3019,6.3079,6.3079,6.3079,6.3079,6.3079,6.3079,6.3079,6.3079,6.3079,6.3079,6.3079,6.2963,6.2847,6.2731,6.2498,6.2351,6.2116,6.185,6.1732,6.1732,6.1494,6.1313,6.1193,6.1193,6.1193,6.1193,6.1193,5.7881,5.7881,5.7881,5.7881,5.7881,5.7881,5.7881,5.7881,5.7881,5.7881,5.8017,5.8829,5.9539,6.0182,6.1061,6.1738,6.2212,6.2381,6.2415,6.2415,6.2415,6.2415,6.2415,6.2415,6.2415,6.2415,6.2415,6.2415,6.2415,6.2415,6.2415,6.2415,6.2415,6.2415,6.2415,6.2415,6.2415,6.2415,6.2415,6.2415,6.2415,6.2415,6.2415,6.2651,6.3125,6.3835,6.4498,6.5076,6.5614,6.588,6.5888,6.5834,6.578,6.5692,6.5603,6.5514,6.5425,6.5425,6.5425,6.5425,6.5425,6.5425,6.5425,6.5425,6.5425,6.5425,6.5425,6.5425,6.5425,6.5425,6.5425,6.5425,6.5425,6.5303,6.5033,6.4453,6.2875,6.1387,6.039,5.9422,5.9447,5.9627,6.0146,6.0835,6.1463,6.2121,6.254,6.2839,6.3079,6.3079,6.3079,6.3079,6.3079,6.3079,6.3079,6.3079,6.3079,6.3079,6.3079,6.2963,6.2731,6.2731,6.2731,6.2468,6.2234,6.2204,6.1969,6.185,6.1642,6.1313,6.1284,6.1284,6.1193,6.1193,6.1193,5.7881,5.7881,5.7881,5.7881,5.7881,5.7881,5.7881,5.7881,5.7881,5.7881,5.8254,5.9268,6.0013,6.0182,6.1603,6.2313,6.2313,6.2415,6.2415,6.2415,6.2415,6.2415,6.2415,6.2415,6.2415,6.2415,6.2415,6.2415,6.2415,6.2415,6.2415,6.2415,6.2415,6.2415,6.2415,6.2415,6.2415,6.2415,6.2415,6.2415,6.2415,6.2415,6.2415,6.2685,6.3125,6.3869,6.4498,6.5076,6.5733,6.6152,6.6215,6.6042,6.5867,6.578,6.5692,6.5514,6.5425,6.5425,6.5425,6.5425,6.5425,6.5425,6.5425,6.5425,6.5425,6.5425,6.5425,6.5425,6.5425,6.5425,6.5425,6.5425,6.5425,6.5123,6.4852,6.3955,6.268,6.179,6.0805,6.0319,6.0089,6.0355,6.0715,6.1373,6.2032,6.254,6.281,6.3079,6.3079,6.3079,6.3079,6.3079,6.3079,6.3079,6.3079,6.3079,6.3079,6.3079,6.3079,6.2963,6.2963,6.3079,6.2963,6.2701,6.2701,6.2585,6.2468,6.2116,6.1761,6.1523,6.1523,6.1494,6.1284,6.1193,6.1193]},{"header":{"parameterUnit":"m.s-1","parameterCategory":1,"la1":31.0,"la2":29.5877,"lo1":-88.7671,"lo2":-86.6584,"dx":0.0162,"dy":0.0185,"nx":115,"ny":88,"refTime":"2023-02-08T18:00:00:Z","depth":0,"parameterNumber":3,"parameterNumberName":"V-component_of_WINDS"},"data":[0.0,0.0,0.0,0.0,0.0,0.0,0.0,0.0,0.0,0.0,0.0,0.0,0.0,0.0,0.0,0.0,0.0,0.0,0.0,0.0,0.0,0.0,0.0,0.0,0.0,0.0,0.0,0.0,0.0,0.0,0.0,0.0,0.0,0.0,0.0,0.0,0.0,0.0,0.0,0.0,0.0,0.0,0.0,0.0,0.0,0.0,0.0,0.0,0.0,0.0,0.0,0.0,0.0,0.0,0.0,0.0,0.0,0.0,0.0,0.0,0.0,0.0,0.0,0.0,0.0,0.0,0.0,0.0,0.0,0.0,0.0,0.0,0.0,0.0,0.0,0.0,0.0,0.0,0.0,0.0,0.0,0.0,0.0,0.0,0.0,0.0,0.0,0.0,0.0,0.0,0.0,0.0,0.0,0.0,0.0,0.0,0.0,0.0,0.0,0.0,0.0,0.0,0.0,0.0,0.0,0.0,0.0,0.0,0.0,0.0,0.0,0.0,0.0,0.0,0.0,0.0,0.0,0.0,0.0,0.0,0.0,0.0,0.0,0.0,0.0,0.0,0.0,0.0,0.0,0.0,0.0,0.0,0.0,0.0,0.0,0.0,0.0,0.0,0.0,0.0,0.0,0.0,0.0,0.0,0.0,0.0,0.0,0.0,0.0,0.0,0.0,0.0,0.0,0.0,0.0,0.0,0.0,0.0,0.0,0.0,0.0,0.0,0.0,0.0,0.0,0.0,0.0,0.0,0.0,0.0,0.0,0.0,0.0,0.0,0.0,0.0,0.0,0.0,0.0,0.0,0.0,0.0,0.0,0.0,0.0,0.0,0.0,0.0,0.0,0.0,0.0,0.0,0.0,0.0,0.0,0.0,0.0,0.0,0.0,0.0,0.0,0.0,0.0,0.0,0.0,0.0,0.0,0.0,0.0,0.0,0.0,0.0,0.0,0.0,0.0,0.0,0.0,0.0,0.0,0.0,0.0,0.0,0.0,0.0,0.0,0.0,0.0,0.0,0.0,0.0,0.0,0.0,0.0,0.0,0.0,0.0,0.0,0.0,0.0,0.0,0.0,0.0,0.0,0.0,0.0,0.0,0.0,0.0,0.0,0.0,0.0,0.0,0.0,0.0,0.0,0.0,0.0,0.0,0.0,0.0,0.0,0.0,0.0,0.0,0.0,0.0,0.0,0.0,0.0,0.0,0.0,0.0,0.0,0.0,0.0,0.0,0.0,0.0,0.0,0.0,0.0,0.0,0.0,0.0,0.0,0.0,0.0,0.0,0.0,0.0,0.0,0.0,0.0,0.0,0.0,0.0,0.0,0.0,0.0,0.0,0.0,0.0,0.0,0.0,0.0,0.0,0.0,0.0,0.0,0.0,0.0,0.0,0.0,0.0,0.0,0.0,0.0,0.0,0.0,0.0,0.0,0.0,0.0,0.0,0.0,0.0,0.0,0.0,0.0,0.0,0.0,0.0,0.0,0.0,0.0,0.0,0.0,0.0,0.0,0.0,0.0,0.0,0.0,0.0,0.0,0.0,0.0,0.0,0.0,0.0,0.0,0.0,0.0,0.0,0.0,0.0,0.0,0.0,0.0,0.0,0.0,0.0,0.0,0.0,0.0,0.0,0.0,0.0,0.0,0.0,0.0,0.0,0.0,0.0,0.0,0.0,0.0,0.0,0.0,0.0,0.0,0.0,0.0,0.0,0.0,0.0,0.0,0.0,0.0,0.0,0.0,0.0,0.0,0.0,0.0,0.0,0.0,0.0,0.0,0.0,0.0,0.0,0.0,0.0,0.0,0.0,0.0,0.0,0.0,0.0,0.0,0.0,0.0,0.0,0.0,0.0,0.0,0.0,0.0,0.0,0.0,0.0,0.0,0.0,0.0,0.0,0.0,0.0,0.0,0.0,0.0,0.0,0.0,0.0,0.0,0.0,0.0,0.0,0.0,0.0,0.0,0.0,0.0,0.0,0.0,0.0,0.0,0.0,0.0,0.0,0.0,0.0,0.0,0.0,0.0,0.0,0.0,0.0,0.0,0.0,0.0,0.0,0.0,0.0,0.0,0.0,0.0,0.0,0.0,0.0,0.0,0.0,0.0,0.0,0.0,0.0,0.0,0.0,0.0,0.0,0.0,0.0,0.0,0.0,0.0,0.0,0.0,0.0,0.0,0.0,0.0,0.0,0.0,0.0,0.0,0.0,0.0,0.0,0.0,0.0,0.0,0.0,0.0,0.0,0.0,0.0,0.0,0.0,0.0,0.0,0.0,0.0,0.0,0.0,0.0,0.0,0.0,0.0,0.0,0.0,0.0,0.0,0.0,0.0,0.0,0.0,0.0,0.0,0.0,0.0,0.0,0.0,0.0,0.0,0.0,0.0,0.0,0.0,0.0,0.0,0.0,0.0,0.0,0.0,0.0,0.0,0.0,0.0,0.0,0.0,0.0,0.0,0.0,0.0,0.0,0.0,0.0,0.0,0.0,0.0,0.0,0.0,0.0,0.0,0.0,0.0,0.0,0.0,0.0,0.0,0.0,0.0,0.0,0.0,0.0,0.0,0.0,0.0,0.0,0.0,0.0,0.0,0.0,0.0,0.0,0.0,0.0,0.0,0.0,0.0,0.0,0.0,0.0,0.0,0.0,0.0,0.0,0.0,0.0,0.0,0.0,0.0,0.0,0.0,0.0,0.0,0.0,0.0,0.0,0.0,0.0,0.0,0.0,0.0,0.0,0.0,0.0,0.0,0.0,0.0,0.0,0.0,0.0,0.0,0.0,0.0,0.0,0.0,0.0,0.0,0.0,0.0,0.0,0.0,0.0,0.0,0.0,0.0,0.0,0.0,0.0,0.0,0.0,0.0,0.0,0.0,0.0,0.0,0.0,0.0,0.0,0.0,0.0,0.0,0.0,0.0,0.0,0.0,0.0,0.0,0.0,0.0,0.0,0.0,0.0,0.0,0.0,0.0,0.0,0.0,0.0,0.0,0.0,0.0,0.0,0.0,0.0,0.0,0.0,0.0,0.0,0.0,0.0,0.0,0.0,0.0,0.0,0.0,0.0,0.0,0.0,0.0,0.0,0.0,0.0,0.0,0.0,0.0,0.0,0.0,0.0,0.0,0.0,0.0,0.0,0.0,0.0,0.0,0.0,0.0,0.0,0.0,0.0,0.0,0.0,0.0,0.0,0.0,0.0,0.0,0.0,0.0,0.0,0.0,0.0,0.0,0.0,0.0,0.0,0.0,0.0,0.0,0.0,0.0,0.0,0.0,0.0,0.0,0.0,0.0,0.0,0.0,0.0,0.0,0.0,0.0,0.0,0.0,0.0,0.0,0.0,0.0,0.0,0.0,0.0,0.0,0.0,0.0,0.0,0.0,0.0,0.0,0.0,0.0,0.0,0.0,0.0,0.0,0.0,0.0,0.0,0.0,0.0,0.0,0.0,0.0,0.0,0.0,0.0,0.0,0.0,0.0,0.0,0.0,0.0,0.0,0.0,0.0,0.0,0.0,0.0,0.0,0.0,0.0,0.0,0.0,0.0,0.0,0.0,0.0,0.0,0.0,0.0,0.0,0.0,0.0,0.0,0.0,0.0,0.0,0.0,0.0,0.0,0.0,0.0,0.0,0.0,0.0,0.0,0.0,0.0,0.0,0.0,0.0,0.0,0.0,0.0,0.0,0.0,0.0,0.0,0.0,0.0,0.0,0.0,0.0,0.0,0.0,0.0,0.0,0.0,0.0,0.0,0.0,0.0,0.0,0.0,0.0,0.0,0.0,0.0,0.0,0.0,0.0,0.0,0.0,0.0,0.0,0.0,0.0,0.0,0.0,0.0,0.0,0.0,0.0,0.0,0.0,0.0,0.0,0.0,0.0,0.0,0.0,0.0,0.0,0.0,0.0,0.0,0.0,0.0,0.0,0.0,0.0,0.0,0.0,0.0,0.0,0.0,0.0,0.0,0.0,0.0,0.0,0.0,0.0,0.0,0.0,0.0,0.0,0.0,0.0,0.0,0.0,0.0,0.0,0.0,0.0,0.0,0.0,0.0,0.0,0.0,0.0,0.0,0.0,0.0,0.0,0.0,0.0,0.0,0.0,0.0,0.0,0.0,0.0,0.0,0.0,0.0,0.0,0.0,0.0,0.0,0.0,0.0,0.0,0.0,0.0,0.0,0.0,0.0,0.0,0.0,0.0,0.0,0.0,0.0,0.0,0.0,0.0,0.0,0.0,0.0,0.0,0.0,0.0,0.0,0.0,0.0,0.0,0.0,0.0,0.0,0.0,0.0,0.0,-2.6533,0.0,0.0,0.0,0.0,0.0,0.0,0.0,0.0,0.0,0.0,0.0,0.0,0.0,0.0,0.0,0.0,0.0,0.0,0.0,0.0,0.0,0.0,0.0,0.0,0.0,0.0,0.0,0.0,0.0,0.0,0.0,0.0,0.0,0.0,0.0,0.0,0.0,0.0,0.0,0.0,0.0,0.0,0.0,0.0,0.0,0.0,0.0,0.0,0.0,0.0,0.0,0.0,0.0,0.0,0.0,0.0,0.0,0.0,0.0,0.0,0.0,0.0,0.0,0.0,0.0,0.0,0.0,0.0,0.0,0.0,0.0,0.0,0.0,0.0,0.0,0.0,0.0,0.0,0.0,0.0,0.0,0.0,0.0,0.0,0.0,0.0,0.0,0.0,0.0,0.0,0.0,0.0,0.0,0.0,0.0,0.0,0.0,0.0,0.0,0.0,0.0,0.0,0.0,0.0,0.0,0.0,0.0,0.0,0.0,0.0,-2.6533,-2.6533,-2.6533,-2.6533,-2.6533,0.0,0.0,0.0,0.0,0.0,0.0,0.0,0.0,0.0,0.0,0.0,0.0,0.0,0.0,0.0,0.0,0.0,0.0,0.0,0.0,0.0,0.0,0.0,0.0,0.0,0.0,0.0,0.0,0.0,0.0,0.0,0.0,0.0,0.0,0.0,0.0,0.0,0.0,0.0,0.0,0.0,0.0,0.0,0.0,0.0,0.0,0.0,0.0,0.0,0.0,0.0,0.0,0.0,0.0,0.0,0.0,0.0,0.0,0.0,0.0,0.0,0.0,0.0,0.0,0.0,0.0,0.0,0.0,0.0,0.0,0.0,0.0,0.0,0.0,0.0,0.0,0.0,0.0,0.0,0.0,0.0,0.0,0.0,0.0,0.0,0.0,0.0,0.0,0.0,0.0,0.0,0.0,0.0,0.0,0.0,0.0,0.0,0.0,0.0,0.0,0.0,0.0,0.0,0.0,0.0,0.0,0.0,0.0,0.0,0.0,0.0,0.0,-2.6533,-2.6533,-2.6533,0.0,0.0,0.0,0.0,0.0,0.0,0.0,0.0,0.0,0.0,0.0,0.0,0.0,0.0,0.0,0.0,0.0,0.0,0.0,0.0,0.0,0.0,0.0,0.0,0.0,0.0,0.0,0.0,0.0,0.0,0.0,0.0,0.0,0.0,0.0,0.0,0.0,0.0,0.0,0.0,0.0,0.0,0.0,0.0,0.0,0.0,0.0,0.0,0.0,0.0,0.0,0.0,0.0,0.0,0.0,0.0,0.0,0.0,0.0,0.0,0.0,0.0,0.0,0.0,0.0,0.0,0.0,0.0,0.0,0.0,0.0,0.0,0.0,0.0,0.0,0.0,0.0,0.0,0.0,0.0,0.0,0.0,0.0,0.0,0.0,0.0,0.0,0.0,0.0,0.0,0.0,0.0,0.0,0.0,0.0,0.0,0.0,0.0,0.0,0.0,0.0,0.0,0.0,0.0,0.0,0.0,0.0,0.0,0.0,0.0,-2.6533,-2.6533,-2.6533,0.0,-2.6508,0.0,0.0,0.0,0.0,0.0,0.0,0.0,0.0,0.0,0.0,0.0,0.0,0.0,0.0,0.0,0.0,0.0,0.0,0.0,0.0,0.0,0.0,0.0,0.0,0.0,0.0,0.0,0.0,0.0,0.0,0.0,0.0,0.0,0.0,0.0,0.0,0.0,0.0,0.0,0.0,0.0,0.0,0.0,0.0,0.0,0.0,0.0,0.0,0.0,0.0,0.0,0.0,0.0,0.0,0.0,0.0,0.0,0.0,0.0,0.0,0.0,0.0,0.0,0.0,0.0,0.0,0.0,0.0,0.0,0.0,0.0,0.0,0.0,0.0,0.0,0.0,0.0,0.0,0.0,0.0,0.0,0.0,0.0,0.0,0.0,0.0,0.0,0.0,0.0,0.0,0.0,0.0,0.0,0.0,0.0,0.0,0.0,0.0,0.0,0.0,0.0,0.0,0.0,0.0,0.0,0.0,0.0,0.0,0.0,0.0,-2.6533,-2.6533,-2.6533,-2.6533,0.0,0.0,0.0,0.0,0.0,0.0,0.0,0.0,0.0,0.0,0.0,0.0,0.0,0.0,0.0,0.0,0.0,0.0,0.0,0.0,0.0,0.0,0.0,0.0,0.0,0.0,0.0,0.0,0.0,0.0,0.0,0.0,0.0,0.0,0.0,0.0,0.0,0.0,0.0,0.0,0.0,0.0,0.0,0.0,0.0,0.0,0.0,0.0,0.0,0.0,0.0,0.0,0.0,0.0,0.0,0.0,0.0,0.0,0.0,0.0,0.0,0.0,0.0,0.0,0.0,0.0,0.0,0.0,0.0,0.0,0.0,0.0,0.0,0.0,0.0,0.0,0.0,0.0,0.0,0.0,0.0,0.0,0.0,0.0,0.0,0.0,0.0,0.0,0.0,0.0,0.0,0.0,0.0,0.0,0.0,0.0,0.0,0.0,0.0,0.0,0.0,0.0,0.0,0.0,0.0,0.0,0.0,0.0,0.0,0.0,-2.6533,-2.6533,-2.6533,-2.6533,-2.6533,-2.6533,0.0,0.0,0.0,0.0,0.0,0.0,0.0,0.0,0.0,0.0,0.0,0.0,0.0,0.0,0.0,0.0,0.0,0.0,0.0,0.0,0.0,0.0,0.0,0.0,0.0,0.0,0.0,0.0,0.0,0.0,0.0,0.0,0.0,0.0,0.0,0.0,0.0,0.0,0.0,0.0,0.0,0.0,0.0,0.0,0.0,0.0,0.0,0.0,0.0,0.0,0.0,0.0,0.0,0.0,0.0,0.0,0.0,0.0,0.0,0.0,0.0,0.0,0.0,0.0,0.0,0.0,0.0,0.0,0.0,0.0,0.0,0.0,0.0,0.0,0.0,0.0,0.0,0.0,0.0,0.0,0.0,0.0,0.0,0.0,0.0,0.0,0.0,0.0,0.0,0.0,0.0,0.0,0.0,0.0,0.0,0.0,0.0,0.0,0.0,0.0,0.0,0.0,0.0,0.0,0.0,0.0,0.0,0.0,-2.6465,-2.6465,-2.6465,-2.6465,-2.6465,-2.6465,0.0,0.0,0.0,0.0,0.0,0.0,0.0,0.0,0.0,0.0,0.0,0.0,0.0,0.0,0.0,0.0,0.0,0.0,0.0,0.0,0.0,0.0,0.0,0.0,0.0,0.0,0.0,0.0,0.0,0.0,0.0,0.0,0.0,0.0,0.0,0.0,0.0,0.0,0.0,0.0,0.0,0.0,0.0,0.0,0.0,0.0,0.0,0.0,0.0,0.0,0.0,0.0,0.0,0.0,0.0,0.0,0.0,0.0,0.0,0.0,0.0,0.0,0.0,0.0,0.0,0.0,0.0,0.0,0.0,0.0,0.0,0.0,0.0,0.0,0.0,0.0,0.0,0.0,0.0,0.0,0.0,0.0,0.0,0.0,0.0,0.0,0.0,0.0,0.0,0.0,0.0,0.0,0.0,0.0,0.0,0.0,0.0,0.0,0.0,0.0,0.0,0.0,0.0,0.0,0.0,0.0,0.0,0.0,0.0,-2.5746,-2.5229,-2.5087,-2.5396,-2.561,-2.5847,0.0,0.0,0.0,0.0,0.0,0.0,0.0,0.0,0.0,0.0,0.0,0.0,0.0,0.0,0.0,0.0,0.0,0.0,0.0,0.0,0.0,0.0,0.0,0.0,0.0,0.0,0.0,0.0,0.0,0.0,0.0,0.0,0.0,0.0,0.0,0.0,0.0,0.0,0.0,0.0,0.0,0.0,0.0,0.0,0.0,0.0,0.0,0.0,0.0,0.0,0.0,0.0,0.0,0.0,0.0,0.0,0.0,0.0,0.0,0.0,0.0,0.0,0.0,0.0,0.0,0.0,0.0,0.0,0.0,0.0,0.0,0.0,0.0,0.0,0.0,0.0,0.0,0.0,0.0,0.0,0.0,0.0,0.0,0.0,0.0,0.0,0.0,0.0,0.0,0.0,0.0,0.0,0.0,0.0,0.0,0.0,0.0,0.0,0.0,0.0,0.0,0.0,0.0,0.0,0.0,0.0,0.0,0.0,0.0,-2.4945,0.0,-2.42,-2.4746,-2.5299,-2.5661,0.0,0.0,0.0,0.0,0.0,0.0,0.0,0.0,0.0,0.0,0.0,0.0,0.0,0.0,0.0,0.0,0.0,0.0,0.0,0.0,0.0,0.0,0.0,0.0,0.0,0.0,0.0,0.0,0.0,0.0,0.0,0.0,0.0,0.0,0.0,0.0,0.0,0.0,0.0,0.0,0.0,0.0,0.0,0.0,0.0,0.0,0.0,0.0,0.0,0.0,0.0,0.0,0.0,0.0,0.0,0.0,0.0,0.0,0.0,0.0,0.0,0.0,0.0,0.0,0.0,0.0,0.0,0.0,0.0,0.0,0.0,0.0,0.0,0.0,0.0,0.0,0.0,0.0,0.0,0.0,0.0,0.0,0.0,0.0,0.0,0.0,0.0,0.0,0.0,0.0,0.0,0.0,0.0,0.0,0.0,0.0,0.0,0.0,0.0,0.0,0.0,0.0,0.0,0.0,0.0,0.0,0.0,0.0,-2.4874,-2.4131,-2.3672,-2.3853,-2.4768,-2.5557,-2.602,0.0,0.0,0.0,0.0,0.0,0.0,0.0,0.0,0.0,0.0,0.0,0.0,0.0,0.0,0.0,0.0,0.0,0.0,0.0,0.0,0.0,0.0,0.0,0.0,0.0,0.0,0.0,0.0,0.0,0.0,0.0,0.0,0.0,0.0,0.0,0.0,0.0,0.0,0.0,0.0,0.0,0.0,0.0,0.0,0.0,0.0,0.0,0.0,0.0,0.0,0.0,0.0,0.0,0.0,0.0,0.0,0.0,0.0,0.0,0.0,0.0,0.0,0.0,0.0,0.0,0.0,0.0,0.0,0.0,0.0,0.0,0.0,0.0,0.0,0.0,0.0,0.0,0.0,0.0,0.0,0.0,0.0,0.0,0.0,0.0,0.0,0.0,0.0,0.0,0.0,0.0,0.0,0.0,0.0,0.0,0.0,0.0,0.0,0.0,0.0,0.0,0.0,0.0,0.0,0.0,0.0,0.0,0.0,0.0,-2.4205,-2.3004,-2.2767,-2.3667,-2.4161,-2.4596,0.0,0.0,0.0,0.0,0.0,0.0,0.0,0.0,0.0,0.0,0.0,0.0,0.0,0.0,0.0,0.0,0.0,0.0,0.0,0.0,0.0,0.0,0.0,0.0,0.0,0.0,0.0,0.0,0.0,0.0,0.0,0.0,0.0,0.0,0.0,0.0,0.0,0.0,0.0,0.0,0.0,0.0,0.0,0.0,0.0,0.0,0.0,0.0,0.0,0.0,0.0,0.0,0.0,0.0,0.0,0.0,0.0,0.0,0.0,0.0,0.0,0.0,0.0,0.0,0.0,0.0,0.0,0.0,0.0,0.0,0.0,0.0,0.0,0.0,0.0,0.0,0.0,0.0,0.0,0.0,0.0,0.0,0.0,0.0,0.0,0.0,0.0,0.0,0.0,0.0,0.0,0.0,0.0,0.0,0.0,0.0,0.0,0.0,0.0,0.0,0.0,0.0,0.0,0.0,0.0,0.0,0.0,0.0,0.0,-2.4384,-2.3092,-2.2749,-2.3681,-2.4675,-2.5093,-2.4848,0.0,0.0,0.0,0.0,0.0,0.0,0.0,0.0,0.0,0.0,0.0,0.0,0.0,0.0,0.0,0.0,0.0,0.0,0.0,0.0,0.0,0.0,0.0,0.0,0.0,0.0,0.0,0.0,0.0,0.0,0.0,0.0,0.0,0.0,0.0,0.0,0.0,0.0,0.0,0.0,0.0,0.0,0.0,0.0,0.0,0.0,0.0,0.0,0.0,0.0,0.0,0.0,0.0,0.0,0.0,0.0,0.0,0.0,0.0,0.0,0.0,0.0,0.0,0.0,0.0,0.0,0.0,0.0,0.0,0.0,0.0,0.0,0.0,0.0,0.0,0.0,0.0,0.0,0.0,0.0,0.0,0.0,0.0,0.0,0.0,0.0,0.0,0.0,0.0,0.0,0.0,0.0,0.0,0.0,0.0,0.0,0.0,0.0,0.0,0.0,0.0,0.0,0.0,0.0,0.0,0.0,0.0,0.0,-2.488,-2.3906,-2.3846,-2.4547,-2.6469,-2.694,0.0,0.0,0.0,0.0,0.0,0.0,0.0,0.0,0.0,0.0,0.0,0.0,0.0,0.0,0.0,0.0,0.0,0.0,0.0,0.0,0.0,0.0,0.0,0.0,0.0,0.0,0.0,0.0,0.0,0.0,0.0,0.0,0.0,0.0,0.0,0.0,0.0,0.0,0.0,0.0,0.0,0.0,0.0,0.0,0.0,0.0,0.0,0.0,0.0,0.0,0.0,0.0,0.0,0.0,0.0,0.0,0.0,0.0,0.0,0.0,0.0,0.0,0.0,0.0,0.0,0.0,0.0,0.0,0.0,0.0,0.0,0.0,0.0,0.0,0.0,0.0,0.0,0.0,0.0,0.0,0.0,0.0,0.0,0.0,0.0,0.0,0.0,0.0,0.0,0.0,0.0,0.0,0.0,0.0,0.0,0.0,0.0,0.0,0.0,0.0,0.0,0.0,0.0,0.0,0.0,0.0,0.0,0.0,0.0,-2.5578,-2.633,-2.6383,-2.5788,-2.5522,-2.5211,0.0,0.0,0.0,0.0,0.0,0.0,0.0,0.0,0.0,0.0,0.0,0.0,0.0,0.0,0.0,0.0,0.0,0.0,0.0,0.0,0.0,0.0,0.0,0.0,0.0,0.0,0.0,0.0,0.0,0.0,0.0,0.0,0.0,0.0,0.0,0.0,0.0,0.0,0.0,0.0,0.0,0.0,0.0,0.0,0.0,0.0,0.0,0.0,0.0,0.0,0.0,0.0,0.0,0.0,0.0,0.0,0.0,0.0,0.0,0.0,0.0,0.0,0.0,0.0,0.0,0.0,0.0,0.0,0.0,0.0,0.0,0.0,0.0,0.0,0.0,0.0,0.0,0.0,0.0,0.0,0.0,0.0,0.0,0.0,0.0,0.0,0.0,0.0,0.0,0.0,0.0,0.0,0.0,0.0,0.0,0.0,0.0,0.0,0.0,0.0,0.0,0.0,0.0,0.0,0.0,0.0,0.0,0.0,-2.5269,-2.5624,-2.7703,-2.8445,-2.7635,-2.6585,-2.5633,0.0,0.0,0.0,0.0,0.0,0.0,0.0,0.0,0.0,0.0,0.0,0.0,0.0,0.0,0.0,0.0,0.0,0.0,0.0,0.0,0.0,0.0,0.0,0.0,0.0,0.0,0.0,0.0,0.0,0.0,0.0,0.0,0.0,0.0,0.0,0.0,0.0,0.0,0.0,0.0,0.0,0.0,0.0,0.0,0.0,0.0,0.0,0.0,0.0,0.0,0.0,0.0,0.0,0.0,0.0,0.0,0.0,0.0,0.0,0.0,0.0,0.0,0.0,0.0,0.0,0.0,0.0,0.0,0.0,0.0,0.0,0.0,0.0,0.0,0.0,0.0,0.0,0.0,0.0,0.0,0.0,0.0,0.0,0.0,0.0,0.0,0.0,0.0,0.0,0.0,0.0,0.0,0.0,0.0,0.0,0.0,0.0,0.0,0.0,0.0,0.0,0.0,0.0,0.0,0.0,0.0,0.0,0.0,-2.5776,-2.5502,-2.8448,-2.9889,-2.9597,-2.837,-2.7149,0.0,0.0,0.0,0.0,0.0,0.0,0.0,0.0,0.0,0.0,0.0,0.0,0.0,0.0,0.0,0.0,0.0,0.0,0.0,0.0,0.0,0.0,0.0,0.0,0.0,0.0,0.0,0.0,0.0,0.0,0.0,0.0,0.0,0.0,0.0,0.0,0.0,0.0,0.0,0.0,0.0,0.0,0.0,0.0,0.0,0.0,0.0,0.0,0.0,0.0,0.0,0.0,0.0,0.0,0.0,0.0,0.0,0.0,0.0,0.0,0.0,0.0,0.0,0.0,0.0,0.0,0.0,0.0,0.0,0.0,0.0,0.0,0.0,0.0,0.0,0.0,0.0,0.0,0.0,0.0,0.0,0.0,0.0,0.0,0.0,0.0,0.0,0.0,0.0,0.0,0.0,0.0,0.0,0.0,0.0,0.0,0.0,0.0,0.0,0.0,0.0,0.0,0.0,0.0,0.0,0.0,0.0,0.0,-2.6413,-2.7297,-2.9044,-2.9994,-2.9869,-2.7598,-2.6145,0.0,0.0,0.0,0.0,0.0,0.0,0.0,0.0,0.0,0.0,0.0,0.0,0.0,0.0,0.0,0.0,0.0,0.0,0.0,0.0,0.0,0.0,0.0,0.0,0.0,0.0,0.0,0.0,0.0,0.0,0.0,0.0,0.0,0.0,0.0,0.0,0.0,0.0,0.0,0.0,0.0,0.0,0.0,0.0,0.0,0.0,0.0,0.0,-3.4084,0.0,0.0,0.0,0.0,0.0,0.0,0.0,0.0,0.0,0.0,0.0,0.0,0.0,0.0,0.0,0.0,0.0,0.0,0.0,0.0,0.0,0.0,0.0,0.0,0.0,0.0,0.0,0.0,0.0,0.0,0.0,0.0,0.0,0.0,0.0,0.0,0.0,0.0,0.0,0.0,0.0,0.0,0.0,0.0,0.0,0.0,0.0,0.0,0.0,0.0,0.0,0.0,0.0,0.0,0.0,0.0,0.0,0.0,0.0,-2.6537,-2.7708,-2.9188,-2.9994,-2.9911,-2.7945,-2.6537,0.0,0.0,0.0,0.0,0.0,0.0,0.0,0.0,0.0,0.0,0.0,0.0,0.0,0.0,0.0,0.0,0.0,0.0,0.0,0.0,0.0,0.0,0.0,0.0,0.0,0.0,0.0,0.0,0.0,0.0,0.0,0.0,0.0,0.0,0.0,0.0,0.0,0.0,0.0,0.0,0.0,0.0,0.0,0.0,0.0,0.0,0.0,0.0,0.0,0.0,0.0,0.0,0.0,0.0,0.0,0.0,0.0,0.0,0.0,0.0,0.0,0.0,0.0,0.0,0.0,0.0,0.0,0.0,0.0,0.0,0.0,0.0,0.0,0.0,0.0,0.0,0.0,0.0,0.0,0.0,0.0,0.0,0.0,0.0,0.0,0.0,0.0,0.0,0.0,0.0,0.0,0.0,0.0,0.0,0.0,0.0,0.0,0.0,0.0,0.0,0.0,0.0,0.0,0.0,0.0,0.0,0.0,-2.5295,-2.6568,-2.7918,-2.9291,-2.9994,-2.9973,-2.8649,-2.7282,-2.5916,0.0,0.0,0.0,0.0,0.0,0.0,0.0,0.0,0.0,0.0,0.0,0.0,0.0,0.0,0.0,0.0,0.0,0.0,0.0,0.0,0.0,0.0,0.0,0.0,0.0,0.0,0.0,0.0,0.0,0.0,0.0,0.0,0.0,0.0,0.0,0.0,0.0,0.0,-3.2047,-3.2162,0.0,0.0,0.0,0.0,0.0,0.0,0.0,0.0,-3.3639,0.0,0.0,0.0,0.0,0.0,0.0,0.0,0.0,0.0,0.0,0.0,0.0,0.0,0.0,0.0,0.0,0.0,0.0,0.0,0.0,0.0,0.0,0.0,0.0,0.0,0.0,0.0,0.0,0.0,0.0,0.0,0.0,0.0,0.0,0.0,0.0,0.0,0.0,0.0,0.0,0.0,0.0,0.0,0.0,0.0,0.0,0.0,0.0,0.0,0.0,0.0,0.0,0.0,0.0,0.0,0.0,-2.6474,-2.6109,-2.7117,-2.958,-2.987,-2.9994,-2.9953,-2.8649,-2.7282,-2.5916,0.0,0.0,0.0,0.0,0.0,0.0,0.0,0.0,0.0,0.0,0.0,0.0,0.0,0.0,0.0,0.0,0.0,0.0,0.0,0.0,0.0,0.0,0.0,0.0,0.0,0.0,0.0,0.0,0.0,0.0,0.0,0.0,0.0,0.0,0.0,0.0,0.0,0.0,0.0,-3.2403,-3.2332,0.0,0.0,0.0,0.0,0.0,0.0,0.0,0.0,-3.4816,0.0,0.0,0.0,0.0,0.0,0.0,0.0,0.0,0.0,0.0,0.0,0.0,0.0,0.0,0.0,0.0,0.0,0.0,0.0,0.0,0.0,0.0,0.0,0.0,0.0,0.0,0.0,0.0,0.0,0.0,0.0,0.0,0.0,0.0,0.0,0.0,0.0,0.0,0.0,0.0,0.0,0.0,0.0,0.0,0.0,0.0,0.0,0.0,0.0,0.0,0.0,0.0,0.0,0.0,0.0,-2.633,-2.6764,-2.7945,-2.9911,-2.9994,-2.9994,-2.9973,-2.8649,-2.7282,0.0,0.0,0.0,0.0,0.0,0.0,0.0,0.0,0.0,0.0,0.0,0.0,0.0,0.0,0.0,0.0,0.0,0.0,0.0,0.0,0.0,0.0,0.0,0.0,0.0,0.0,0.0,0.0,0.0,0.0,0.0,0.0,0.0,0.0,0.0,0.0,0.0,0.0,0.0,0.0,-3.2784,-3.2925,-3.4244,0.0,0.0,0.0,0.0,0.0,0.0,-3.4345,-3.4371,0.0,0.0,0.0,0.0,0.0,0.0,0.0,0.0,0.0,0.0,0.0,0.0,0.0,0.0,0.0,0.0,0.0,0.0,0.0,0.0,0.0,0.0,0.0,0.0,0.0,0.0,0.0,0.0,0.0,0.0,0.0,0.0,0.0,0.0,0.0,0.0,0.0,0.0,0.0,0.0,0.0,0.0,0.0,0.0,0.0,0.0,0.0,0.0,0.0,0.0,0.0,0.0,0.0,0.0,0.0,-2.5875,-2.722,-2.8587,-2.9932,-2.9994,-2.9994,-2.9973,-2.838,-2.6993,0.0,0.0,0.0,0.0,0.0,0.0,0.0,0.0,0.0,0.0,0.0,0.0,0.0,0.0,0.0,0.0,0.0,0.0,0.0,0.0,0.0,0.0,0.0,0.0,0.0,0.0,0.0,0.0,0.0,0.0,0.0,0.0,0.0,0.0,0.0,0.0,0.0,0.0,0.0,0.0,0.0,-3.37,-3.5277,-3.4314,0.0,0.0,0.0,0.0,-3.411,-3.4397,0.0,0.0,0.0,0.0,0.0,0.0,0.0,0.0,0.0,0.0,0.0,0.0,0.0,0.0,0.0,0.0,0.0,0.0,0.0,0.0,0.0,0.0,0.0,0.0,0.0,0.0,0.0,0.0,0.0,0.0,0.0,0.0,0.0,0.0,0.0,0.0,0.0,0.0,0.0,0.0,0.0,0.0,0.0,0.0,0.0,0.0,0.0,0.0,0.0,0.0,0.0,0.0,0.0,0.0,0.0,0.0,-2.5875,-2.722,-2.8607,-2.9911,-2.9994,-2.9994,-2.9953,-2.7489,-2.6041,0.0,0.0,0.0,0.0,0.0,0.0,0.0,0.0,0.0,0.0,0.0,0.0,0.0,0.0,0.0,0.0,0.0,0.0,0.0,0.0,0.0,0.0,0.0,0.0,0.0,0.0,0.0,0.0,0.0,0.0,0.0,0.0,0.0,0.0,0.0,0.0,0.0,0.0,0.0,0.0,0.0,-3.4289,-3.5684,-3.4341,-3.3276,0.0,0.0,-3.5661,-3.5809,-3.7116,0.0,0.0,0.0,0.0,0.0,0.0,0.0,0.0,0.0,0.0,0.0,0.0,0.0,0.0,0.0,0.0,0.0,0.0,0.0,0.0,0.0,0.0,0.0,0.0,0.0,0.0,0.0,0.0,0.0,0.0,0.0,0.0,0.0,0.0,0.0,0.0,0.0,0.0,0.0,0.0,0.0,0.0,0.0,0.0,0.0,0.0,0.0,0.0,0.0,0.0,0.0,0.0,0.0,0.0,0.0,-2.5295,-2.5756,-2.8007,-2.9394,-2.9973,-2.9994,-2.9994,-2.9994,-2.7324,-2.5896,0.0,0.0,0.0,0.0,0.0,0.0,0.0,0.0,0.0,0.0,0.0,0.0,0.0,0.0,0.0,0.0,0.0,0.0,0.0,0.0,0.0,0.0,0.0,0.0,0.0,0.0,0.0,0.0,0.0,0.0,0.0,0.0,0.0,0.0,0.0,0.0,0.0,0.0,0.0,0.0,0.0,0.0,-3.6069,-3.5709,0.0,0.0,0.0,-3.6087,-3.4868,0.0,0.0,0.0,0.0,0.0,0.0,0.0,0.0,0.0,0.0,0.0,0.0,0.0,0.0,0.0,0.0,0.0,0.0,0.0,0.0,0.0,0.0,0.0,0.0,0.0,0.0,0.0,0.0,0.0,0.0,0.0,0.0,0.0,0.0,0.0,0.0,0.0,0.0,0.0,0.0,0.0,0.0,0.0,0.0,0.0,0.0,0.0,0.0,0.0,0.0,0.0,0.0,0.0,0.0,0.0,0.0,0.0,-2.5665,-2.8487,-2.9994,-2.9994,-2.9994,-2.9994,-2.9953,-2.7655,0.0,0.0,0.0,0.0,0.0,0.0,0.0,0.0,0.0,0.0,0.0,0.0,0.0,0.0,0.0,0.0,0.0,0.0,0.0,0.0,0.0,0.0,0.0,0.0,0.0,0.0,0.0,0.0,0.0,0.0,0.0,0.0,0.0,0.0,0.0,0.0,0.0,0.0,0.0,0.0,0.0,0.0,-3.6108,-3.6212,-3.6534,-3.6687,0.0,0.0,-3.6478,-3.5312,-3.7743,-3.8632,0.0,0.0,0.0,0.0,0.0,0.0,0.0,0.0,0.0,0.0,0.0,0.0,0.0,0.0,0.0,0.0,0.0,0.0,0.0,0.0,0.0,0.0,0.0,0.0,0.0,0.0,0.0,0.0,0.0,0.0,0.0,0.0,0.0,0.0,0.0,0.0,0.0,0.0,0.0,0.0,0.0,0.0,0.0,0.0,0.0,0.0,0.0,0.0,0.0,0.0,0.0,0.0,0.0,0.0,0.0,-2.5706,-2.8507,-2.9994,-2.9994,-2.9994,-2.9994,-2.9973,-2.8566,-2.7179,0.0,0.0,0.0,0.0,0.0,0.0,0.0,0.0,0.0,0.0,0.0,0.0,0.0,0.0,0.0,0.0,0.0,0.0,0.0,0.0,0.0,0.0,0.0,0.0,0.0,0.0,0.0,0.0,0.0,0.0,0.0,0.0,0.0,0.0,0.0,0.0,0.0,0.0,0.0,0.0,0.0,-3.6661,-3.59,-3.5823,-3.6482,0.0,0.0,-3.7234,-3.8972,-4.1167,-4.1559,-3.8161,0.0,0.0,0.0,0.0,0.0,0.0,0.0,0.0,0.0,0.0,0.0,0.0,0.0,0.0,0.0,0.0,0.0,0.0,0.0,0.0,0.0,0.0,0.0,0.0,0.0,0.0,0.0,0.0,0.0,0.0,0.0,0.0,0.0,0.0,0.0,0.0,0.0,0.0,0.0,0.0,0.0,0.0,0.0,0.0,0.0,0.0,0.0,0.0,0.0,0.0,0.0,0.0,0.0,-2.5694,-2.5462,-2.8387,-2.9994,-2.9994,-2.9994,-2.9994,-2.9994,-2.8918,-2.7696,0.0,0.0,0.0,0.0,0.0,0.0,0.0,0.0,0.0,0.0,0.0,0.0,0.0,0.0,0.0,0.0,0.0,0.0,0.0,0.0,0.0,0.0,0.0,0.0,0.0,0.0,0.0,0.0,-3.2354,-3.2791,-3.1758,0.0,0.0,0.0,0.0,0.0,0.0,0.0,0.0,0.0,0.0,-3.6921,-3.8272,-3.86,0.0,0.0,-3.9607,-3.9294,-3.8658,-4.0174,-4.0252,-3.6854,-3.6567,0.0,0.0,0.0,0.0,0.0,0.0,0.0,0.0,0.0,0.0,0.0,0.0,0.0,0.0,0.0,0.0,0.0,0.0,0.0,0.0,0.0,0.0,0.0,0.0,0.0,0.0,0.0,0.0,0.0,0.0,0.0,0.0,0.0,0.0,0.0,0.0,0.0,0.0,0.0,0.0,0.0,0.0,0.0,0.0,0.0,0.0,0.0,0.0,0.0,0.0,0.0,0.0,-2.5694,-2.5462,-2.8531,-3.0201,-3.0201,-3.0325,-3.0408,-3.0387,-2.9766,-2.8794,0.0,0.0,0.0,0.0,0.0,0.0,0.0,0.0,0.0,0.0,0.0,0.0,0.0,0.0,0.0,0.0,0.0,0.0,0.0,0.0,0.0,0.0,0.0,0.0,0.0,0.0,0.0,0.0,-3.345,-3.3861,-3.2849,0.0,0.0,0.0,0.0,0.0,0.0,0.0,0.0,0.0,0.0,-3.7678,-3.9251,-3.9581,-3.9677,-3.9677,-3.973,-3.939,-3.8318,-3.9285,-3.9337,-3.6985,0.0,0.0,0.0,0.0,0.0,0.0,0.0,0.0,0.0,0.0,0.0,0.0,0.0,0.0,0.0,0.0,0.0,0.0,0.0,0.0,0.0,0.0,0.0,0.0,0.0,0.0,0.0,0.0,0.0,0.0,0.0,0.0,0.0,0.0,0.0,0.0,0.0,0.0,0.0,0.0,0.0,0.0,0.0,0.0,0.0,0.0,0.0,0.0,0.0,0.0,0.0,0.0,0.0,0.0,-2.5665,-2.8961,-3.0677,-3.0677,-3.1112,-3.1319,-3.1319,-3.1319,-3.0657,-2.927,0.0,0.0,0.0,0.0,0.0,0.0,0.0,0.0,0.0,0.0,0.0,0.0,0.0,0.0,0.0,0.0,0.0,0.0,0.0,0.0,0.0,0.0,0.0,0.0,0.0,0.0,-2.9745,-3.1444,-3.3012,0.0,0.0,0.0,0.0,0.0,0.0,0.0,0.0,0.0,0.0,-3.7351,-3.9128,-3.8135,-3.7978,-3.8083,-3.8083,-3.709,-3.6854,-3.8449,-3.9207,-3.9599,0.0,0.0,0.0,0.0,0.0,0.0,0.0,0.0,0.0,0.0,0.0,0.0,0.0,0.0,0.0,0.0,0.0,0.0,0.0,0.0,0.0,0.0,0.0,0.0,0.0,0.0,0.0,-2.3153,-2.2872,0.0,0.0,0.0,0.0,0.0,0.0,0.0,0.0,0.0,0.0,0.0,-2.5488,-2.5888,0.0,0.0,0.0,0.0,0.0,0.0,0.0,0.0,0.0,0.0,0.0,0.0,-2.6311,-2.6648,-2.9559,-3.1153,-3.1153,-3.1298,-3.1381,-3.1381,-3.1671,-3.1319,-3.0243,0.0,0.0,0.0,0.0,0.0,0.0,0.0,0.0,0.0,0.0,0.0,0.0,0.0,0.0,0.0,0.0,0.0,0.0,0.0,0.0,0.0,0.0,0.0,0.0,0.0,-3.228,0.0,0.0,0.0,0.0,0.0,0.0,0.0,0.0,0.0,0.0,0.0,-3.4789,-3.6515,-3.6724,-3.7142,-3.8266,-3.8423,-3.8972,0.0,0.0,0.0,0.0,0.0,0.0,0.0,0.0,0.0,0.0,0.0,0.0,0.0,0.0,-3.7482,-3.6358,-3.7063,-3.7874,-3.7848,0.0,0.0,0.0,0.0,0.0,0.0,0.0,0.0,0.0,0.0,0.0,0.0,0.0,0.0,0.0,0.0,-2.3725,0.0,0.0,0.0,0.0,0.0,0.0,0.0,0.0,-2.5276,-2.6023,-2.6599,-2.6889,-2.7034,0.0,-2.7034,-2.5937,0.0,0.0,0.0,0.0,0.0,0.0,0.0,0.0,-2.6857,-2.7174,-3.0139,-3.1609,-3.1609,-3.1754,-3.1857,-3.1857,-3.2126,-3.2002,-3.1422,-3.0077,-2.8918,0.0,0.0,0.0,0.0,0.0,0.0,0.0,0.0,0.0,0.0,0.0,0.0,0.0,0.0,0.0,0.0,0.0,0.0,0.0,0.0,0.0,0.0,0.0,-3.3378,0.0,0.0,0.0,0.0,0.0,0.0,0.0,0.0,0.0,-3.4711,-3.526,-3.6253,-3.7952,-3.7717,-3.7586,-3.8057,0.0,0.0,0.0,0.0,0.0,0.0,0.0,-3.6828,-3.6305,-3.6724,-3.7482,-3.8606,-3.9259,-3.9625,-3.9625,0.0,0.0,-3.824,-3.8815,-3.9625,-3.9625,-3.9886,-4.0017,-3.9677,-3.9886,-4.0043,0.0,0.0,0.0,0.0,0.0,0.0,0.0,0.0,-2.5685,-2.4989,0.0,-2.4885,0.0,0.0,0.0,0.0,0.0,0.0,0.0,0.0,-2.8587,-2.9249,-2.8069,-2.8028,-2.8028,-2.7966,-2.72,-2.6786,-2.6765,-2.7179,0.0,0.0,0.0,0.0,0.0,0.0,-2.7112,-2.751,-3.0491,-3.2064,-3.2085,-3.2478,-3.2727,-3.2706,-3.2727,-3.2706,-3.2664,-3.1443,-3.0719,-3.0636,-2.8152,0.0,0.0,0.0,0.0,0.0,0.0,0.0,0.0,0.0,0.0,0.0,0.0,0.0,0.0,0.0,0.0,0.0,0.0,0.0,0.0,-3.3666,0.0,0.0,0.0,0.0,0.0,0.0,0.0,0.0,0.0,0.0,-3.5521,-3.6802,-3.8031,-3.8553,0.0,0.0,0.0,0.0,-3.8344,-3.5208,-3.4607,-3.4685,-3.4789,-3.6096,-3.7665,-3.9285,0.0,0.0,-4.2108,-4.0827,-3.9886,-3.9808,-4.1219,-4.1716,-4.0122,-3.9913,-3.9939,-3.9913,-4.0017,-3.9834,-3.9808,-4.0148,-4.0069,-2.6579,0.0,0.0,0.0,0.0,-2.5502,-2.6206,-2.7249,-2.7249,-2.7022,-2.6692,-2.6968,0.0,0.0,0.0,0.0,0.0,0.0,-2.6392,-2.7345,-2.8173,-2.9001,-2.9891,-2.9891,-3.0056,-3.0367,-3.0118,-2.9994,-3.0015,-3.045,-2.8652,-2.4784,0.0,0.0,0.0,0.0,-2.828,-2.9725,-3.1567,-3.254,-3.254,-3.2664,-3.2727,-3.2727,-3.2727,-3.2727,-3.2727,-3.2354,-3.1692,-3.0719,-2.9932,0.0,0.0,0.0,0.0,0.0,0.0,0.0,0.0,0.0,0.0,0.0,0.0,0.0,0.0,0.0,0.0,0.0,0.0,0.0,-3.3587,-3.5051,-3.5234,0.0,0.0,0.0,0.0,0.0,0.0,0.0,0.0,0.0,-3.8292,-3.7325,-3.6828,0.0,0.0,-3.6096,-3.526,-3.6645,-3.7848,-3.8083,0.0,0.0,0.0,-3.9337,-3.9024,-3.9547,-4.1036,-4.216,-4.216,-4.2762,-4.3258,-4.3232,-4.365,-4.3807,-4.3389,-4.3258,-4.3232,-4.3258,-4.3258,-4.3258,-4.3258,-4.3258,-4.3232,-2.8255,-2.7427,-2.633,-2.6185,-2.6682,-2.6682,-2.7469,-2.8752,-2.8752,-2.8442,-2.7966,-2.8504,-2.7696,-2.5896,-2.5896,0.0,0.0,0.0,-2.7696,-2.9021,-2.9208,-2.9891,-3.0926,-3.0967,-3.1112,-3.1381,-3.1547,-3.165,-3.1629,-3.1547,-3.0013,-2.7256,0.0,0.0,-2.6804,-2.8239,-2.9559,-3.0677,-3.2043,-3.2809,-3.2996,-3.3161,-3.3265,-3.3265,-3.3265,-3.3265,-3.3265,-3.3265,-3.2871,-3.2064,-3.1505,-3.047,0.0,0.0,0.0,0.0,0.0,0.0,0.0,0.0,0.0,0.0,0.0,-3.2638,0.0,0.0,0.0,0.0,-3.5312,-3.5312,-3.5312,-3.594,0.0,0.0,0.0,0.0,0.0,0.0,0.0,-3.6462,-3.8004,-3.9207,-3.9547,-3.837,-3.7874,-3.8919,-3.8135,-3.722,-3.6567,0.0,-3.9181,-3.9573,-3.9625,-3.9965,-4.0984,-4.0853,-4.0827,-4.1533,-4.2448,-4.3154,-4.3206,-4.4068,-4.4696,-4.4748,-4.4748,-4.48,-4.5036,-4.5088,-4.4983,-4.4774,-4.4748,-4.4748,-4.4748,-4.4748,-4.48,-2.9994,-2.9787,-2.7262,-2.6951,-2.8069,-2.809,-2.8814,-2.9973,-2.9994,-2.927,-2.8214,-2.9435,-2.8607,-2.6289,-2.631,0.0,0.0,-2.8628,-2.9518,-3.076,-3.1174,-3.1402,-3.1422,-3.1422,-3.1443,-3.1505,-3.1899,-3.2085,-3.2064,-3.1278,-3.0822,-3.0739,-3.0739,-3.0015,-2.8752,-2.9911,-3.0636,-3.076,-3.2023,-3.2913,-3.343,-3.3844,-3.4072,-3.4051,-3.4072,-3.4072,-3.4072,-3.4072,-3.4072,-3.4031,-3.2871,-3.2147,-3.1961,0.0,0.0,0.0,0.0,0.0,0.0,0.0,0.0,0.0,0.0,0.0,0.0,0.0,0.0,0.0,-3.7952,0.0,-3.8109,-3.6698,0.0,0.0,0.0,-3.6462,-3.8553,-3.8893,-3.9155,-3.9573,0.0,0.0,-3.9808,0.0,-4.0435,-4.216,-4.2134,-4.1376,-3.9834,-4.0932,-4.1611,-4.0122,-3.9991,-4.0043,-4.0566,-4.1533,-4.2814,-4.4147,-4.4748,-4.4643,-4.4617,-4.4748,-4.48,-4.4853,-4.4826,-4.5036,-4.5611,-4.5689,-4.5532,-4.5009,-4.4905,-4.4905,-4.4957,-4.4983,-4.5114,-2.9994,-2.9953,-2.929,-2.9208,-2.9497,-2.9497,-2.9704,-2.9994,-2.9994,-2.9808,-2.9518,-2.9849,-2.9829,-2.9559,-2.9911,-3.0243,-3.0574,-3.0677,-3.0905,-3.1215,-3.1319,-3.1567,-3.1878,-3.1878,-3.2064,-3.2395,-3.252,-3.2561,-3.2561,-3.2354,-3.1899,-3.1236,-3.1215,-3.0346,-2.8711,-2.929,-3.016,-3.1195,-3.1878,-3.2747,-3.3865,-3.401,-3.4072,-3.4072,-3.4072,-3.4072,-3.4072,-3.4072,-3.4072,-3.4051,-3.3762,-3.312,-3.2064,-3.0641,0.0,0.0,0.0,0.0,0.0,0.0,0.0,0.0,0.0,-3.4108,-3.2898,0.0,-3.5383,0.0,-3.8292,-3.9834,-3.9834,-3.986,0.0,0.0,-3.8553,-3.8789,-3.9337,-4.0566,-4.0906,-3.973,-4.0749,-4.1559,-4.1559,-4.1559,-4.2186,-4.3807,-4.1873,-4.0069,-3.9677,-4.1089,-4.203,-4.1742,-4.2605,-4.3493,-4.3415,-4.3807,-4.4225,-4.4643,-4.4748,-4.4748,-4.4748,-4.5114,-4.5401,-4.5454,-4.5794,-4.6081,-4.6238,-4.6264,-4.6238,-4.6107,-4.6055,-4.6055,-4.6055,-4.6055,-4.6107,-2.9994,-3.0015,-3.0222,-3.0305,-3.0284,-3.0077,-3.0118,-3.0305,-3.0305,-3.0408,-3.0594,-3.0615,-3.076,-3.1008,-3.1257,-3.1381,-3.1402,-3.1588,-3.1671,-3.1692,-3.1899,-3.2106,-3.2354,-3.2354,-3.2478,-3.2727,-3.2934,-3.3016,-3.3016,-3.3223,-3.3078,-3.2582,-3.2582,-3.1754,-3.018,-2.9787,-2.9994,-3.076,-3.1816,-3.3016,-3.432,-3.4569,-3.4383,-3.3782,-3.3762,-3.3472,-3.2892,-3.2871,-3.2871,-3.2871,-3.2871,-3.254,-3.1754,-3.045,-2.9944,0.0,0.0,0.0,0.0,0.0,0.0,0.0,0.0,0.0,0.0,0.0,-3.722,0.0,-3.9625,0.0,-4.0122,-4.0357,-4.0461,-4.0278,-4.054,-4.1036,-4.1794,-4.2735,-4.2944,-4.2004,-4.2709,-4.331,-4.331,-4.331,-4.3624,-4.4591,-4.3075,-4.1899,-4.1951,-4.2735,-4.331,-4.3363,-4.4121,-4.4748,-4.4748,-4.4748,-4.4826,-4.5062,-4.5114,-4.5192,-4.5454,-4.5767,-4.6003,-4.6029,-4.6264,-4.6578,-4.6813,-4.6865,-4.6917,-4.7179,-4.7231,-4.7048,-4.6578,-4.6499,-4.6525,-3.018,-3.0201,-3.0615,-3.076,-3.0739,-3.0346,-3.0408,-3.076,-3.0781,-3.1008,-3.1381,-3.1443,-3.1464,-3.1464,-3.1526,-3.1547,-3.1567,-3.1961,-3.2126,-3.2147,-3.254,-3.2768,-3.2809,-3.283,-3.2851,-3.2913,-3.3285,-3.3451,-3.3492,-3.3865,-3.401,-3.3906,-3.3906,-3.3244,-3.1961,-3.076,-3.018,-3.0201,-3.1919,-3.3389,-3.4548,-3.4797,-3.4341,-3.3203,-3.312,-3.2582,-3.1443,-3.1381,-3.1381,-3.1381,-3.1381,-3.1443,-3.1588,-3.0325,-3.0444,0.0,-3.0348,0.0,0.0,0.0,0.0,0.0,0.0,0.0,0.0,-3.9311,-3.9703,-3.9913,-4.1298,-4.1638,-4.0383,-4.0252,-4.0853,-4.2291,-4.25,-4.3101,-4.4513,-4.4748,-4.4748,-4.4748,-4.4748,-4.4748,-4.467,-4.4748,-4.4722,-4.4722,-4.4591,-4.4408,-4.4643,-4.4591,-4.4591,-4.4748,-4.4748,-4.4774,-4.4879,-4.4879,-4.5062,-4.5584,-4.5741,-4.5898,-4.6342,-4.6525,-4.6604,-4.6604,-4.6682,-4.6917,-4.7362,-4.744,-4.7597,-4.8015,-4.8094,-4.7806,-4.7022,-4.6813,-4.6865,-3.1112,-3.1133,-3.1215,-3.1236,-3.1236,-3.1153,-3.1174,-3.1236,-3.1236,-3.1298,-3.1402,-3.1754,-3.1919,-3.194,-3.2313,-3.2478,-3.2478,-3.2561,-3.2602,-3.2602,-3.2706,-3.2913,-3.3244,-3.3265,-3.3451,-3.3803,-3.3886,-3.3948,-3.3948,-3.4031,-3.3699,-3.2996,-3.2996,-3.2478,-3.1526,0.0,0.0,0.0,-3.252,-3.3389,-3.3596,-3.2664,-3.2023,-3.1754,-3.1754,0.0,-3.1402,-3.1381,-3.1381,-3.1381,-3.1381,0.0,0.0,0.0,0.0,0.0,0.0,0.0,0.0,0.0,0.0,0.0,-3.86,-3.8644,-3.8955,-3.9329,-4.02,-4.1533,-4.1977,-4.2605,-4.365,-4.3755,-4.3885,-4.4199,-4.4225,-4.4382,-4.4696,-4.4748,-4.4748,-4.4748,-4.4748,-4.4748,-4.4748,-4.4748,-4.4748,-4.4748,-4.4748,-4.4748,-4.4748,-4.4748,-4.4748,-4.4748,-4.4774,-4.4931,-4.5375,-4.5454,-4.5637,-4.6159,-4.6316,-4.6369,-4.6525,-4.6917,-4.7153,-4.7179,-4.7545,-4.7858,-4.7989,-4.8015,-4.8015,-4.8172,-4.8172,-4.812,-4.7911,-4.7858,-4.7885,-3.1381,0.0,-3.1629,-3.1712,0.0,-3.194,-3.2043,-3.2023,-3.1795,-3.1836,-3.2064,-3.2271,-3.2375,-3.2395,-3.2623,-3.2727,-3.2747,-3.2954,-3.3037,-3.3058,-3.3285,-3.3492,-3.372,-3.372,-3.3844,-3.4072,-3.43,-3.4403,-3.4424,-3.4631,-3.4507,-3.4072,-3.4051,-3.3824,-3.3368,-3.3368,-3.3037,-3.2375,-3.3037,-3.3699,-3.432,-3.372,-3.3058,-3.2416,0.0,0.0,0.0,0.0,0.0,0.0,0.0,0.0,0.0,0.0,0.0,-3.3077,-3.2878,-3.3741,-3.5726,-3.6861,-3.8251,-3.9904,-4.0974,-4.126,-4.0707,-4.1537,-4.25,-4.3337,-4.3441,-4.3781,-4.4617,-4.4748,-4.4748,-4.4748,-4.4748,-4.4748,-4.4748,-4.4748,-4.4748,-4.4748,-4.4748,-4.4748,-4.4748,-4.4748,-4.4748,-4.4748,-4.4748,-4.4748,-4.4748,-4.4748,-4.48,-4.5114,-4.5166,-4.5375,-4.5898,-4.6055,-4.6238,-4.6734,-4.6891,-4.7022,-4.7283,-4.7545,-4.7754,-4.778,-4.7989,-4.8172,-4.8172,-4.8172,-4.8172,-4.8172,-4.8172,-4.8172,-4.8172,-4.8172,-4.8172,-3.1609,-3.165,-3.2002,-3.2168,-3.2188,-3.2582,-3.2768,-3.2809,0.0,0.0,0.0,-3.2727,-3.2768,-3.2851,-3.2851,-3.2892,-3.2996,-3.3327,-3.3492,-3.3513,-3.3886,-3.4113,-3.4196,-3.4196,-3.4238,-3.432,-3.4693,-3.4879,-3.49,-3.5252,-3.5418,-3.5418,-3.5418,-3.5418,-3.5418,-3.5418,-3.4859,-3.3782,-3.3492,-3.3927,-3.5024,-3.4838,-3.4176,-3.3037,-3.3016,-3.2499,-3.1422,-3.136,-3.136,-3.1381,-3.1381,-3.1485,-3.1712,-3.1733,-3.2259,-3.3112,-3.3243,-3.4294,-3.668,-3.778,-3.9236,-4.1004,-4.2961,-4.3635,-4.2709,-4.3912,-4.4748,-4.4748,-4.4748,-4.4722,-4.4748,-4.4748,-4.4748,-4.4748,-4.4748,-4.4748,-4.4748,-4.4748,-4.4748,-4.4748,-4.4748,-4.4748,-4.4748,-4.4748,-4.4748,-4.4748,-4.4748,-4.4774,-4.4853,-4.4931,-4.514,-4.5663,-4.5767,-4.5976,-4.6473,-4.663,-4.6865,-4.7362,-4.7492,-4.7649,-4.8041,-4.8172,-4.8172,-4.812,-4.8172,-4.8172,-4.8172,-4.8172,-4.8172,-4.8172,-4.8277,-4.8329,-4.8355,-4.8433,-4.846,-3.254,-3.254,-3.2602,-3.2644,-3.2644,-3.2706,-3.2934,-3.3244,-3.283,-3.2685,-3.2727,-3.2727,-3.2954,-3.3285,-3.3285,-3.3513,-3.3865,-3.3948,-3.3969,0.0,-3.4031,-3.4279,-3.4652,-3.4652,-3.4859,-3.5211,-3.5293,-3.5314,-3.5335,-3.5397,-3.5418,-3.5418,-3.5418,-3.5418,-3.5418,-3.5418,-3.5335,-3.5107,-3.3989,-3.3472,-3.3637,-3.254,-3.1857,-3.1692,-3.1692,-3.1567,-3.1381,-3.1402,-3.1381,-3.1381,-3.1381,-3.1899,-3.3016,-3.3099,-3.3734,-3.4956,-3.5081,-3.5628,-3.71,-3.7339,-3.8589,-4.1257,-4.3159,-4.4318,-4.4408,-4.4591,-4.4748,-4.4748,-4.4748,-4.4748,-4.4748,-4.4748,-4.4748,-4.4748,-4.4748,-4.4748,-4.4748,-4.4748,-4.4748,-4.4748,-4.4748,-4.4748,-4.4748,-4.4748,-4.4748,-4.4748,-4.4879,-4.4957,-4.5428,-4.5506,-4.5741,-4.6212,-4.6342,-4.6604,-4.7074,-4.7205,-4.744,-4.7963,-4.8015,-4.8041,-4.8146,-4.8172,-4.8172,-4.8172,-4.8172,-4.8198,-4.8198,-4.8172,-4.825,-4.8329,-4.8643,-4.893,-4.8956,-4.927,-4.9296,-3.2727,-3.2727,-3.2727,-3.2871,-3.3099,-3.3348,-3.3575,-3.372,-3.3534,-3.3451,-3.3451,-3.3451,-3.3575,-3.3741,-3.3741,-3.3865,-3.4072,-3.432,-3.4445,-3.4465,-3.4693,-3.4921,-3.5107,-3.5128,-3.5211,-3.5418,-3.5418,-3.5418,-3.5418,-3.5418,-3.5418,-3.5418,-3.5418,-3.5418,-3.5418,-3.5418,-3.5418,-3.5397,-3.4817,-3.4486,-3.4465,-3.3886,-3.3575,-3.3575,-3.3555,-3.3555,-3.3575,-3.3575,-3.3575,-3.3575,-3.3575,-3.3844,-3.4445,-3.4486,-3.4776,-3.5376,-3.5418,-3.5665,-3.6258,-3.755,-3.9311,-4.1623,-4.3159,-4.4313,-4.4639,-4.4748,-4.4748,-4.4748,-4.4748,-4.4748,-4.4748,-4.4748,-4.4748,-4.4748,-4.4748,-4.4748,-4.4748,-4.4748,-4.4748,-4.4748,-4.4748,-4.4748,-4.4748,-4.4748,-4.4879,-4.514,-4.5428,-4.5898,-4.6421,-4.6552,-4.663,-4.6891,-4.697,-4.7179,-4.7675,-4.778,-4.7911,-4.8172,-4.8172,-4.8172,-4.8172,-4.8172,-4.8172,-4.8172,-4.8172,-4.8329,-4.8564,-4.8669,-4.8773,-4.9087,-4.9296,-4.9505,-4.9557,-4.974,-4.9662,-3.2871,-3.2871,-3.2996,-3.3223,-3.3555,-3.3906,-3.4134,-3.4217,-3.4217,-3.4279,-3.4341,-3.4176,-3.4134,-3.4217,-3.4217,-3.4279,-3.4403,-3.4734,-3.49,-3.4941,-3.5252,-3.5418,-3.5418,-3.5418,-3.5418,-3.5418,-3.5418,-3.5418,-3.5418,-3.5418,-3.5418,-3.5418,-3.5418,-3.5418,-3.5418,-3.5418,-3.5418,-3.5418,-3.5418,-3.5418,-3.5418,-3.5418,-3.5418,-3.5418,-3.5397,-3.5418,-3.5418,-3.5418,-3.5418,-3.5418,-3.5418,-3.5418,-3.5418,-3.5418,-3.5418,-3.5418,-3.5418,-3.5418,-3.5541,-3.7812,-3.9779,-4.1281,-4.2936,-4.3984,-4.4422,-4.4613,-4.4639,-4.4748,-4.4748,-4.4748,-4.4748,-4.4748,-4.4748,-4.4748,-4.4748,-4.4748,-4.4748,-4.4748,-4.4748,-4.4748,-4.4826,-4.4957,-4.4957,-4.5036,-4.5323,-4.5794,-4.6316,-4.6839,-4.7257,-4.7414,-4.7519,-4.7519,-4.7519,-4.7675,-4.812,-4.8146,-4.8172,-4.8172,-4.8172,-4.8172,-4.8172,-4.8172,-4.8277,-4.8355,-4.8407,-4.8669,-4.9113,-4.927,-4.9401,-4.9714,-4.9949,-5.0132,-5.0289,-5.0342,-5.0237,-3.3306,-3.3389,-3.3741,-3.3969,-3.401,-3.4072,-3.432,-3.4672,-3.4693,-3.4941,-3.5169,-3.4424,-3.432,-3.4672,-3.4693,-3.49,-3.5231,-3.5335,-3.5355,-3.5335,-3.5397,-3.5418,-3.5418,-3.5418,-3.5418,-3.5418,-3.5418,-3.5418,-3.5418,-3.5418,-3.5418,-3.5418,-3.5418,-3.5418,-3.5418,-3.5418,-3.5418,-3.5418,-3.5418,-3.5418,-3.5418,-3.5418,-3.5418,-3.5418,-3.5418,-3.5418,-3.5418,-3.5418,-3.5418,-3.5418,-3.5418,-3.5418,-3.5418,-3.5418,-3.5418,-3.5418,-3.5418,-3.5418,-3.5541,-3.779,-3.9216,-3.9569,-4.1987,-4.3628,-4.401,-4.4203,-4.4422,-4.4639,-4.4748,-4.4748,-4.4748,-4.4748,-4.4748,-4.4748,-4.4748,-4.4748,-4.4774,-4.4748,-4.4748,-4.4748,-4.5271,-4.5558,-4.5584,-4.595,-4.629,-4.6369,-4.6891,-4.7283,-4.7414,-4.7754,-4.8015,-4.8041,-4.8094,-4.8094,-4.8172,-4.8172,-4.8172,-4.8172,-4.8172,-4.8224,-4.825,-4.8277,-4.8329,-4.8904,-4.8982,-4.9191,-4.961,-4.9819,-4.9845,-5.0132,-5.0446,-5.0838,-5.1256,-5.1335,-5.1152,-3.3782,-3.3803,-3.3989,-3.4238,-3.4486,-3.4755,-3.4983,-3.5148,-3.5148,-3.5252,-3.5376,-3.5024,-3.4983,-3.5148,-3.5148,-3.5252,-3.5418,-3.5418,-3.5418,-3.5418,-3.5418,-3.5418,-3.5418,-3.5418,-3.5418,-3.5418,-3.5418,-3.5418,-3.5418,-3.5418,-3.5418,-3.5418,-3.5418,-3.5418,-3.5418,-3.5418,-3.5418,-3.5418,-3.5418,-3.5418,-3.5418,-3.5418,-3.5418,-3.5418,-3.5418,-3.5418,-3.5418,-3.5418,-3.5418,-3.5418,-3.5418,-3.5418,-3.5418,-3.5418,-3.5418,-3.5418,-3.5418,-3.5418,-3.5418,-3.7067,-3.8506,-3.9451,-4.1191,-4.2799,-4.3984,-4.4203,-4.4422,-4.4639,-4.4748,-4.4748,-4.4748,-4.4748,-4.4748,-4.4748,-4.4748,-4.4879,-4.5218,-4.5245,-4.5349,-4.5689,-4.5976,-4.6133,-4.6212,-4.663,-4.6944,-4.7048,-4.7466,-4.778,-4.7832,-4.8041,-4.8146,-4.8172,-4.8172,-4.8172,-4.8172,-4.8172,-4.8172,-4.8172,-4.8172,-4.8224,-4.8643,-4.8721,-4.8904,-4.9453,-4.9557,-4.9793,-5.0342,-5.0446,-5.0472,-5.0707,-5.0969,-5.1361,-5.157,-5.1596,-5.1465,-3.4258,-3.4279,-3.4383,-3.4631,-3.4962,-3.5293,-3.5418,-3.5418,-3.5418,-3.5418,-3.5418,-3.5418,-3.5418,-3.5418,-3.5418,-3.5418,-3.5418,-3.5418,-3.5418,-3.5418,-3.5418,-3.5418,-3.5418,-3.5418,-3.5418,-3.5418,-3.5418,-3.5418,-3.5418,-3.5418,-3.5418,-3.5418,-3.5418,-3.5418,-3.5418,-3.5418,-3.5418,-3.5418,-3.5418,-3.5418,-3.5418,-3.5418,-3.5418,-3.5418,-3.5418,-3.5418,-3.5418,-3.5418,-3.5418,-3.5418,-3.5418,-3.5418,-3.5418,-3.5418,-3.5418,-3.5418,-3.5418,-3.5418,-3.5418,-3.6946,-3.8365,-3.9569,-4.0961,-4.2575,-4.3848,-4.4203,-4.439,-4.49,-4.4983,-4.4957,-4.4748,-4.4879,-4.4983,-4.4983,-4.5088,-4.5401,-4.5794,-4.5846,-4.6003,-4.6421,-4.6578,-4.6787,-4.697,-4.731,-4.7571,-4.7623,-4.7911,-4.8172,-4.8172,-4.8172,-4.8172,-4.8172,-4.8172,-4.8172,-4.8172,-4.8172,-4.8198,-4.8433,-4.8486,-4.8695,-4.9165,-4.927,-4.9505,-5.0002,-5.008,-5.0342,-5.0838,-5.1021,-5.1021,-5.1413,-5.1596,-5.157,-5.1596,-5.1596,-5.1596,-3.4734,-3.4797,-3.519,-3.5335,-3.5397,-3.5397,-3.5418,-3.5418,-3.5418,-3.5418,-3.5418,-3.5418,-3.5418,-3.5418,-3.5418,-3.5418,-3.5418,-3.5418,-3.5418,-3.5418,-3.5418,-3.5418,-3.5418,-3.5418,-3.5418,-3.5418,-3.5418,-3.5418,-3.5418,-3.5418,-3.5418,-3.5418,-3.5418,-3.5418,-3.5418,-3.5418,-3.5418,-3.5418,-3.5418,-3.5418,-3.5418,-3.5418,-3.5418,-3.5418,-3.5418,-3.5418,-3.5418,-3.5418,-3.5418,-3.5418,-3.5418,-3.5418,-3.5418,-3.5418,-3.5418,-3.5418,-3.5418,-3.5418,-3.5665,-3.7473,-3.9026,-3.9474,-4.1311,-4.3123,-4.3806,-4.4053,-4.4591,-4.5422,-4.5584,-4.5375,-4.4983,-4.5323,-4.5584,-4.5611,-4.6055,-4.6316,-4.6421,-4.6447,-4.6447,-4.663,-4.7022,-4.744,-4.7963,-4.812,-4.8094,-4.8068,-4.8146,-4.8172,-4.8172,-4.8172,-4.8172,-4.8198,-4.8224,-4.8198,-4.8198,-4.8329,-4.8538,-4.8747,-4.8956,-4.9218,-4.9584,-4.9923,-5.0237,-5.0524,-5.0655,-5.0943,-5.1361,-5.1544,-5.1492,-5.1596,-5.1596,-5.1596,-5.1596,-5.1596,-5.1596,-3.519,-3.519,-3.5355,-3.5418,-3.5418,-3.5418,-3.5418,-3.5418,-3.5418,-3.5418,-3.5418,-3.5418,-3.5418,-3.5418,-3.5418,-3.5418,-3.5418,-3.5418,-3.5418,-3.5418,-3.5418,-3.5418,-3.5418,-3.5418,-3.5418,-3.5418,-3.5418,-3.5418,-3.5418,-3.5418,-3.5418,-3.5418,-3.5418,-3.5418,-3.5418,-3.5418,-3.5418,-3.5418,-3.5418,-3.5418,-3.5418,-3.5418,-3.5418,-3.5418,-3.5418,-3.5418,-3.5418,-3.5418,-3.5418,-3.5418,-3.5418,-3.5418,-3.5418,-3.5418,-3.5418,-3.5418,-3.5418,-3.5418,-3.5583,-3.6533,-3.7544,-3.8519,-4.0356,-4.2297,-4.3507,-4.4472,-4.5278,-4.6021,-4.6186,-4.6055,-4.5976,-4.6055,-4.6186,-4.6186,-4.6342,-4.6656,-4.6917,-4.7022,-4.7153,-4.7492,-4.778,-4.7963,-4.8094,-4.8172,-4.8172,-4.8172,-4.8172,-4.8172,-4.8172,-4.8172,-4.8224,-4.825,-4.8512,-4.8773,-4.8747,-4.8773,-4.8878,-4.9087,-4.9322,-4.9845,-5.0237,-5.042,-5.0707,-5.1021,-5.1204,-5.1256,-5.157,-5.157,-5.1596,-5.1596,-5.1596,-5.1596,-5.1596,-5.1596,-5.1596,-3.5418,-3.5418,-3.5418,-3.5418,-3.5418,-3.5418,-3.5418,-3.5418,-3.5418,-3.5418,-3.5418,-3.5418,-3.5418,-3.5418,-3.5418,-3.5418,-3.5418,-3.5418,-3.5418,-3.5418,-3.5418,-3.5418,-3.5418,-3.5418,-3.5418,-3.5418,-3.5418,-3.5418,-3.5418,-3.5418,-3.5418,-3.5418,-3.5418,-3.5418,-3.5418,-3.5418,-3.5418,-3.5418,-3.5418,-3.5418,-3.5418,-3.5418,-3.55,-3.5625,-3.5645,-3.5562,-3.5438,-3.5418,-3.5418,-3.5438,-3.5562,-3.5707,-3.5852,-3.5873,-3.5873,-3.5873,-3.5873,-3.5873,-3.5894,-3.652,-3.7545,-3.8763,-4.0357,-4.2041,-4.3844,-4.4965,-4.5871,-4.6456,-4.6761,-4.6787,-4.6996,-4.7022,-4.6944,-4.6839,-4.6917,-4.7179,-4.7545,-4.7597,-4.778,-4.8015,-4.812,-4.8172,-4.8172,-4.8172,-4.8172,-4.8172,-4.8172,-4.8172,-4.8172,-4.8355,-4.8486,-4.8538,-4.8982,-4.927,-4.9427,-4.9531,-4.9688,-4.9871,-4.9923,-5.042,-5.076,-5.0943,-5.11,-5.1465,-5.1596,-5.1596,-5.1596,-5.1596,-5.1596,-5.1596,-5.1596,-5.1596,-5.1596,-5.1596,-5.1596,-3.5418,-3.5418,-3.5418,-3.5418,-3.5418,-3.5418,-3.5418,-3.5418,-3.5418,-3.5418,-3.5418,-3.5418,-3.5418,-3.5418,-3.5418,-3.5418,-3.5418,-3.5418,-3.5418,-3.5418,-3.5418,-3.5418,-3.5418,-3.5418,-3.5418,-3.5418,-3.5418,-3.5418,-3.5418,-3.5418,-3.5418,-3.5418,-3.5418,-3.5418,-3.5418,-3.5418,-3.5418,-3.5438,-3.5459,-3.548,-3.5438,-3.5521,-3.5749,-3.608,-3.6121,-3.5935,-3.5521,-3.55,-3.5562,-3.5562,-3.5894,-3.6328,-3.6618,-3.668,-3.6742,-3.668,-3.6742,-3.6763,-3.6871,-3.7868,-3.9001,-4.0241,-4.1751,-4.3238,-4.4586,-4.5399,-4.6039,-4.6797,-4.7132,-4.7519,-4.7937,-4.8015,-4.7832,-4.7492,-4.7702,-4.7989,-4.8094,-4.8146,-4.8172,-4.8172,-4.8172,-4.8172,-4.8172,-4.8172,-4.8172,-4.8172,-4.825,-4.8303,-4.8381,-4.8747,-4.9035,-4.9191,-4.9531,-4.9897,-5.0132,-5.0342,-5.0577,-5.076,-5.0734,-5.0943,-5.1204,-5.1387,-5.1361,-5.1596,-5.1596,-5.1596,-5.1596,-5.1596,-5.1596,-5.1596,-5.1596,-5.1596,-5.1596,-5.1596,-5.1596,-3.5046,-3.5046,-3.5294,-3.5418,-3.5418,-3.5418,-3.5418,-3.5418,-3.5418,-3.5418,-3.5418,-3.5418,-3.5418,-3.5418,-3.5418,-3.5418,-3.5418,-3.5418,-3.5418,-3.5418,-3.5418,-3.5418,-3.5418,-3.5418,-3.5418,-3.5418,-3.5418,-3.5418,-3.5418,-3.5418,-3.5418,-3.5418,-3.5418,-3.5418,-3.5418,-3.5418,-3.5418,-3.5459,-3.5749,-3.5894,-3.5935,-3.6204,-3.6453,-3.6556,-3.6577,-3.6515,-3.639,-3.637,-3.637,-3.6349,-3.6515,-3.666,-3.6784,-3.6804,-3.6804,-3.6804,-3.6804,-3.6804,-3.6974,-3.821,-3.9379,-4.0285,-4.228,-4.3868,-4.4861,-4.5723,-4.6652,-4.7302,-4.7561,-4.7782,-4.8146,-4.8172,-4.8094,-4.7937,-4.8068,-4.8172,-4.8172,-4.8172,-4.8172,-4.8172,-4.8172,-4.8172,-4.8198,-4.8198,-4.8224,-4.8277,-4.8538,-4.8799,-4.8878,-4.927,-4.961,-4.9688,-5.0132,-5.0498,-5.0655,-5.0838,-5.1073,-5.1178,-5.1178,-5.1204,-5.1465,-5.1596,-5.1596,-5.1596,-5.1596,-5.1596,-5.1596,-5.1596,-5.1596,-5.1596,-5.1596,-5.1596,-5.1596,-5.1596,-5.1596,-3.4922,-3.5046,-3.5294,-3.5418,-3.5418,-3.5418,-3.5418,-3.5418,-3.5418,-3.5418,-3.5418,-3.5418,-3.5418,-3.5418,-3.5294,-3.5294,-3.5418,-3.5294,-3.5294,-3.5418,-3.5418,-3.5418,-3.5418,-3.5294,-3.5294,-3.5294,-3.5294,-3.5294,-3.5418,-3.5418,-3.5418,-3.5418,-3.5418,-3.5418,-3.5459,-3.5583,-3.5687,-3.5749,-3.6142,-3.637,-3.6411,-3.666,-3.6887,-3.7032,-3.7053,-3.7156,-3.7281,-3.7322,-3.7156,-3.6929,-3.6949,-3.7136,-3.7281,-3.7343,-3.7322,-3.7322,-3.7322,-3.7322,-3.7473,-3.8354,-3.9239,-4.0056,-4.1661,-4.3083,-4.3831,-4.511,-4.6225,-4.6465,-4.718,-4.7703,-4.7938,-4.8055,-4.8055,-4.8172,-4.8172,-4.8172,-4.8172,-4.8172,-4.8172,-4.8172,-4.8172,-4.8172,-4.8198,-4.846,-4.8486,-4.859,-4.9008,-4.9374,-4.9505,-4.9871,-5.008,-5.0342,-5.0734,-5.0995,-5.11,-5.1309,-5.1544,-5.1544,-5.1518,-5.1492,-5.1596,-5.1596,-5.1596,-5.1596,-5.1596,-5.1596,-5.1596,-5.1596,-5.1596,-5.1596,-5.1596,-5.1596,-5.1596,-5.1596,-5.1648,-3.5046,-3.5294,-3.5294,-3.5294,-3.5294,-3.5294,-3.5294,-3.5294,-3.5294,-3.5294,-3.5294,-3.5294,-3.5294,-3.5294,-3.5046,-3.5046,-3.5294,-3.5046,-3.5046,-3.5294,-3.5294,-3.5294,-3.5294,-3.5046,-3.5046,-3.5294,-3.517,-3.517,-3.5418,-3.5418,-3.5418,-3.5418,-3.548,-3.548,-3.5604,-3.5935,-3.6163,-3.6204,-3.6597,-3.6846,-3.6867,-3.6929,-3.7115,-3.7508,-3.7529,-3.7695,-3.7984,-3.8026,-3.7715,-3.7074,-3.7363,-3.7695,-3.8046,-3.8171,-3.8088,-3.8067,-3.815,-3.8088,-3.815,-3.8444,-3.8993,-3.9996,-4.0666,-4.0817,-4.2454,-4.3955,-4.4964,-4.5086,-4.632,-4.7324,-4.7703,-4.7703,-4.7821,-4.8172,-4.8172,-4.8172,-4.8172,-4.8172,-4.8172,-4.8198,-4.8198,-4.825,-4.8355,-4.8799,-4.9061,-4.9218,-4.9584,-4.9871,-5.0054,-5.0394,-5.0734,-5.1021,-5.123,-5.1309,-5.1361,-5.1413,-5.1596,-5.1596,-5.1596,-5.1596,-5.1596,-5.1596,-5.1596,-5.1596,-5.1596,-5.1596,-5.1596,-5.1596,-5.1596,-5.1596,-5.1596,-5.1596,-5.1727,-5.1884,-5.2119,-3.4548,-3.4673,-3.4922,-3.4922,-3.4673,-3.4922,-3.5046,-3.5046,-3.5046,-3.5046,-3.5046,-3.4797,-3.4673,-3.4673,-3.4797,-3.4922,-3.4922,-3.4922,-3.4922,-3.4922,-3.4797,-3.4797,-3.5046,-3.4922,-3.4922,-3.5046,-3.517,-3.5294,-3.5418,-3.5459,-3.5459,-3.5438,-3.579,-3.5935,-3.5997,-3.639,-3.6597,-3.668,-3.7074,-3.7322,-3.7363,-3.7632,-3.786,-3.7984,-3.7984,-3.8046,-3.8171,-3.8191,-3.8109,-3.7881,-3.7922,-3.8046,-3.8171,-3.8191,-3.8191,-3.8191,-3.8191,-3.8191,-3.8437,-3.9057,-3.9823,-4.0214,-4.0817,-4.1843,-4.2201,-4.3482,-4.435,-4.4841,-4.601,-4.7112,-4.7586,-4.7703,-4.7821,-4.8055,-4.8224,-4.8224,-4.8172,-4.8172,-4.8172,-4.8224,-4.859,-4.8799,-4.8956,-4.9296,-4.9662,-4.9766,-5.0132,-5.0551,-5.0655,-5.089,-5.1256,-5.1361,-5.1518,-5.1544,-5.157,-5.157,-5.1596,-5.1596,-5.1596,-5.1596,-5.1596,-5.1596,-5.1596,-5.1596,-5.1596,-5.1596,-5.1596,-5.1596,-5.1596,-5.1727,-5.2014,-5.2223,-5.2406,-5.2589,-5.2851,-3.4298,-3.4423,-3.4673,-3.4548,-3.4423,-3.4673,-3.4673,-3.4673,-3.4673,-3.4673,-3.4673,-3.4548,-3.4423,-3.4423,-3.4423,-3.4548,-3.4673,-3.4548,-3.4548,-3.4673,-3.4423,-3.4423,-3.4797,-3.4797,-3.4797,-3.5046,-3.517,-3.5314,-3.548,-3.5604,-3.5707,-3.5811,-3.6163,-3.639,-3.6432,-3.6846,-3.7094,-3.7177,-3.7529,-3.7777,-3.7819,-3.8046,-3.815,-3.8191,-3.8191,-3.8191,-3.8191,-3.8191,-3.8191,-3.8171,-3.8191,-3.8191,-3.8191,-3.8191,-3.8191,-3.8191,-3.8191,-3.8191,-3.8304,-3.8946,-3.932,-3.9451,-4.0192,-4.0452,-4.071,-4.1715,-4.273,-4.2832,-4.462,-4.5743,-4.6465,-4.7205,-4.7703,-4.7964,-4.829,-4.8433,-4.825,-4.8433,-4.8538,-4.8695,-4.9035,-4.9427,-4.9427,-4.9923,-5.0185,-5.0368,-5.076,-5.0995,-5.1178,-5.1465,-5.1596,-5.1596,-5.1596,-5.1596,-5.1596,-5.1596,-5.1596,-5.1596,-5.1596,-5.1596,-5.1596,-5.1596,-5.1596,-5.1596,-5.1596,-5.1622,-5.1675,-5.1805,-5.2014,-5.225,-5.2589,-5.2851,-5.3008,-5.3243,-5.353,-3.4047,-3.4298,-3.4298,-3.4298,-3.4298,-3.4298,-3.4298,-3.4298,-3.4298,-3.4298,-3.4298,-3.4298,-3.4173,-3.4298,-3.4047,-3.4047,-3.4298,-3.4047,-3.4173,-3.4173,-3.4047,-3.4298,-3.4673,-3.4548,-3.4673,-3.5046,-3.4922,-3.5107,-3.5355,-3.581,-3.5995,-3.614,-3.6639,-3.6846,-3.697,-3.7343,-3.7529,-3.7632,-3.7902,-3.8088,-3.8109,-3.8171,-3.8191,-3.8191,-3.8191,-3.8191,-3.8191,-3.8191,-3.8191,-3.8191,-3.8191,-3.8191,-3.8191,-3.8191,-3.8191,-3.8191,-3.8191,-3.8191,-3.8191,-3.8304,-3.8304,-3.8437,-3.8437,-3.8191,-3.8814,-3.9823,-4.071,-4.0839,-4.273,-4.462,-4.5476,-4.6704,-4.7519,-4.7885,-4.8536,-4.8655,-4.8616,-4.8852,-4.9165,-4.9191,-4.9636,-4.9923,-5.0132,-5.0446,-5.0864,-5.0864,-5.1204,-5.1309,-5.1413,-5.1518,-5.1596,-5.1596,-5.1596,-5.1596,-5.1596,-5.1596,-5.1596,-5.1596,-5.1596,-5.1596,-5.1596,-5.1596,-5.1596,-5.1596,-5.1596,-5.1701,-5.1858,-5.2067,-5.238,-5.2746,-5.3086,-5.3321,-5.3504,-5.3792,-5.4079,-3.3922,-3.4047,-3.4047,-3.3922,-3.367,-3.3922,-3.4047,-3.4047,-3.4047,-3.4047,-3.3922,-3.3796,-3.367,-3.367,-3.3796,-3.3922,-3.4047,-3.3922,-3.3796,-3.367,-3.3796,-3.4047,-3.4423,-3.4443,-3.4568,-3.4693,-3.4797,-3.498,-3.5285,-3.5616,-3.5927,-3.6295,-3.6965,-3.7343,-3.7405,-3.7625,-3.8046,-3.8067,-3.815,-3.8171,-3.8191,-3.8191,-3.8191,-3.8191,-3.8191,-3.8191,-3.8191,-3.8191,-3.8191,-3.8191,-3.8191,-3.8191,-3.8191,-3.8191,-3.8191,-3.8191,-3.8191,-3.8191,-3.8191,-3.8191,-3.8191,-3.8191,-3.8191,-3.8191,-3.8325,-3.932,-4.0084,-4.071,-4.2603,-4.462,-4.6084,-4.6874,-4.7462,-4.794,-4.8438,-4.8911,-4.9118,-4.9515,-4.9714,-4.9845,-5.0211,-5.0603,-5.0629,-5.1021,-5.1309,-5.1413,-5.1492,-5.1596,-5.1596,-5.1596,-5.1596,-5.1596,-5.1596,-5.1596,-5.1596,-5.1596,-5.1596,-5.1596,-5.1596,-5.1596,-5.1596,-5.1753,-5.1805,-5.1727,-5.1596,-5.1805,-5.2197,-5.2433,-5.2772,-5.3191,-5.3609,-5.387,-5.4105,-5.4393,-5.4524,-3.367,-3.367,-3.367,-3.3544,-3.3418,-3.3544,-3.367,-3.367,-3.367,-3.367,-3.367,-3.3418,-3.3418,-3.3418,-3.3544,-3.367,-3.367,-3.367,-3.3544,-3.3418,-3.3544,-3.3796,-3.4253,-3.4392,-3.4619,-3.4871,-3.4997,-3.5113,-3.5457,-3.5739,-3.6261,-3.6595,-3.7044,-3.7381,-3.7534,-3.7647,-3.7729,-3.7883,-3.7904,-3.8037,-3.8191,-3.8191,-3.8191,-3.8191,-3.8191,-3.8191,-3.8191,-3.8191,-3.8191,-3.8191,-3.8191,-3.8191,-3.8191,-3.8191,-3.8191,-3.8191,-3.8191,-3.8191,-3.8191,-3.8191,-3.8191,-3.8191,-3.8191,-3.8191,-3.8325,-3.8946,-3.921,-3.9823,-4.1738,-4.4199,-4.6627,-4.7161,-4.7656,-4.8237,-4.884,-4.9271,-4.9748,-5.0071,-5.0315,-5.042,-5.0812,-5.1073,-5.1309,-5.1465,-5.1518,-5.1518,-5.1518,-5.1596,-5.1596,-5.1596,-5.1596,-5.1596,-5.1596,-5.1596,-5.1596,-5.1596,-5.1596,-5.1596,-5.1596,-5.1596,-5.1596,-5.1831,-5.2067,-5.1988,-5.1988,-5.238,-5.2746,-5.2955,-5.3269,-5.3713,-5.4105,-5.4419,-5.4628,-5.4759,-5.4837,-3.3418,-3.3418,-3.3418,-3.3418,-3.3418,-3.3418,-3.3418,-3.3418,-3.3418,-3.3418,-3.3418,-3.3418,-3.3418,-3.3418,-3.3418,-3.3418,-3.3418,-3.3418,-3.3418,-3.3418,-3.3544,-3.3749,-3.412,-3.4485,-3.4932,-3.5503,-3.5228,-3.532,-3.5591,-3.6062,-3.6314,-3.68,-3.6991,-3.7266,-3.7461,-3.7348,-3.7348,-3.7616,-3.7616,-3.7904,-3.8171,-3.8191,-3.8191,-3.8191,-3.8191,-3.8191,-3.8191,-3.8191,-3.8191,-3.8191,-3.8191,-3.8191,-3.8191,-3.8191,-3.8191,-3.8191,-3.8191,-3.8191,-3.8191,-3.8191,-3.8191,-3.8191,-3.8191,-3.8191,-3.8191,-3.8325,-3.8437,-3.912,-4.0691,-4.3182,-4.6019,-4.6786,-4.7332,-4.8057,-4.8988,-4.9768,-5.0271,-5.0519,-5.0643,-5.0943,-5.1178,-5.1387,-5.1465,-5.157,-5.1596,-5.1596,-5.1596,-5.1596,-5.1596,-5.1596,-5.1596,-5.1596,-5.1596,-5.1596,-5.1596,-5.1596,-5.1596,-5.1727,-5.1701,-5.1805,-5.1858,-5.2276,-5.2563,-5.2459,-5.2563,-5.2929,-5.3295,-5.3583,-5.3922,-5.4314,-5.455,-5.4785,-5.4942,-5.5072,-5.5099,-3.3418,-3.3418,-3.3418,-3.3418,-3.3418,-3.3418,-3.3418,-3.3418,-3.3418,-3.3418,-3.3418,-3.3418,-3.3418,-3.3418,-3.3418,-3.3418,-3.3418,-3.3418,-3.3418,-3.3418,-3.3603,-3.3994,-3.427,-3.4655,-3.5012,-3.556,-3.552,-3.5409,-3.5574,-3.5732,-3.6236,-3.6629,-3.6884,-3.7079,-3.7079,-3.7079,-3.7213,-3.7482,-3.7482,-3.777,-3.8037,-3.8191,-3.8191,-3.8191,-3.8191,-3.8191,-3.8191,-3.8191,-3.8191,-3.8191,-3.8191,-3.8191,-3.8191,-3.8191,-3.8191,-3.8191,-3.8191,-3.8191,-3.8191,-3.8191,-3.8191,-3.8191,-3.8191,-3.8191,-3.8191,-3.8191,-3.8345,-3.8849,-4.0102,-4.1898,-4.3345,-4.5453,-4.6318,-4.714,-4.8457,-4.9621,-5.0053,-5.0409,-5.0761,-5.1112,-5.1393,-5.1596,-5.1471,-5.1596,-5.1596,-5.1596,-5.1596,-5.1596,-5.1596,-5.1596,-5.1596,-5.1596,-5.1596,-5.1596,-5.1596,-5.1596,-5.1622,-5.1858,-5.1988,-5.2302,-5.2485,-5.2929,-5.3112,-5.3034,-5.3138,-5.3478,-5.3844,-5.4184,-5.4419,-5.4707,-5.4916,-5.5099,-5.5099,-5.5099,-5.5099,-3.3418,-3.3418,-3.3418,-3.3418,-3.3418,-3.3418,-3.3418,-3.3418,-3.3418,-3.3418,-3.3418,-3.3418,-3.3418,-3.3418,-3.3418,-3.3418,-3.3418,-3.3418,-3.3418,-3.3437,-3.3779,-3.4103,-3.4438,-3.4752,-3.5205,-3.5559,-3.5618,-3.5583,-3.5703,-3.5838,-3.6206,-3.6459,-3.6539,-3.6539,-3.6674,-3.6539,-3.6809,-3.6944,-3.7213,-3.7482,-3.7904,-3.8037,-3.8191,-3.8191,-3.8191,-3.8191,-3.8191,-3.8191,-3.8191,-3.8191,-3.8191,-3.8191,-3.8191,-3.8191,-3.8191,-3.8191,-3.8191,-3.8191,-3.8191,-3.8191,-3.8191,-3.8191,-3.8191,-3.8191,-3.8191,-3.8325,-3.8562,-3.9614,-4.0378,-4.1927,-4.3631,-4.5172,-4.6357,-4.7157,-4.8496,-4.9442,-5.0028,-5.0232,-5.0614,-5.1094,-5.1246,-5.1246,-5.1346,-5.1346,-5.1596,-5.1596,-5.1596,-5.1596,-5.1596,-5.1596,-5.1596,-5.1596,-5.1596,-5.1596,-5.1648,-5.1701,-5.1805,-5.2014,-5.238,-5.2694,-5.3034,-5.3478,-5.3635,-5.3635,-5.3818,-5.4027,-5.4393,-5.4733,-5.4916,-5.502,-5.5046,-5.5099,-5.5099,-5.5099,-5.5099,-3.3418,-3.3418,-3.3418,-3.3418,-3.3418,-3.3418,-3.3418,-3.3418,-3.3418,-3.3418,-3.3418,-3.3418,-3.3418,-3.3418,-3.3418,-3.3418,-3.3418,-3.3418,-3.3476,-3.3652,-3.3887,-3.4101,-3.4551,-3.4961,-3.543,-3.5586,-3.5762,-3.6035,-3.5976,-3.5957,-3.6132,-3.6268,-3.6152,-3.6132,-3.6268,-3.6287,-3.6268,-3.6519,-3.6944,-3.7213,-3.7616,-3.7904,-3.8058,-3.8171,-3.8171,-3.8191,-3.8191,-3.8191,-3.8191,-3.8191,-3.8191,-3.8191,-3.8191,-3.8191,-3.8191,-3.8191,-3.8191,-3.8191,-3.8191,-3.8191,-3.8191,-3.8191,-3.8191,-3.8191,-3.8233,-3.847,-3.8904,-4.0378,-4.0986,-4.1624,-4.2972,-4.51,-4.6154,-4.7077,-4.8322,-4.9719,-4.9847,-4.9976,-5.0104,-5.0487,-5.0741,-5.0994,-5.112,-5.1346,-5.1596,-5.1596,-5.1596,-5.1596,-5.1596,-5.1596,-5.1596,-5.1596,-5.1596,-5.1596,-5.1701,-5.1858,-5.204,-5.2276,-5.2798,-5.3295,-5.3635,-5.4027,-5.4105,-5.4236,-5.4341,-5.455,-5.4916,-5.5099,-5.5072,-5.5072,-5.5072,-5.5099,-5.5099,-5.5099,-5.5099,-3.3418,-3.3418,-3.3418,-3.3418,-3.3418,-3.3418,-3.3418,-3.3418,-3.3418,-3.3418,-3.3418,-3.3418,-3.3418,-3.3418,-3.3418,-3.3418,-3.3418,-3.3496,-3.3652,-3.3906,-3.4141,-3.457,-3.5098,-3.5273,-3.5625,-3.582,-3.5957,-3.6016,-3.6035,-3.6035,-3.6035,-3.6016,-3.6016,-3.6016,-3.6152,-3.6016,-3.6152,-3.6519,-3.6944,-3.7213,-3.7482,-3.7636,-3.777,-3.777,-3.8037,-3.8191,-3.8191,-3.8191,-3.8191,-3.8191,-3.8191,-3.8191,-3.8191,-3.8191,-3.8191,-3.8191,-3.8191,-3.8191,-3.8191,-3.8191,-3.8191,-3.8191,-3.8233,-3.8191,-3.8398,-3.8688,-3.9155,-3.955,-4.0146,-4.0696,-4.1679,-4.3825,-4.4981,-4.6556,-4.8084,-4.9177,-4.9719,-4.9847,-4.9847,-4.9976,-5.0232,-5.0614,-5.0867,-5.1246,-5.1596,-5.1596,-5.1596,-5.1596,-5.1596,-5.1596,-5.1596,-5.1596,-5.1648,-5.1648,-5.1884,-5.204,-5.2433,-5.2668,-5.3191,-5.3818,-5.4184,-5.4471,-5.4733,-5.4837,-5.4889,-5.4863,-5.502,-5.5099,-5.5099,-5.5099,-5.5099,-5.5099,-5.5099,-5.5099,-5.5099,-3.3418,-3.3418,-3.3418,-3.3418,-3.3418,-3.3418,-3.3418,-3.3418,-3.3418,-3.3418,-3.3418,-3.3418,-3.3418,-3.3418,-3.3418,-3.3418,-3.3476,-3.3672,-3.3887,-3.4219,-3.4551,-3.5,-3.5351,-3.5625,-3.5898,-3.5957,-3.6035,-3.6016,-3.6035,-3.6035,-3.6035,-3.6035,-3.6035,-3.6016,-3.6035,-3.6035,-3.6016,-3.6268,-3.6539,-3.6944,-3.7213,-3.7482,-3.7616,-3.7616,-3.7904,-3.8171,-3.8191,-3.8191,-3.8191,-3.8191,-3.8191,-3.8191,-3.8191,-3.8191,-3.8191,-3.8191,-3.8191,-3.8191,-3.8191,-3.8191,-3.8212,-3.8295,-3.8419,-3.8688,-3.8937,-3.933,-3.964,-3.9909,-4.0323,-4.0551,-4.1137,-4.3476,-4.4641,-4.6043,-4.7821,-4.8918,-4.959,-4.959,-4.9719,-4.9719,-4.9847,-5.0232,-5.0614,-5.0741,-5.1094,-5.122,-5.122,-5.122,-5.1346,-5.1596,-5.1596,-5.1596,-5.1675,-5.1727,-5.2067,-5.2328,-5.2955,-5.3295,-5.3635,-5.4184,-5.4602,-5.4916,-5.5046,-5.5099,-5.502,-5.502,-5.5099,-5.5099,-5.5099,-5.5099,-5.5099,-5.5099,-5.5099,-5.5099,-5.5099,-3.3418,-3.3418,-3.3418,-3.3418,-3.3418,-3.3418,-3.3418,-3.3418,-3.3418,-3.3418,-3.3418,-3.3418,-3.3418,-3.3418,-3.3418,-3.3418,-3.3457,-3.3867,-3.4121,-3.4473,-3.4941,-3.5391,-3.5625,-3.5898,-3.5996,-3.6035,-3.6035,-3.6035,-3.6035,-3.6035,-3.6035,-3.6035,-3.6035,-3.6035,-3.6035,-3.6016,-3.6016,-3.6268,-3.6268,-3.6539,-3.6944,-3.7213,-3.7213,-3.7348,-3.7636,-3.7904,-3.8037,-3.8037,-3.8037,-3.8191,-3.8191,-3.8191,-3.8191,-3.8191,-3.8191,-3.8233,-3.8295,-3.8419,-3.8419,-3.8398,-3.8357,-3.8481,-3.8771,-3.9206,-3.964,-4.0054,-4.0323,-4.0365,-4.0613,-4.08,-4.141,-4.347,-4.4823,-4.6177,-4.7821,-4.8787,-4.959,-4.959,-4.959,-4.959,-4.9719,-4.9847,-5.0104,-5.0232,-5.0487,-5.0867,-5.0968,-5.0968,-5.112,-5.1497,-5.1779,-5.1831,-5.1988,-5.2145,-5.2563,-5.2929,-5.3478,-5.387,-5.4184,-5.4497,-5.4863,-5.502,-5.5072,-5.5099,-5.5099,-5.5099,-5.5099,-5.5099,-5.5099,-5.5099,-5.5099,-5.5099,-5.5099,-5.5099,-5.5099,-3.3418,-3.3418,-3.3418,-3.3418,-3.3418,-3.3418,-3.3418,-3.3418,-3.3418,-3.3418,-3.3418,-3.3418,-3.3418,-3.3418,-3.3418,-3.3437,-3.3476,-3.3887,-3.4297,-3.4726,-3.5156,-3.5605,-3.584,-3.5976,-3.6035,-3.6035,-3.6035,-3.6035,-3.6035,-3.6035,-3.6035,-3.6035,-3.6035,-3.6035,-3.6035,-3.6035,-3.6152,-3.6268,-3.6268,-3.6268,-3.6539,-3.6654,-3.6654,-3.6789,-3.6944,-3.7348,-3.7616,-3.775,-3.7904,-3.8191,-3.8191,-3.8191,-3.8191,-3.8274,-3.8295,-3.8357,-3.8647,-3.8771,-3.8812,-3.8812,-3.8833,-3.8937,-3.9226,-3.9682,-4.0137,-4.0199,-4.0406,-4.0696,-4.082,-4.0862,-4.1693,-4.3193,-4.496,-4.6043,-4.7557,-4.8918,-4.959,-4.959,-4.959,-4.959,-4.959,-4.9719,-4.9719,-4.9976,-5.0232,-5.0487,-5.0741,-5.0715,-5.0919,-5.135,-5.1888,-5.2071,-5.238,-5.2694,-5.3243,-5.3661,-5.3949,-5.4262,-5.4576,-5.4785,-5.502,-5.5099,-5.5099,-5.5099,-5.5099,-5.5099,-5.5099,-5.5099,-5.5099,-5.5099,-5.5099,-5.5099,-5.5099,-5.5099,-5.5099,-3.3418,-3.3418,-3.3418,-3.3418,-3.3418,-3.3418,-3.3418,-3.3418,-3.3418,-3.3418,-3.3418,-3.3418,-3.3418,-3.3418,-3.3437,-3.3574,-3.3848,-3.4277,-3.4687,-3.5137,-3.5566,-3.5859,-3.6016,-3.6035,-3.6035,-3.6035,-3.6035,-3.6035,-3.6035,-3.6035,-3.6035,-3.6035,-3.6035,-3.6035,-3.6035,-3.6035,-3.6152,-3.6152,-3.6152,-3.6152,-3.6132,-3.6384,-3.6519,-3.6519,-3.6944,-3.7213,-3.7482,-3.7616,-3.7904,-3.8058,-3.8191,-3.8212,-3.8274,-3.844,-3.8564,-3.8647,-3.904,-3.9226,-3.9268,-3.9309,-3.9392,-3.9702,-3.9889,-4.0137,-4.053,-4.0613,-4.0675,-4.082,-4.0882,-4.0882,-4.1289,-4.3331,-4.5368,-4.5908,-4.7269,-4.9047,-4.959,-4.959,-4.959,-4.959,-4.959,-4.959,-4.959,-4.959,-4.9976,-5.0232,-5.0487,-5.0639,-5.0895,-5.1202,-5.1767,-5.2258,-5.2491,-5.301,-5.3687,-5.3974,-5.4367,-5.4628,-5.4916,-5.4994,-5.5099,-5.5099,-5.5099,-5.5099,-5.5099,-5.5099,-5.5099,-5.5099,-5.5099,-5.5099,-5.5099,-5.5099,-5.5099,-5.5099,-5.5099,-3.3418,-3.3418,-3.3418,-3.3418,-3.3418,-3.3418,-3.3418,-3.3418,-3.3418,-3.3418,-3.3418,-3.3418,-3.3418,-3.3437,-3.3594,-3.375,-3.416,-3.4609,-3.5039,-3.543,-3.5742,-3.5996,-3.6035,-3.6035,-3.6035,-3.6035,-3.6035,-3.6035,-3.6035,-3.6035,-3.6035,-3.6035,-3.6035,-3.6035,-3.6035,-3.6035,-3.6035,-3.6035,-3.6035,-3.6035,-3.6016,-3.6132,-3.6403,-3.6403,-3.6539,-3.6944,-3.7213,-3.7482,-3.775,-3.8037,-3.8212,-3.8274,-3.844,-3.8667,-3.8895,-3.9164,-3.9433,-3.9723,-3.9744,-3.9785,-3.9951,-4.0282,-4.0386,-4.0572,-4.0779,-4.0882,-4.0841,-4.0862,-4.0882,-4.0882,-4.1147,-4.3331,-4.496,-4.5773,-4.7953,-4.959,-4.959,-4.959,-4.959,-4.959,-4.959,-4.959,-4.959,-4.959,-4.9719,-4.9976,-5.0232,-5.0512,-5.0793,-5.1151,-5.1743,-5.2284,-5.2801,-5.3372,-5.397,-5.4259,-5.4415,-5.4626,-5.4861,-5.5046,-5.5099,-5.5099,-5.5099,-5.5099,-5.5099,-5.5099,-5.5099,-5.5099,-5.5099,-5.5099,-5.5099,-5.5099,-5.5099,-5.5099,-5.5099,-3.3418,-3.3418,-3.3418,-3.3418,-3.3418,-3.3418,-3.3418,-3.3418,-3.3418,-3.3418,-3.3418,-3.3418,-3.3418,-3.3516,-3.3769,-3.4043,-3.4316,-3.4941,-3.5391,-3.5547,-3.584,-3.5996,-3.6035,-3.6035,-3.6035,-3.6035,-3.6035,-3.6035,-3.6035,-3.6035,-3.6035,-3.6035,-3.6035,-3.6035,-3.6035,-3.6035,-3.6035,-3.6035,-3.6035,-3.6035,-3.6035,-3.6016,-3.6152,-3.6152,-3.6152,-3.6559,-3.6944,-3.7213,-3.7522,-3.8027,-3.8316,-3.8481,-3.8833,-3.8957,-3.9206,-3.9537,-3.9951,-4.0179,-4.0179,-4.0199,-4.0406,-4.0696,-4.0717,-4.08,-4.0862,-4.0882,-4.0882,-4.0882,-4.0882,-4.0882,-4.1834,-4.3193,-4.4436,-4.5908,-4.7953,-4.9461,-4.9461,-4.959,-4.959,-4.959,-4.959,-4.959,-4.959,-4.959,-4.959,-4.9719,-5.0001,-5.0229,-5.0713,-5.1119,-5.1711,-5.2327,-5.2895,-5.3387,-5.3881,-5.433,-5.4459,-5.4645,-5.4805,-5.4939,-5.5099,-5.5099,-5.5099,-5.5099,-5.5099,-5.5099,-5.5099,-5.5099,-5.5099,-5.5099,-5.5099,-5.5099,-5.5099,-5.5099,-5.5099,-3.3418,-3.3418,-3.3418,-3.3418,-3.3418,-3.3418,-3.3418,-3.3418,-3.3418,-3.3418,-3.3418,-3.3418,-3.3418,-3.3555,-3.3887,-3.4238,-3.459,-3.5039,-3.5469,-3.582,-3.5976,-3.5996,-3.6035,-3.6035,-3.6035,-3.6035,-3.6035,-3.6035,-3.6035,-3.6035,-3.6035,-3.6035,-3.6035,-3.6035,-3.6035,-3.6035,-3.6035,-3.6035,-3.6035,-3.6035,-3.6035,-3.6035,-3.6035,-3.6035,-3.6035,-3.6287,-3.6829,-3.6964,-3.751,-3.8274,-3.845,-3.8854,-3.9268,-3.9475,-3.9785,-4.0054,-4.0406,-4.0634,-4.0655,-4.0675,-4.0717,-4.0841,-4.0882,-4.0882,-4.0882,-4.0882,-4.0882,-4.0882,-4.0882,-4.0882,-4.1431,-4.2678,-4.3907,-4.5232,-4.7136,-4.8502,-4.9047,-4.9461,-4.959,-4.959,-4.959,-4.959,-4.959,-4.964,-4.964,-4.9715,-4.987,-5.0147,-5.0499,-5.1135,-5.1696,-5.2362,-5.3088,-5.3529,-5.392,-5.4106,-5.4241,-5.4376,-5.4671,-5.4939,-5.4965,-5.4965,-5.4939,-5.4939,-5.4939,-5.5099,-5.5099,-5.5099,-5.5099,-5.5099,-5.5099,-5.5099,-5.5099,-5.5099,-5.5099,-3.3418,-3.3418,-3.3418,-3.3418,-3.3418,-3.3418,-3.3418,-3.3418,-3.3418,-3.3418,-3.3418,-3.3418,-3.3535,-3.373,-3.4101,-3.4531,-3.4961,-3.541,-3.5664,-3.6016,-3.6035,-3.6035,-3.6035,-3.6035,-3.6035,-3.6035,-3.6035,-3.6035,-3.6035,-3.6035,-3.6035,-3.6035,-3.6035,-3.6035,-3.6035,-3.6035,-3.6035,-3.6035,-3.6035,-3.6035,-3.6035,-3.6035,-3.6035,-3.6035,-3.6016,-3.6152,-3.6578,-3.7104,-3.7577,-3.8248,-3.8767,-3.9288,-3.9744,-4.0013,-4.0303,-4.0489,-4.0675,-4.0862,-4.0841,-4.0841,-4.0841,-4.0862,-4.0882,-4.0882,-4.0882,-4.0882,-4.0882,-4.0882,-4.0882,-4.0882,-4.1147,-4.2278,-4.3353,-4.4846,-4.6201,-4.7689,-4.8502,-4.8918,-4.959,-4.959,-4.959,-4.959,-4.9615,-4.9665,-4.969,-4.9791,-4.9916,-5.0268,-5.0619,-5.1147,-5.1808,-5.2472,-5.2962,-5.3164,-5.3563,-5.3861,-5.3997,-5.4106,-5.4402,-5.4671,-5.4805,-5.4671,-5.4671,-5.4805,-5.4965,-5.5099,-5.5099,-5.5099,-5.5099,-5.5099,-5.5099,-5.5099,-5.5099,-5.5099,-5.5099,-3.3418,-3.3418,-3.3418,-3.3418,-3.3418,-3.3418,-3.3418,-3.3418,-3.3418,-3.3418,-3.3418,-3.3418,-3.3613,-3.4062,-3.4492,-3.4902,-3.5332,-3.5762,-3.5937,-3.5996,-3.6035,-3.6035,-3.6035,-3.6035,-3.6035,-3.6035,-3.6035,-3.6035,-3.6035,-3.6035,-3.6035,-3.6035,-3.6035,-3.6035,-3.6035,-3.6035,-3.6035,-3.6035,-3.6035,-3.6035,-3.6035,-3.6035,-3.6035,-3.6035,-3.6016,-3.6152,-3.6638,-3.7149,-3.7799,-3.8493,-3.9055,-3.9626,-4.0096,-4.0241,-4.053,-4.0737,-4.0862,-4.0862,-4.0882,-4.0882,-4.0882,-4.0882,-4.0882,-4.0882,-4.0882,-4.0882,-4.0882,-4.0882,-4.0882,-4.0882,-4.1147,-4.1997,-4.2818,-4.4183,-4.5526,-4.6603,-4.7557,-4.8371,-4.9177,-4.9461,-4.959,-4.9615,-4.964,-4.9665,-4.9941,-5.0193,-5.0444,-5.0896,-5.1247,-5.1548,-5.2076,-5.2553,-5.2966,-5.2854,-5.3204,-5.3452,-5.3725,-5.3861,-5.3997,-5.4267,-5.4376,-5.4511,-5.4511,-5.4671,-5.4965,-5.5099,-5.5099,-5.5099,-5.5099,-5.5099,-5.5099,-5.5099,-5.5099,-5.5099,-5.5099,-3.3418,-3.3418,-3.3418,-3.3418,-3.3418,-3.3418,-3.3418,-3.3418,-3.3418,-3.3418,-3.3418,-3.3418,-3.3691,-3.4101,-3.4512,-3.4961,-3.541,-3.5781,-3.5957,-3.6035,-3.6035,-3.6035,-3.6035,-3.6035,-3.6035,-3.6035,-3.6035,-3.6035,-3.6035,-3.6035,-3.6035,-3.6035,-3.6035,-3.6035,-3.6035,-3.6035,-3.6035,-3.6035,-3.6035,-3.6035,-3.6035,-3.6035,-3.6035,-3.6035,-3.6035,-3.6171,-3.6425,-3.7288,-3.8021,-3.8543,-3.9507,-4.0241,-4.0634,-4.0696,-4.08,-4.0841,-4.0882,-4.0882,-4.0882,-4.0882,-4.0882,-4.0882,-4.0882,-4.0882,-4.0882,-4.0882,-4.0882,-4.0882,-4.0882,-4.0882,-4.0882,-4.1573,-4.2278,-4.3214,-4.4436,-4.5391,-4.6469,-4.7689,-4.8502,-4.9461,-4.959,-4.9615,-4.964,-4.9967,-5.0243,-5.0569,-5.0971,-5.1448,-5.18,-5.2076,-5.2327,-5.2804,-5.2929,-5.2929,-5.3067,-5.3341,-5.3478,-5.3614,-5.3725,-5.3861,-5.3997,-5.4132,-5.4241,-5.4537,-5.4965,-5.5099,-5.5099,-5.5099,-5.5099,-5.5099,-5.5099,-5.5099,-5.5099,-5.5099,-5.5099,-3.3418,-3.3418,-3.3418,-3.3418,-3.3418,-3.3418,-3.3418,-3.3418,-3.3418,-3.3418,-3.3418,-3.3418,-3.375,-3.4316,-3.4629,-3.5039,-3.5664,-3.5879,-3.6035,-3.6035,-3.6035,-3.6035,-3.6035,-3.6035,-3.6035,-3.6035,-3.6035,-3.6035,-3.6035,-3.6035,-3.6035,-3.6035,-3.6035,-3.6035,-3.6035,-3.6035,-3.6035,-3.6035,-3.6035,-3.6035,-3.6035,-3.6035,-3.6035,-3.6035,-3.6035,-3.6094,-3.6446,-3.7488,-3.8205,-3.8808,-3.9818,-4.0572,-4.0862,-4.0862,-4.0862,-4.0882,-4.0882,-4.0882,-4.0882,-4.0882,-4.0882,-4.0882,-4.0882,-4.0882,-4.0882,-4.0882,-4.0882,-4.0882,-4.0882,-4.0882,-4.0882,-4.1025,-4.1573,-4.2116,-4.3214,-4.4183,-4.5526,-4.687,-4.8109,-4.9332,-4.959,-4.959,-4.9791,-5.0193,-5.0594,-5.0946,-5.1398,-5.195,-5.2251,-5.2477,-5.2603,-5.2854,-5.2929,-5.2929,-5.3067,-5.3067,-5.3204,-5.3204,-5.3341,-5.3452,-5.3478,-5.3861,-5.4267,-5.4537,-5.4831,-5.4965,-5.4965,-5.5099,-5.5099,-5.5099,-5.5099,-5.5099,-5.5099,-5.5099,-5.5099,-3.3418,-3.3418,-3.3418,-3.3418,-3.3418,-3.3418,-3.3418,-3.3418,-3.3418,-3.3418,-3.3418,-3.3457,-3.3945,-3.4551,-3.4805,-3.5273,-3.5742,-3.5996,-3.6035,-3.6035,-3.6035,-3.6035,-3.6035,-3.6035,-3.6035,-3.6035,-3.6035,-3.6035,-3.6035,-3.6035,-3.6035,-3.6035,-3.6035,-3.6035,-3.6035,-3.6035,-3.6035,-3.6035,-3.6035,-3.6035,-3.6035,-3.6035,-3.6035,-3.6035,-3.6074,-3.6191,-3.6897,-3.7749,-3.8608,-3.9333,-4.0126,-4.082,-4.0862,-4.0882,-4.0882,-4.0882,-4.0882,-4.0882,-4.0882,-4.0882,-4.0882,-4.0882,-4.0882,-4.0882,-4.0882,-4.0882,-4.0882,-4.0882,-4.0882,-4.0882,-4.0882,-4.0882,-4.1289,-4.1855,-4.2678,-4.3907,-4.5255,-4.687,-4.8502,-4.9461,-4.959,-4.964,-4.9992,-5.0393,-5.0971,-5.1322,-5.185,-5.2427,-5.2603,-5.2804,-5.2854,-5.2904,-5.2929,-5.2929,-5.2929,-5.2929,-5.2929,-5.2929,-5.3067,-5.3067,-5.3341,-5.3725,-5.4132,-5.4402,-5.4562,-5.4831,-5.4965,-5.4939,-5.4939,-5.5099,-5.5099,-5.5099,-5.5099,-5.5099,-5.5099,-3.3418,-3.3418,-3.3418,-3.3418,-3.3418,-3.3418,-3.3418,-3.3418,-3.3418,-3.3418,-3.3476,-3.3789,-3.418,-3.4668,-3.5059,-3.5508,-3.5898,-3.6035,-3.6035,-3.6035,-3.6035,-3.6035,-3.6035,-3.6035,-3.6035,-3.6035,-3.6035,-3.6035,-3.6035,-3.6035,-3.6035,-3.6035,-3.6035,-3.6035,-3.6035,-3.6035,-3.6035,-3.6035,-3.6035,-3.6035,-3.6035,-3.6035,-3.6035,-3.6035,-3.6074,-3.6309,-3.6976,-3.7808,-3.8628,-3.9192,-4.035,-4.0841,-4.0882,-4.0882,-4.0882,-4.0882,-4.0882,-4.0882,-4.0882,-4.0882,-4.0882,-4.0882,-4.0882,-4.0882,-4.0882,-4.0882,-4.0882,-4.0882,-4.0882,-4.0882,-4.0882,-4.0882,-4.1025,-4.1573,-4.2116,-4.347,-4.4983,-4.687,-4.8918,-4.9332,-4.959,-4.9841,-5.0167,-5.067,-5.1272,-5.1825,-5.2377,-5.2804,-5.2779,-5.2879,-5.2879,-5.2929,-5.2929,-5.2929,-5.2929,-5.2929,-5.2929,-5.2929,-5.2929,-5.3067,-5.3067,-5.3478,-5.3861,-5.3997,-5.4267,-5.4537,-5.4671,-5.4645,-5.4779,-5.4939,-5.5099,-5.5099,-5.5099,-5.5099,-5.5099,-3.3418,-3.3418,-3.3418,-3.3418,-3.3418,-3.3418,-3.3418,-3.3418,-3.3418,-3.3418,-3.3476,-3.3887,-3.4316,-3.4726,-3.5195,-3.5625,-3.5957,-3.6016,-3.6035,-3.6035,-3.6035,-3.6035,-3.6035,-3.6035,-3.6035,-3.6035,-3.6035,-3.6035,-3.6035,-3.6035,-3.6035,-3.6035,-3.6035,-3.6035,-3.6035,-3.6035,-3.6035,-3.6035,-3.6035,-3.6035,-3.6035,-3.6035,-3.6035,-3.6035,-3.623,-3.6504,-3.7073,-3.7927,-3.8627,-3.9394,-4.0187,-4.0576,-4.0596,-4.0596,-4.074,-4.0882,-4.0882,-4.0882,-4.0882,-4.0882,-4.0882,-4.0882,-4.0882,-4.0882,-4.0882,-4.0882,-4.0882,-4.0882,-4.0882,-4.0882,-4.0882,-4.0882,-4.0882,-4.1289,-4.1693,-4.2656,-4.4573,-4.6736,-4.8371,-4.9461,-4.9665,-4.9841,-5.0243,-5.082,-5.1398,-5.195,-5.2553,-5.2879,-5.2929,-5.2929,-5.2929,-5.2929,-5.2929,-5.2929,-5.2929,-5.2929,-5.2929,-5.2929,-5.2929,-5.3067,-5.3204,-5.3341,-5.3614,-5.3725,-5.3997,-5.4241,-5.4376,-5.4376,-5.4645,-5.4965,-5.5099,-5.5099,-5.5099,-5.5099,-5.5099,-3.3418,-3.3418,-3.3418,-3.3418,-3.3418,-3.3418,-3.3418,-3.3418,-3.3418,-3.3418,-3.3496,-3.3965,-3.4375,-3.4746,-3.5254,-3.5644,-3.5918,-3.6016,-3.6035,-3.6035,-3.6035,-3.6035,-3.6035,-3.6035,-3.6035,-3.6035,-3.6035,-3.6035,-3.6035,-3.6035,-3.6035,-3.6035,-3.6035,-3.6035,-3.6035,-3.6035,-3.6035,-3.6035,-3.6035,-3.6035,-3.6035,-3.6035,-3.6035,-3.6172,-3.6445,-3.6855,-3.7426,-3.8141,-3.8843,-3.9389,-3.9982,-4.0146,-4.031,-4.0453,-4.0596,-4.074,-4.0882,-4.0882,-4.0882,-4.0882,-4.0882,-4.0882,-4.0882,-4.0882,-4.0882,-4.0882,-4.0882,-4.0882,-4.0882,-4.0882,-4.0882,-4.0882,-4.0882,-4.1004,-4.1431,-4.2257,-4.4436,-4.6469,-4.7821,-4.9202,-4.9661,-4.9812,-5.0469,-5.1046,-5.1574,-5.2126,-5.2477,-5.2729,-5.2929,-5.2929,-5.2929,-5.2929,-5.2929,-5.2929,-5.2929,-5.2929,-5.2929,-5.2929,-5.2929,-5.3067,-5.3341,-5.3341,-5.3341,-5.3589,-5.3861,-5.3835,-5.4106,-5.4241,-5.4537,-5.4965,-5.4939,-5.4939,-5.5099,-5.5099,-5.5099,-3.3418,-3.3418,-3.3418,-3.3418,-3.3418,-3.3418,-3.3418,-3.3418,-3.3418,-3.3418,-3.3633,-3.4219,-3.4648,-3.4746,-3.5566,-3.5976,-3.5976,-3.6035,-3.6035,-3.6035,-3.6035,-3.6035,-3.6035,-3.6035,-3.6035,-3.6035,-3.6035,-3.6035,-3.6035,-3.6035,-3.6035,-3.6035,-3.6035,-3.6035,-3.6035,-3.6035,-3.6035,-3.6035,-3.6035,-3.6035,-3.6035,-3.6035,-3.6035,-3.6191,-3.6445,-3.6875,-3.7426,-3.8141,-3.872,-3.9161,-3.959,-3.9878,-4.0166,-4.031,-4.0453,-4.074,-4.0882,-4.0882,-4.0882,-4.0882,-4.0882,-4.0882,-4.0882,-4.0882,-4.0882,-4.0882,-4.0882,-4.0882,-4.0882,-4.0882,-4.0882,-4.0882,-4.0882,-4.1289,-4.1714,-4.2936,-4.4709,-4.5932,-4.7293,-4.8411,-4.9314,-4.9974,-5.0946,-5.1498,-5.2051,-5.2477,-5.2703,-5.2929,-5.2929,-5.2929,-5.2929,-5.2929,-5.2929,-5.2929,-5.2929,-5.2929,-5.2929,-5.2929,-5.2929,-5.3067,-5.3067,-5.2929,-5.3067,-5.3316,-5.3316,-5.3452,-5.3589,-5.3997,-5.4402,-5.4671,-5.4671,-5.4645,-5.4939,-5.5099,-5.5099]}]]